[[{"header":{"parameterUnit":"m.s-1","parameterCategory":1,"la1":31.0,"la2":29.5877,"lo1":-88.7671,"lo2":-86.6584,"dx":0.0162,"dy":0.0185,"nx":115,"ny":88,"refTime":"2023-02-08T18:00:00:Z","depth":0,"parameterNumber":2,"parameterNumberName":"U-component_of_WINDS"},"data":[0.0,0.0,0.0,0.0,0.0,0.0,0.0,0.0,0.0,0.0,0.0,0.0,0.0,0.0,0.0,0.0,0.0,0.0,0.0,0.0,0.0,0.0,0.0,0.0,0.0,0.0,0.0,0.0,0.0,0.0,0.0,0.0,0.0,0.0,0.0,0.0,0.0,0.0,0.0,0.0,0.0,0.0,0.0,0.0,0.0,0.0,0.0,0.0,0.0,0.0,0.0,0.0,0.0,0.0,0.0,0.0,0.0,0.0,0.0,0.0,0.0,0.0,0.0,0.0,0.0,0.0,0.0,0.0,0.0,0.0,0.0,0.0,0.0,0.0,0.0,0.0,0.0,0.0,0.0,0.0,0.0,0.0,0.0,0.0,0.0,0.0,0.0,0.0,0.0,0.0,0.0,0.0,0.0,0.0,0.0,0.0,0.0,0.0,0.0,0.0,0.0,0.0,0.0,0.0,0.0,0.0,0.0,0.0,0.0,0.0,0.0,0.0,0.0,0.0,0.0,0.0,0.0,0.0,0.0,0.0,0.0,0.0,0.0,0.0,0.0,0.0,0.0,0.0,0.0,0.0,0.0,0.0,0.0,0.0,0.0,0.0,0.0,0.0,0.0,0.0,0.0,0.0,0.0,0.0,0.0,0.0,0.0,0.0,0.0,0.0,0.0,0.0,0.0,0.0,0.0,0.0,0.0,0.0,0.0,0.0,0.0,0.0,0.0,0.0,0.0,0.0,0.0,0.0,0.0,0.0,0.0,0.0,0.0,0.0,0.0,0.0,0.0,0.0,0.0,0.0,0.0,0.0,0.0,0.0,0.0,0.0,0.0,0.0,0.0,0.0,0.0,0.0,0.0,0.0,0.0,0.0,0.0,0.0,0.0,0.0,0.0,0.0,0.0,0.0,0.0,0.0,0.0,0.0,0.0,0.0,0.0,0.0,0.0,0.0,0.0,0.0,0.0,0.0,0.0,0.0,0.0,0.0,0.0,0.0,0.0,0.0,0.0,0.0,0.0,0.0,0.0,0.0,0.0,0.0,0.0,0.0,0.0,0.0,0.0,0.0,0.0,0.0,0.0,0.0,0.0,0.0,0.0,0.0,0.0,0.0,0.0,0.0,0.0,0.0,0.0,0.0,0.0,0.0,0.0,0.0,0.0,0.0,0.0,0.0,0.0,0.0,0.0,0.0,0.0,0.0,0.0,0.0,0.0,0.0,0.0,0.0,0.0,0.0,0.0,0.0,0.0,0.0,0.0,0.0,0.0,0.0,0.0,0.0,0.0,0.0,0.0,0.0,0.0,0.0,0.0,0.0,0.0,0.0,0.0,0.0,0.0,0.0,0.0,0.0,0.0,0.0,0.0,0.0,0.0,0.0,0.0,0.0,0.0,0.0,0.0,0.0,0.0,0.0,0.0,0.0,0.0,0.0,0.0,0.0,0.0,0.0,0.0,0.0,0.0,0.0,0.0,0.0,0.0,0.0,0.0,0.0,0.0,0.0,0.0,0.0,0.0,0.0,0.0,0.0,0.0,0.0,0.0,0.0,0.0,0.0,0.0,0.0,0.0,0.0,0.0,0.0,0.0,0.0,0.0,0.0,0.0,0.0,0.0,0.0,0.0,0.0,0.0,0.0,0.0,0.0,0.0,0.0,0.0,0.0,0.0,0.0,0.0,0.0,0.0,0.0,0.0,0.0,0.0,0.0,0.0,0.0,0.0,0.0,0.0,0.0,0.0,0.0,0.0,0.0,0.0,0.0,0.0,0.0,0.0,0.0,0.0,0.0,0.0,0.0,0.0,0.0,0.0,0.0,0.0,0.0,0.0,0.0,0.0,0.0,0.0,0.0,0.0,0.0,0.0,0.0,0.0,0.0,0.0,0.0,0.0,0.0,0.0,0.0,0.0,0.0,0.0,0.0,0.0,0.0,0.0,0.0,0.0,0.0,0.0,0.0,0.0,0.0,0.0,0.0,0.0,0.0,0.0,0.0,0.0,0.0,0.0,0.0,0.0,0.0,0.0,0.0,0.0,0.0,0.0,0.0,0.0,0.0,0.0,0.0,0.0,0.0,0.0,0.0,0.0,0.0,0.0,0.0,0.0,0.0,0.0,0.0,0.0,0.0,0.0,0.0,0.0,0.0,0.0,0.0,0.0,0.0,0.0,0.0,0.0,0.0,0.0,0.0,0.0,0.0,0.0,0.0,0.0,0.0,0.0,0.0,0.0,0.0,0.0,0.0,0.0,0.0,0.0,0.0,0.0,0.0,0.0,0.0,0.0,0.0,0.0,0.0,0.0,0.0,0.0,0.0,0.0,0.0,0.0,0.0,0.0,0.0,0.0,0.0,0.0,0.0,0.0,0.0,0.0,0.0,0.0,0.0,0.0,0.0,0.0,0.0,0.0,0.0,0.0,0.0,0.0,0.0,0.0,0.0,0.0,0.0,0.0,0.0,0.0,0.0,0.0,0.0,0.0,0.0,0.0,0.0,0.0,0.0,0.0,0.0,0.0,0.0,0.0,0.0,0.0,0.0,0.0,0.0,0.0,0.0,0.0,0.0,0.0,0.0,0.0,0.0,0.0,0.0,0.0,0.0,0.0,0.0,0.0,0.0,0.0,0.0,0.0,0.0,0.0,0.0,0.0,0.0,0.0,0.0,0.0,0.0,0.0,0.0,0.0,0.0,0.0,0.0,0.0,0.0,0.0,0.0,0.0,0.0,0.0,0.0,0.0,0.0,0.0,0.0,0.0,0.0,0.0,0.0,0.0,0.0,0.0,0.0,0.0,0.0,0.0,0.0,0.0,0.0,0.0,0.0,0.0,0.0,0.0,0.0,0.0,0.0,0.0,0.0,0.0,0.0,0.0,0.0,0.0,0.0,0.0,0.0,0.0,0.0,0.0,0.0,0.0,0.0,0.0,0.0,0.0,0.0,0.0,0.0,0.0,0.0,0.0,0.0,0.0,0.0,0.0,0.0,0.0,0.0,0.0,0.0,0.0,0.0,0.0,0.0,0.0,0.0,0.0,0.0,0.0,0.0,0.0,0.0,0.0,0.0,0.0,0.0,0.0,0.0,0.0,0.0,0.0,0.0,0.0,0.0,0.0,0.0,0.0,0.0,0.0,0.0,0.0,0.0,0.0,0.0,0.0,0.0,0.0,0.0,0.0,0.0,0.0,0.0,0.0,0.0,0.0,0.0,0.0,0.0,0.0,0.0,0.0,0.0,0.0,0.0,0.0,0.0,0.0,0.0,0.0,0.0,0.0,0.0,0.0,0.0,0.0,0.0,0.0,0.0,0.0,0.0,0.0,0.0,0.0,0.0,0.0,0.0,0.0,0.0,0.0,0.0,0.0,0.0,0.0,0.0,0.0,0.0,0.0,0.0,0.0,0.0,0.0,0.0,0.0,0.0,0.0,0.0,0.0,0.0,0.0,0.0,0.0,0.0,0.0,0.0,0.0,0.0,0.0,0.0,0.0,0.0,0.0,0.0,0.0,0.0,0.0,0.0,0.0,0.0,0.0,0.0,0.0,0.0,0.0,0.0,0.0,0.0,0.0,0.0,0.0,0.0,0.0,0.0,0.0,0.0,0.0,0.0,0.0,0.0,0.0,0.0,0.0,0.0,0.0,0.0,0.0,0.0,0.0,0.0,0.0,0.0,0.0,0.0,0.0,0.0,0.0,0.0,0.0,0.0,0.0,0.0,0.0,0.0,0.0,0.0,0.0,0.0,0.0,0.0,0.0,0.0,0.0,0.0,0.0,0.0,0.0,0.0,0.0,0.0,0.0,0.0,0.0,0.0,0.0,0.0,0.0,0.0,0.0,0.0,0.0,0.0,0.0,0.0,0.0,0.0,0.0,0.0,0.0,0.0,0.0,0.0,0.0,0.0,0.0,0.0,0.0,0.0,0.0,0.0,0.0,0.0,0.0,0.0,0.0,0.0,0.0,0.0,0.0,0.0,0.0,0.0,0.0,0.0,0.0,0.0,0.0,0.0,0.0,0.0,0.0,0.0,0.0,0.0,0.0,0.0,0.0,0.0,0.0,0.0,0.0,0.0,0.0,0.0,0.0,0.0,0.0,0.0,0.0,0.0,0.0,0.0,0.0,0.0,0.0,0.0,0.0,0.0,0.0,0.0,0.0,0.0,0.0,0.0,0.0,0.0,0.0,0.0,0.0,0.0,0.0,0.0,0.0,0.0,0.0,0.0,0.0,0.0,0.0,0.0,0.0,0.0,0.0,0.0,0.0,0.0,0.0,0.0,0.0,0.0,0.0,0.0,0.0,0.0,4.0457,0.0,0.0,0.0,0.0,0.0,0.0,0.0,0.0,0.0,0.0,0.0,0.0,0.0,0.0,0.0,0.0,0.0,0.0,0.0,0.0,0.0,0.0,0.0,0.0,0.0,0.0,0.0,0.0,0.0,0.0,0.0,0.0,0.0,0.0,0.0,0.0,0.0,0.0,0.0,0.0,0.0,0.0,0.0,0.0,0.0,0.0,0.0,0.0,0.0,0.0,0.0,0.0,0.0,0.0,0.0,0.0,0.0,0.0,0.0,0.0,0.0,0.0,0.0,0.0,0.0,0.0,0.0,0.0,0.0,0.0,0.0,0.0,0.0,0.0,0.0,0.0,0.0,0.0,0.0,0.0,0.0,0.0,0.0,0.0,0.0,0.0,0.0,0.0,0.0,0.0,0.0,0.0,0.0,0.0,0.0,0.0,0.0,0.0,0.0,0.0,0.0,0.0,0.0,0.0,0.0,0.0,0.0,0.0,0.0,0.0,4.1863,4.1893,4.2192,4.1893,4.0965,0.0,0.0,0.0,0.0,0.0,0.0,0.0,0.0,0.0,0.0,0.0,0.0,0.0,0.0,0.0,0.0,0.0,0.0,0.0,0.0,0.0,0.0,0.0,0.0,0.0,0.0,0.0,0.0,0.0,0.0,0.0,0.0,0.0,0.0,0.0,0.0,0.0,0.0,0.0,0.0,0.0,0.0,0.0,0.0,0.0,0.0,0.0,0.0,0.0,0.0,0.0,0.0,0.0,0.0,0.0,0.0,0.0,0.0,0.0,0.0,0.0,0.0,0.0,0.0,0.0,0.0,0.0,0.0,0.0,0.0,0.0,0.0,0.0,0.0,0.0,0.0,0.0,0.0,0.0,0.0,0.0,0.0,0.0,0.0,0.0,0.0,0.0,0.0,0.0,0.0,0.0,0.0,0.0,0.0,0.0,0.0,0.0,0.0,0.0,0.0,0.0,0.0,0.0,0.0,0.0,0.0,0.0,0.0,0.0,0.0,0.0,0.0,4.2432,4.1983,4.1175,0.0,0.0,0.0,0.0,0.0,0.0,0.0,0.0,0.0,0.0,0.0,0.0,0.0,0.0,0.0,0.0,0.0,0.0,0.0,0.0,0.0,0.0,0.0,0.0,0.0,0.0,0.0,0.0,0.0,0.0,0.0,0.0,0.0,0.0,0.0,0.0,0.0,0.0,0.0,0.0,0.0,0.0,0.0,0.0,0.0,0.0,0.0,0.0,0.0,0.0,0.0,0.0,0.0,0.0,0.0,0.0,0.0,0.0,0.0,0.0,0.0,0.0,0.0,0.0,0.0,0.0,0.0,0.0,0.0,0.0,0.0,0.0,0.0,0.0,0.0,0.0,0.0,0.0,0.0,0.0,0.0,0.0,0.0,0.0,0.0,0.0,0.0,0.0,0.0,0.0,0.0,0.0,0.0,0.0,0.0,0.0,0.0,0.0,0.0,0.0,0.0,0.0,0.0,0.0,0.0,0.0,0.0,0.0,0.0,0.0,4.318,4.321,4.2671,0.0,4.0576,0.0,0.0,0.0,0.0,0.0,0.0,0.0,0.0,0.0,0.0,0.0,0.0,0.0,0.0,0.0,0.0,0.0,0.0,0.0,0.0,0.0,0.0,0.0,0.0,0.0,0.0,0.0,0.0,0.0,0.0,0.0,0.0,0.0,0.0,0.0,0.0,0.0,0.0,0.0,0.0,0.0,0.0,0.0,0.0,0.0,0.0,0.0,0.0,0.0,0.0,0.0,0.0,0.0,0.0,0.0,0.0,0.0,0.0,0.0,0.0,0.0,0.0,0.0,0.0,0.0,0.0,0.0,0.0,0.0,0.0,0.0,0.0,0.0,0.0,0.0,0.0,0.0,0.0,0.0,0.0,0.0,0.0,0.0,0.0,0.0,0.0,0.0,0.0,0.0,0.0,0.0,0.0,0.0,0.0,0.0,0.0,0.0,0.0,0.0,0.0,0.0,0.0,0.0,0.0,0.0,0.0,0.0,0.0,0.0,0.0,4.294,4.3329,4.2342,4.1354,0.0,0.0,0.0,0.0,0.0,0.0,0.0,0.0,0.0,0.0,0.0,0.0,0.0,0.0,0.0,0.0,0.0,0.0,0.0,0.0,0.0,0.0,0.0,0.0,0.0,0.0,0.0,0.0,0.0,0.0,0.0,0.0,0.0,0.0,0.0,0.0,0.0,0.0,0.0,0.0,0.0,0.0,0.0,0.0,0.0,0.0,0.0,0.0,0.0,0.0,0.0,0.0,0.0,0.0,0.0,0.0,0.0,0.0,0.0,0.0,0.0,0.0,0.0,0.0,0.0,0.0,0.0,0.0,0.0,0.0,0.0,0.0,0.0,0.0,0.0,0.0,0.0,0.0,0.0,0.0,0.0,0.0,0.0,0.0,0.0,0.0,0.0,0.0,0.0,0.0,0.0,0.0,0.0,0.0,0.0,0.0,0.0,0.0,0.0,0.0,0.0,0.0,0.0,0.0,0.0,0.0,0.0,0.0,0.0,0.0,4.288,4.2761,4.3,4.1983,4.1085,4.0427,0.0,0.0,0.0,0.0,0.0,0.0,0.0,0.0,0.0,0.0,0.0,0.0,0.0,0.0,0.0,0.0,0.0,0.0,0.0,0.0,0.0,0.0,0.0,0.0,0.0,0.0,0.0,0.0,0.0,0.0,0.0,0.0,0.0,0.0,0.0,0.0,0.0,0.0,0.0,0.0,0.0,0.0,0.0,0.0,0.0,0.0,0.0,0.0,0.0,0.0,0.0,0.0,0.0,0.0,0.0,0.0,0.0,0.0,0.0,0.0,0.0,0.0,0.0,0.0,0.0,0.0,0.0,0.0,0.0,0.0,0.0,0.0,0.0,0.0,0.0,0.0,0.0,0.0,0.0,0.0,0.0,0.0,0.0,0.0,0.0,0.0,0.0,0.0,0.0,0.0,0.0,0.0,0.0,0.0,0.0,0.0,0.0,0.0,0.0,0.0,0.0,0.0,0.0,0.0,0.0,0.0,0.0,0.0,4.3329,4.3269,4.3,4.2402,4.1713,4.1055,0.0,0.0,0.0,0.0,0.0,0.0,0.0,0.0,0.0,0.0,0.0,0.0,0.0,0.0,0.0,0.0,0.0,0.0,0.0,0.0,0.0,0.0,0.0,0.0,0.0,0.0,0.0,0.0,0.0,0.0,0.0,0.0,0.0,0.0,0.0,0.0,0.0,0.0,0.0,0.0,0.0,0.0,0.0,0.0,0.0,0.0,0.0,0.0,0.0,0.0,0.0,0.0,0.0,0.0,0.0,0.0,0.0,0.0,0.0,0.0,0.0,0.0,0.0,0.0,0.0,0.0,0.0,0.0,0.0,0.0,0.0,0.0,0.0,0.0,0.0,0.0,0.0,0.0,0.0,0.0,0.0,0.0,0.0,0.0,0.0,0.0,0.0,0.0,0.0,0.0,0.0,0.0,0.0,0.0,0.0,0.0,0.0,0.0,0.0,0.0,0.0,0.0,0.0,0.0,0.0,0.0,0.0,0.0,0.0,4.2701,4.2701,4.2402,4.1743,4.1085,4.0247,0.0,0.0,0.0,0.0,0.0,0.0,0.0,0.0,0.0,0.0,0.0,0.0,0.0,0.0,0.0,0.0,0.0,0.0,0.0,0.0,0.0,0.0,0.0,0.0,0.0,0.0,0.0,0.0,0.0,0.0,0.0,0.0,0.0,0.0,0.0,0.0,0.0,0.0,0.0,0.0,0.0,0.0,0.0,0.0,0.0,0.0,0.0,0.0,0.0,0.0,0.0,0.0,0.0,0.0,0.0,0.0,0.0,0.0,0.0,0.0,0.0,0.0,0.0,0.0,0.0,0.0,0.0,0.0,0.0,0.0,0.0,0.0,0.0,0.0,0.0,0.0,0.0,0.0,0.0,0.0,0.0,0.0,0.0,0.0,0.0,0.0,0.0,0.0,0.0,0.0,0.0,0.0,0.0,0.0,0.0,0.0,0.0,0.0,0.0,0.0,0.0,0.0,0.0,0.0,0.0,0.0,0.0,0.0,0.0,4.2073,0.0,4.1833,4.1384,4.0756,3.9888,0.0,0.0,0.0,0.0,0.0,0.0,0.0,0.0,0.0,0.0,0.0,0.0,0.0,0.0,0.0,0.0,0.0,0.0,0.0,0.0,0.0,0.0,0.0,0.0,0.0,0.0,0.0,0.0,0.0,0.0,0.0,0.0,0.0,0.0,0.0,0.0,0.0,0.0,0.0,0.0,0.0,0.0,0.0,0.0,0.0,0.0,0.0,0.0,0.0,0.0,0.0,0.0,0.0,0.0,0.0,0.0,0.0,0.0,0.0,0.0,0.0,0.0,0.0,0.0,0.0,0.0,0.0,0.0,0.0,0.0,0.0,0.0,0.0,0.0,0.0,0.0,0.0,0.0,0.0,0.0,0.0,0.0,0.0,0.0,0.0,0.0,0.0,0.0,0.0,0.0,0.0,0.0,0.0,0.0,0.0,0.0,0.0,0.0,0.0,0.0,0.0,0.0,0.0,0.0,0.0,0.0,0.0,0.0,4.2013,4.1444,4.1384,4.1384,4.1384,4.0696,4.0038,0.0,0.0,0.0,0.0,0.0,0.0,0.0,0.0,0.0,0.0,0.0,0.0,0.0,0.0,0.0,0.0,0.0,0.0,0.0,0.0,0.0,0.0,0.0,0.0,0.0,0.0,0.0,0.0,0.0,0.0,0.0,0.0,0.0,0.0,0.0,0.0,0.0,0.0,0.0,0.0,0.0,0.0,0.0,0.0,0.0,0.0,0.0,0.0,0.0,0.0,0.0,0.0,0.0,0.0,0.0,0.0,0.0,0.0,0.0,0.0,0.0,0.0,0.0,0.0,0.0,0.0,0.0,0.0,0.0,0.0,0.0,0.0,0.0,0.0,0.0,0.0,0.0,0.0,0.0,0.0,0.0,0.0,0.0,0.0,0.0,0.0,0.0,0.0,0.0,0.0,0.0,0.0,0.0,0.0,0.0,0.0,0.0,0.0,0.0,0.0,0.0,0.0,0.0,0.0,0.0,0.0,0.0,0.0,0.0,4.2013,4.1175,4.1145,4.1953,4.0068,3.8901,0.0,0.0,0.0,0.0,0.0,0.0,0.0,0.0,0.0,0.0,0.0,0.0,0.0,0.0,0.0,0.0,0.0,0.0,0.0,0.0,0.0,0.0,0.0,0.0,0.0,0.0,0.0,0.0,0.0,0.0,0.0,0.0,0.0,0.0,0.0,0.0,0.0,0.0,0.0,0.0,0.0,0.0,0.0,0.0,0.0,0.0,0.0,0.0,0.0,0.0,0.0,0.0,0.0,0.0,0.0,0.0,0.0,0.0,0.0,0.0,0.0,0.0,0.0,0.0,0.0,0.0,0.0,0.0,0.0,0.0,0.0,0.0,0.0,0.0,0.0,0.0,0.0,0.0,0.0,0.0,0.0,0.0,0.0,0.0,0.0,0.0,0.0,0.0,0.0,0.0,0.0,0.0,0.0,0.0,0.0,0.0,0.0,0.0,0.0,0.0,0.0,0.0,0.0,0.0,0.0,0.0,0.0,0.0,0.0,4.4077,4.2509,4.2089,4.306,4.131,3.9601,3.8093,0.0,0.0,0.0,0.0,0.0,0.0,0.0,0.0,0.0,0.0,0.0,0.0,0.0,0.0,0.0,0.0,0.0,0.0,0.0,0.0,0.0,0.0,0.0,0.0,0.0,0.0,0.0,0.0,0.0,0.0,0.0,0.0,0.0,0.0,0.0,0.0,0.0,0.0,0.0,0.0,0.0,0.0,0.0,0.0,0.0,0.0,0.0,0.0,0.0,0.0,0.0,0.0,0.0,0.0,0.0,0.0,0.0,0.0,0.0,0.0,0.0,0.0,0.0,0.0,0.0,0.0,0.0,0.0,0.0,0.0,0.0,0.0,0.0,0.0,0.0,0.0,0.0,0.0,0.0,0.0,0.0,0.0,0.0,0.0,0.0,0.0,0.0,0.0,0.0,0.0,0.0,0.0,0.0,0.0,0.0,0.0,0.0,0.0,0.0,0.0,0.0,0.0,0.0,0.0,0.0,0.0,0.0,0.0,4.7459,4.5402,4.4499,4.4736,4.4078,4.1821,0.0,0.0,0.0,0.0,0.0,0.0,0.0,0.0,0.0,0.0,0.0,0.0,0.0,0.0,0.0,0.0,0.0,0.0,0.0,0.0,0.0,0.0,0.0,0.0,0.0,0.0,0.0,0.0,0.0,0.0,0.0,0.0,0.0,0.0,0.0,0.0,0.0,0.0,0.0,0.0,0.0,0.0,0.0,0.0,0.0,0.0,0.0,0.0,0.0,0.0,0.0,0.0,0.0,0.0,0.0,0.0,0.0,0.0,0.0,0.0,0.0,0.0,0.0,0.0,0.0,0.0,0.0,0.0,0.0,0.0,0.0,0.0,0.0,0.0,0.0,0.0,0.0,0.0,0.0,0.0,0.0,0.0,0.0,0.0,0.0,0.0,0.0,0.0,0.0,0.0,0.0,0.0,0.0,0.0,0.0,0.0,0.0,0.0,0.0,0.0,0.0,0.0,0.0,0.0,0.0,0.0,0.0,0.0,0.0,4.9374,5.0968,5.1028,4.9404,4.6017,4.3438,0.0,0.0,0.0,0.0,0.0,0.0,0.0,0.0,0.0,0.0,0.0,0.0,0.0,0.0,0.0,0.0,0.0,0.0,0.0,0.0,0.0,0.0,0.0,0.0,0.0,0.0,0.0,0.0,0.0,0.0,0.0,0.0,0.0,0.0,0.0,0.0,0.0,0.0,0.0,0.0,0.0,0.0,0.0,0.0,0.0,0.0,0.0,0.0,0.0,0.0,0.0,0.0,0.0,0.0,0.0,0.0,0.0,0.0,0.0,0.0,0.0,0.0,0.0,0.0,0.0,0.0,0.0,0.0,0.0,0.0,0.0,0.0,0.0,0.0,0.0,0.0,0.0,0.0,0.0,0.0,0.0,0.0,0.0,0.0,0.0,0.0,0.0,0.0,0.0,0.0,0.0,0.0,0.0,0.0,0.0,0.0,0.0,0.0,0.0,0.0,0.0,0.0,0.0,0.0,0.0,0.0,0.0,0.0,4.9015,5.0661,5.498,5.6762,5.5591,4.9975,4.5807,0.0,0.0,0.0,0.0,0.0,0.0,0.0,0.0,0.0,0.0,0.0,0.0,0.0,0.0,0.0,0.0,0.0,0.0,0.0,0.0,0.0,0.0,0.0,0.0,0.0,0.0,0.0,0.0,0.0,0.0,0.0,0.0,0.0,0.0,0.0,0.0,0.0,0.0,0.0,0.0,0.0,0.0,0.0,0.0,0.0,0.0,0.0,0.0,0.0,0.0,0.0,0.0,0.0,0.0,0.0,0.0,0.0,0.0,0.0,0.0,0.0,0.0,0.0,0.0,0.0,0.0,0.0,0.0,0.0,0.0,0.0,0.0,0.0,0.0,0.0,0.0,0.0,0.0,0.0,0.0,0.0,0.0,0.0,0.0,0.0,0.0,0.0,0.0,0.0,0.0,0.0,0.0,0.0,0.0,0.0,0.0,0.0,0.0,0.0,0.0,0.0,0.0,0.0,0.0,0.0,0.0,0.0,0.0,5.1828,5.1828,5.7872,6.1216,6.1308,5.4496,4.8621,0.0,0.0,0.0,0.0,0.0,0.0,0.0,0.0,0.0,0.0,0.0,0.0,0.0,0.0,0.0,0.0,0.0,0.0,0.0,0.0,0.0,0.0,0.0,0.0,0.0,0.0,0.0,0.0,0.0,0.0,0.0,0.0,0.0,0.0,0.0,0.0,0.0,0.0,0.0,0.0,0.0,0.0,0.0,0.0,0.0,0.0,0.0,0.0,0.0,0.0,0.0,0.0,0.0,0.0,0.0,0.0,0.0,0.0,0.0,0.0,0.0,0.0,0.0,0.0,0.0,0.0,0.0,0.0,0.0,0.0,0.0,0.0,0.0,0.0,0.0,0.0,0.0,0.0,0.0,0.0,0.0,0.0,0.0,0.0,0.0,0.0,0.0,0.0,0.0,0.0,0.0,0.0,0.0,0.0,0.0,0.0,0.0,0.0,0.0,0.0,0.0,0.0,0.0,0.0,0.0,0.0,0.0,0.0,5.1618,5.5089,5.9039,6.1216,6.1489,5.472,5.0245,0.0,0.0,0.0,0.0,0.0,0.0,0.0,0.0,0.0,0.0,0.0,0.0,0.0,0.0,0.0,0.0,0.0,0.0,0.0,0.0,0.0,0.0,0.0,0.0,0.0,0.0,0.0,0.0,0.0,0.0,0.0,0.0,0.0,0.0,0.0,0.0,0.0,0.0,0.0,0.0,0.0,0.0,0.0,0.0,0.0,0.0,0.0,0.0,3.5547,0.0,0.0,0.0,0.0,0.0,0.0,0.0,0.0,0.0,0.0,0.0,0.0,0.0,0.0,0.0,0.0,0.0,0.0,0.0,0.0,0.0,0.0,0.0,0.0,0.0,0.0,0.0,0.0,0.0,0.0,0.0,0.0,0.0,0.0,0.0,0.0,0.0,0.0,0.0,0.0,0.0,0.0,0.0,0.0,0.0,0.0,0.0,0.0,0.0,0.0,0.0,0.0,0.0,0.0,0.0,0.0,0.0,0.0,0.0,5.1498,5.6077,5.9398,6.1515,6.2212,5.6732,5.2282,0.0,0.0,0.0,0.0,0.0,0.0,0.0,0.0,0.0,0.0,0.0,0.0,0.0,0.0,0.0,0.0,0.0,0.0,0.0,0.0,0.0,0.0,0.0,0.0,0.0,0.0,0.0,0.0,0.0,0.0,0.0,0.0,0.0,0.0,0.0,0.0,0.0,0.0,0.0,0.0,0.0,0.0,0.0,0.0,0.0,0.0,0.0,0.0,0.0,0.0,0.0,0.0,0.0,0.0,0.0,0.0,0.0,0.0,0.0,0.0,0.0,0.0,0.0,0.0,0.0,0.0,0.0,0.0,0.0,0.0,0.0,0.0,0.0,0.0,0.0,0.0,0.0,0.0,0.0,0.0,0.0,0.0,0.0,0.0,0.0,0.0,0.0,0.0,0.0,0.0,0.0,0.0,0.0,0.0,0.0,0.0,0.0,0.0,0.0,0.0,0.0,0.0,0.0,0.0,0.0,0.0,0.0,4.7848,5.1708,5.6615,5.9608,6.1755,6.3116,5.8804,5.4329,5.0034,0.0,0.0,0.0,0.0,0.0,0.0,0.0,0.0,0.0,0.0,0.0,0.0,0.0,0.0,0.0,0.0,0.0,0.0,0.0,0.0,0.0,0.0,0.0,0.0,0.0,0.0,0.0,0.0,0.0,0.0,0.0,0.0,0.0,0.0,0.0,0.0,0.0,0.0,3.5205,3.5293,0.0,0.0,0.0,0.0,0.0,0.0,0.0,0.0,3.5391,0.0,0.0,0.0,0.0,0.0,0.0,0.0,0.0,0.0,0.0,0.0,0.0,0.0,0.0,0.0,0.0,0.0,0.0,0.0,0.0,0.0,0.0,0.0,0.0,0.0,0.0,0.0,0.0,0.0,0.0,0.0,0.0,0.0,0.0,0.0,0.0,0.0,0.0,0.0,0.0,0.0,0.0,0.0,0.0,0.0,0.0,0.0,0.0,0.0,0.0,0.0,0.0,0.0,0.0,0.0,0.0,4.8356,4.8985,5.2576,5.9249,6.0535,6.1306,6.176,5.8607,5.499,5.0729,0.0,0.0,0.0,0.0,0.0,0.0,0.0,0.0,0.0,0.0,0.0,0.0,0.0,0.0,0.0,0.0,0.0,0.0,0.0,0.0,0.0,0.0,0.0,0.0,0.0,0.0,0.0,0.0,0.0,0.0,0.0,0.0,0.0,0.0,0.0,0.0,0.0,0.0,0.0,3.6955,3.641,0.0,0.0,0.0,0.0,0.0,0.0,0.0,0.0,3.6044,0.0,0.0,0.0,0.0,0.0,0.0,0.0,0.0,0.0,0.0,0.0,0.0,0.0,0.0,0.0,0.0,0.0,0.0,0.0,0.0,0.0,0.0,0.0,0.0,0.0,0.0,0.0,0.0,0.0,0.0,0.0,0.0,0.0,0.0,0.0,0.0,0.0,0.0,0.0,0.0,0.0,0.0,0.0,0.0,0.0,0.0,0.0,0.0,0.0,0.0,0.0,0.0,0.0,0.0,0.0,4.8985,5.0272,5.3803,5.9817,6.0416,6.0492,6.025,5.76,5.4201,0.0,0.0,0.0,0.0,0.0,0.0,0.0,0.0,0.0,0.0,0.0,0.0,0.0,0.0,0.0,0.0,0.0,0.0,0.0,0.0,0.0,0.0,0.0,0.0,0.0,0.0,0.0,0.0,0.0,0.0,0.0,0.0,0.0,0.0,0.0,0.0,0.0,0.0,0.0,0.0,3.9184,3.9217,3.9642,0.0,0.0,0.0,0.0,0.0,0.0,3.6698,3.6541,0.0,0.0,0.0,0.0,0.0,0.0,0.0,0.0,0.0,0.0,0.0,0.0,0.0,0.0,0.0,0.0,0.0,0.0,0.0,0.0,0.0,0.0,0.0,0.0,0.0,0.0,0.0,0.0,0.0,0.0,0.0,0.0,0.0,0.0,0.0,0.0,0.0,0.0,0.0,0.0,0.0,0.0,0.0,0.0,0.0,0.0,0.0,0.0,0.0,0.0,0.0,0.0,0.0,0.0,0.0,4.9164,5.1468,5.5029,5.9847,6.0236,6.006,5.9536,5.6183,5.2902,0.0,0.0,0.0,0.0,0.0,0.0,0.0,0.0,0.0,0.0,0.0,0.0,0.0,0.0,0.0,0.0,0.0,0.0,0.0,0.0,0.0,0.0,0.0,0.0,0.0,0.0,0.0,0.0,0.0,0.0,0.0,0.0,0.0,0.0,0.0,0.0,0.0,0.0,0.0,0.0,0.0,4.1619,4.1476,4.0409,0.0,0.0,0.0,0.0,3.722,3.824,0.0,0.0,0.0,0.0,0.0,0.0,0.0,0.0,0.0,0.0,0.0,0.0,0.0,0.0,0.0,0.0,0.0,0.0,0.0,0.0,0.0,0.0,0.0,0.0,0.0,0.0,0.0,0.0,0.0,0.0,0.0,0.0,0.0,0.0,0.0,0.0,0.0,0.0,0.0,0.0,0.0,0.0,0.0,0.0,0.0,0.0,0.0,0.0,0.0,0.0,0.0,0.0,0.0,0.0,0.0,0.0,4.9224,5.2396,5.5957,5.9877,6.0685,6.0902,6.079,5.4899,5.1165,0.0,0.0,0.0,0.0,0.0,0.0,0.0,0.0,0.0,0.0,0.0,0.0,0.0,0.0,0.0,0.0,0.0,0.0,0.0,0.0,0.0,0.0,0.0,0.0,0.0,0.0,0.0,0.0,0.0,0.0,0.0,0.0,0.0,0.0,0.0,0.0,0.0,0.0,0.0,0.0,0.0,4.171,4.2027,4.0671,3.9311,0.0,0.0,4.0775,4.0723,4.3755,0.0,0.0,0.0,0.0,0.0,0.0,0.0,0.0,0.0,0.0,0.0,0.0,0.0,0.0,0.0,0.0,0.0,0.0,0.0,0.0,0.0,0.0,0.0,0.0,0.0,0.0,0.0,0.0,0.0,0.0,0.0,0.0,0.0,0.0,0.0,0.0,0.0,0.0,0.0,0.0,0.0,0.0,0.0,0.0,0.0,0.0,0.0,0.0,0.0,0.0,0.0,0.0,0.0,0.0,0.0,4.6441,4.9314,5.3623,5.7214,5.9997,6.0745,6.0559,5.9438,5.3704,5.0139,0.0,0.0,0.0,0.0,0.0,0.0,0.0,0.0,0.0,0.0,0.0,0.0,0.0,0.0,0.0,0.0,0.0,0.0,0.0,0.0,0.0,0.0,0.0,0.0,0.0,0.0,0.0,0.0,0.0,0.0,0.0,0.0,0.0,0.0,0.0,0.0,0.0,0.0,0.0,0.0,0.0,0.0,4.3362,4.3049,0.0,0.0,0.0,4.2683,4.1063,0.0,0.0,0.0,0.0,0.0,0.0,0.0,0.0,0.0,0.0,0.0,0.0,0.0,0.0,0.0,0.0,0.0,0.0,0.0,0.0,0.0,0.0,0.0,0.0,0.0,0.0,0.0,0.0,0.0,0.0,0.0,0.0,0.0,0.0,0.0,0.0,0.0,0.0,0.0,0.0,0.0,0.0,0.0,0.0,0.0,0.0,0.0,0.0,0.0,0.0,0.0,0.0,0.0,0.0,0.0,0.0,0.0,4.9314,5.476,5.8501,6.0266,6.1014,6.0565,5.8947,5.39,0.0,0.0,0.0,0.0,0.0,0.0,0.0,0.0,0.0,0.0,0.0,0.0,0.0,0.0,0.0,0.0,0.0,0.0,0.0,0.0,0.0,0.0,0.0,0.0,0.0,0.0,0.0,3.9684,0.0,0.0,0.0,0.0,0.0,0.0,0.0,0.0,0.0,0.0,0.0,0.0,0.0,0.0,4.6851,4.4493,4.4983,4.5428,0.0,0.0,4.4408,4.284,4.6342,4.7231,0.0,0.0,0.0,0.0,0.0,0.0,0.0,0.0,0.0,0.0,0.0,0.0,0.0,0.0,0.0,0.0,0.0,0.0,0.0,0.0,0.0,0.0,0.0,0.0,0.0,0.0,0.0,0.0,0.0,0.0,0.0,0.0,0.0,0.0,0.0,0.0,0.0,0.0,0.0,0.0,0.0,0.0,0.0,0.0,0.0,0.0,0.0,0.0,0.0,0.0,0.0,0.0,0.0,0.0,0.0,4.9434,5.5658,5.9638,6.1014,6.1702,6.1732,6.0872,5.6332,5.2486,0.0,0.0,0.0,0.0,0.0,0.0,0.0,0.0,0.0,0.0,0.0,0.0,0.0,0.0,0.0,0.0,0.0,0.0,0.0,0.0,0.0,0.0,0.0,0.0,0.0,0.0,0.0,0.0,0.0,0.0,0.0,0.0,0.0,0.0,0.0,0.0,0.0,0.0,0.0,0.0,0.0,4.601,4.4807,4.5218,4.6525,0.0,0.0,4.6238,4.8172,5.1858,5.1701,4.3337,0.0,0.0,0.0,0.0,0.0,0.0,0.0,0.0,0.0,0.0,0.0,0.0,0.0,0.0,0.0,0.0,0.0,0.0,0.0,0.0,0.0,0.0,0.0,0.0,0.0,0.0,0.0,0.0,0.0,0.0,0.0,0.0,0.0,0.0,0.0,0.0,0.0,0.0,0.0,0.0,0.0,0.0,0.0,0.0,0.0,0.0,0.0,0.0,0.0,0.0,0.0,0.0,0.0,4.7938,4.9314,5.5748,5.9757,6.1074,6.2151,6.257,6.2331,5.7842,5.3862,0.0,0.0,0.0,0.0,0.0,0.0,0.0,0.0,0.0,0.0,0.0,0.0,0.0,0.0,0.0,0.0,0.0,0.0,0.0,0.0,0.0,0.0,0.0,0.0,0.0,0.0,0.0,0.0,4.1398,4.1369,4.0781,0.0,0.0,0.0,0.0,0.0,0.0,0.0,0.0,0.0,0.0,4.6759,4.6908,4.7963,0.0,0.0,4.9557,4.8982,4.812,4.9584,4.8643,4.2134,3.9782,0.0,0.0,0.0,0.0,0.0,0.0,0.0,0.0,0.0,0.0,0.0,0.0,0.0,0.0,0.0,0.0,0.0,0.0,0.0,0.0,0.0,0.0,0.0,0.0,0.0,0.0,0.0,0.0,0.0,0.0,0.0,0.0,0.0,0.0,0.0,0.0,0.0,0.0,0.0,0.0,0.0,0.0,0.0,0.0,0.0,0.0,0.0,0.0,0.0,0.0,0.0,0.0,4.8536,4.9883,5.6269,6.0166,6.1485,6.2919,6.3604,6.3334,5.9874,5.6191,0.0,0.0,0.0,0.0,0.0,0.0,0.0,0.0,0.0,0.0,0.0,0.0,0.0,0.0,0.0,0.0,0.0,0.0,0.0,0.0,0.0,0.0,0.0,0.0,0.0,0.0,0.0,0.0,4.1651,4.1454,4.0809,0.0,0.0,0.0,0.0,0.0,0.0,0.0,0.0,0.0,0.0,4.7534,4.6979,4.825,4.9035,4.8433,4.8277,4.7858,4.6734,4.7179,4.6133,4.1664,0.0,0.0,0.0,0.0,0.0,0.0,0.0,0.0,0.0,0.0,0.0,0.0,0.0,0.0,0.0,0.0,0.0,0.0,0.0,0.0,0.0,0.0,0.0,0.0,0.0,0.0,0.0,0.0,0.0,0.0,4.8055,0.0,0.0,0.0,0.0,0.0,0.0,0.0,0.0,0.0,0.0,0.0,0.0,0.0,0.0,0.0,0.0,0.0,0.0,0.0,0.0,0.0,0.0,4.9853,5.1229,5.7346,6.1157,6.2453,6.4152,6.463,6.3993,6.2597,5.9849,5.562,0.0,0.0,0.0,0.0,0.0,0.0,0.0,0.0,0.0,0.0,0.0,0.0,0.0,0.0,0.0,0.0,0.0,0.0,0.0,0.0,0.0,0.0,0.0,0.0,0.0,0.0,4.0486,4.0587,4.0723,0.0,0.0,0.0,0.0,0.0,0.0,0.0,0.0,0.0,0.0,4.5412,4.8012,4.4516,4.5009,4.5715,4.514,4.2709,4.1768,4.4513,4.5741,4.5506,0.0,0.0,0.0,0.0,0.0,0.0,0.0,0.0,0.0,0.0,0.0,0.0,0.0,0.0,0.0,0.0,0.0,0.0,0.0,0.0,0.0,0.0,0.0,0.0,0.0,0.0,0.0,5.0114,5.0056,0.0,0.0,0.0,0.0,0.0,0.0,0.0,0.0,0.0,0.0,0.0,5.1904,5.1693,0.0,0.0,0.0,0.0,0.0,0.0,0.0,0.0,0.0,0.0,0.0,0.0,5.0122,5.2037,5.7408,6.1177,6.2919,6.379,6.4266,6.4026,6.3213,6.0054,5.4436,0.0,0.0,0.0,0.0,0.0,0.0,0.0,0.0,0.0,0.0,0.0,0.0,0.0,0.0,0.0,0.0,0.0,0.0,0.0,0.0,0.0,0.0,0.0,0.0,0.0,4.1864,0.0,0.0,0.0,0.0,0.0,0.0,0.0,0.0,0.0,0.0,0.0,4.0199,4.1044,4.2438,4.3519,4.3887,4.4879,4.6342,0.0,0.0,0.0,0.0,0.0,0.0,0.0,0.0,0.0,0.0,0.0,0.0,0.0,0.0,4.1298,3.7691,3.7795,3.8423,3.8449,0.0,0.0,0.0,0.0,0.0,0.0,0.0,0.0,0.0,0.0,0.0,0.0,0.0,0.0,0.0,0.0,5.2581,0.0,0.0,0.0,0.0,0.0,0.0,0.0,0.0,5.3602,5.4449,5.494,5.4843,5.4728,0.0,5.3797,5.2002,0.0,0.0,0.0,0.0,0.0,0.0,0.0,0.0,5.0783,5.2366,5.8189,6.2092,6.3695,6.483,6.5279,6.5037,6.3864,6.0935,5.6152,5.1429,4.7941,0.0,0.0,0.0,0.0,0.0,0.0,0.0,0.0,0.0,0.0,0.0,0.0,0.0,0.0,0.0,0.0,0.0,0.0,0.0,0.0,0.0,0.0,0.0,4.251,0.0,0.0,0.0,0.0,0.0,0.0,0.0,0.0,0.0,4.0599,4.0603,4.0965,4.171,4.262,4.2971,4.2448,0.0,0.0,0.0,0.0,0.0,0.0,0.0,4.1324,4.0409,4.054,4.1559,4.4173,4.5976,4.7205,4.7571,0.0,0.0,4.2056,4.1899,4.25,4.2526,4.2656,4.2464,4.1747,4.1264,4.0647,0.0,0.0,0.0,0.0,0.0,0.0,0.0,0.0,5.6546,5.5745,0.0,5.5315,0.0,0.0,0.0,0.0,0.0,0.0,0.0,0.0,5.9131,6.0441,5.9593,5.9222,5.9253,5.9471,5.7403,5.626,5.6077,5.3739,0.0,0.0,0.0,0.0,0.0,0.0,5.1931,5.2732,5.9652,6.3853,6.4995,6.6851,6.7481,6.6744,6.4616,6.2517,6.0363,5.6597,5.4207,5.3346,4.7855,0.0,0.0,0.0,0.0,0.0,0.0,0.0,0.0,0.0,0.0,0.0,0.0,0.0,0.0,0.0,0.0,0.0,0.0,0.0,0.0,4.2653,0.0,0.0,0.0,0.0,0.0,0.0,0.0,0.0,0.0,0.0,4.0594,4.2098,4.3011,4.2079,0.0,0.0,0.0,0.0,4.2944,3.837,3.7456,3.7612,3.7795,4.1272,4.4199,4.4774,0.0,0.0,5.11,4.9636,4.8747,4.8616,5.0524,5.0943,4.8224,4.6395,4.5323,4.5271,4.3441,4.12,4.093,4.1148,3.9825,5.8577,0.0,0.0,0.0,0.0,5.553,5.6761,5.8639,5.8824,5.8608,5.8085,5.8454,0.0,0.0,0.0,0.0,0.0,0.0,5.6874,5.8237,5.9326,6.0499,6.1539,6.1539,6.1508,6.1477,6.1138,6.0788,6.0621,5.9992,5.6183,4.946,0.0,0.0,0.0,0.0,5.3929,5.7081,6.1256,6.4069,6.5313,6.6159,6.6161,6.5498,6.3797,6.2334,6.1521,5.8513,5.6243,5.4779,5.0917,0.0,0.0,0.0,0.0,0.0,0.0,0.0,0.0,0.0,0.0,0.0,0.0,0.0,0.0,0.0,0.0,0.0,0.0,0.0,4.2565,4.3186,4.3016,0.0,0.0,0.0,0.0,0.0,0.0,0.0,0.0,0.0,4.3859,4.2463,4.0728,0.0,0.0,4.0122,3.8031,4.0357,4.2944,4.4722,4.4983,0.0,4.7754,4.744,4.7283,4.825,5.204,5.4811,5.4497,5.5386,5.617,5.6118,5.6353,5.6249,5.5438,5.3583,5.2197,5.2119,5.1739,5.1408,5.1332,5.0149,4.8947,6.4795,6.1717,5.8793,5.8023,5.8762,5.907,6.0332,6.224,6.2487,6.2148,6.1409,6.1686,6.024,5.75,5.6577,0.0,0.0,0.0,5.9922,6.1997,6.2273,6.304,6.4175,6.4206,6.4236,6.4206,6.4347,6.4347,6.4206,6.2856,5.9532,5.4101,0.0,0.0,4.994,5.3034,5.6009,5.9088,6.2616,6.4995,6.6213,6.6637,6.631,6.538,6.4425,6.3406,6.2354,6.0766,5.9057,5.7373,5.4142,5.1054,0.0,0.0,0.0,0.0,0.0,0.0,0.0,0.0,0.0,0.0,0.0,4.2034,0.0,0.0,0.0,0.0,4.1994,4.2249,4.3105,4.3036,0.0,0.0,0.0,0.0,0.0,0.0,0.0,4.2138,4.2697,4.3445,4.4726,4.3721,4.2605,4.2056,4.2369,4.2265,4.1246,0.0,4.5924,4.8224,4.8538,4.9139,5.0864,5.0838,5.1256,5.3347,5.5595,5.7294,5.7634,5.881,5.9751,5.9934,5.9594,5.9281,5.949,5.8209,5.6876,5.6249,5.5461,5.4821,5.4821,5.3414,5.2158,7.0798,6.9628,6.2764,6.0824,6.2333,6.2979,6.4272,6.6027,6.6611,6.5842,6.4149,6.4764,6.2948,5.9285,5.8116,0.0,6.1225,6.1963,6.3626,6.6088,6.6765,6.7073,6.7073,6.7073,6.7073,6.7073,6.7012,6.7012,6.6827,6.3561,6.1431,6.0451,5.8644,5.6219,5.3495,5.5975,5.8023,5.9283,6.336,6.6169,6.7469,6.7703,6.7249,6.5997,6.5902,6.4922,6.3082,6.2991,6.222,6.0516,5.7269,5.4819,5.3282,0.0,0.0,0.0,0.0,0.0,0.0,0.0,0.0,0.0,0.0,0.0,0.0,0.0,0.0,0.0,4.3593,0.0,4.4014,4.2834,0.0,0.0,0.0,4.2507,4.3882,4.3901,4.3687,4.3706,0.0,0.0,4.4306,4.5826,4.7283,4.8512,4.9296,4.9165,4.7545,4.9165,5.0577,4.9766,4.974,4.9845,5.076,5.2798,5.5517,5.834,5.9464,5.9647,6.0117,6.0326,6.0588,6.1058,6.0718,6.0509,6.1084,6.0535,5.9803,5.8209,5.571,5.3829,5.3829,5.2421,5.1013,7.3168,7.2768,6.9997,6.7935,6.6488,6.6642,6.6704,6.6704,6.6858,6.6642,6.618,6.6334,6.5596,6.421,6.4426,6.458,6.4734,6.5934,6.6827,6.7473,6.812,6.8427,6.8427,6.8427,6.8427,6.8397,6.7904,6.7689,6.7627,6.6252,6.3807,6.0604,6.0198,5.7909,5.404,5.5567,5.7678,6.0132,6.2011,6.4554,6.7694,6.7478,6.6899,6.5997,6.5643,6.4911,6.375,6.3234,6.2425,6.1286,5.9255,5.6689,5.3405,5.0276,0.0,0.0,0.0,0.0,0.0,0.0,0.0,0.0,0.0,4.3102,4.1626,0.0,4.1734,0.0,4.4498,4.6238,4.6211,4.6283,0.0,0.0,4.508,4.4925,4.5789,4.6365,4.6621,4.655,4.6463,4.6882,4.8092,4.9139,5.0524,5.2406,5.0342,4.8277,4.7545,5.008,5.2328,5.2981,5.4367,5.5752,5.604,5.7268,5.8497,5.9803,6.0378,6.0901,6.145,6.1555,6.1607,6.1738,6.1659,6.1633,6.1711,6.1293,6.0849,6.0326,5.8276,5.639,5.5962,5.4081,5.2505,7.5353,7.523,7.3876,7.2275,7.0551,6.9628,6.8858,6.8243,6.8243,6.8058,6.775,6.7504,6.6981,6.6396,6.6735,6.6858,6.6888,6.7873,6.852,6.8828,6.9474,6.9782,6.9782,6.9782,6.9782,6.9751,6.9413,6.9259,6.9228,6.8858,6.7266,6.4777,6.5165,6.304,5.8838,5.7098,5.7434,6.0022,6.2347,6.5315,6.8668,6.8303,6.6934,6.4577,6.4075,6.2555,5.994,5.9486,5.8745,5.7777,5.6444,5.466,5.2262,4.9373,4.6786,0.0,0.0,0.0,0.0,0.0,0.0,0.0,0.0,0.0,0.0,0.0,4.2842,4.3319,4.5696,4.7028,4.6365,4.6556,4.6774,4.7037,4.666,4.691,4.7866,4.8599,4.9019,4.8942,4.916,4.9587,5.038,5.1575,5.2746,5.4053,5.3164,5.2276,5.2119,5.3661,5.5125,5.604,5.7216,5.8131,5.847,5.8993,5.9568,6.0117,6.0718,6.1319,6.1868,6.1973,6.1973,6.1973,6.1973,6.1973,6.1947,6.1738,6.1372,6.0623,5.8846,5.7173,5.6473,5.4668,5.3044,7.7293,7.7169,7.5907,7.4984,7.4214,7.2368,7.1075,7.0274,7.009,6.969,6.9105,6.8458,6.7904,6.7412,6.7319,6.7658,6.8335,6.9074,6.972,7.0336,7.1075,7.1413,7.1413,7.1444,7.1413,7.1413,7.1352,7.129,7.129,7.1198,7.0644,6.972,7.0213,6.8464,6.434,5.9716,5.8053,5.954,6.3526,6.6864,6.9336,6.8575,6.626,6.2173,6.1546,5.9213,5.4896,5.4654,5.405,5.297,5.2115,5.1663,5.1516,4.8192,4.6364,0.0,4.3978,0.0,0.0,0.0,0.0,0.0,0.0,0.0,0.0,4.4522,4.4553,4.5686,4.6998,4.7325,4.6264,4.6256,4.6746,4.802,4.8177,4.8691,4.9966,5.0577,5.089,5.089,5.1309,5.1622,5.1701,5.3217,5.4314,5.4602,5.6144,5.7163,5.7608,5.7503,5.7739,5.8444,5.8523,5.847,5.8549,5.8915,5.9411,6.0013,6.0561,6.1215,6.1738,6.1921,6.1973,6.1973,6.1973,6.1973,6.1973,6.1973,6.1633,6.0744,5.8777,5.6922,5.5754,5.4213,5.2764,7.8709,7.8647,7.7816,7.7077,7.6369,7.5446,7.403,7.2337,7.1198,7.0644,7.049,6.9813,6.9751,7.009,6.9566,6.969,7.0398,7.1629,7.2275,7.246,7.366,7.4214,7.4214,7.4214,7.4214,7.4184,7.366,7.3414,7.3414,7.286,7.1015,6.8163,6.8311,6.6866,6.3819,0.0,0.0,0.0,6.4331,6.6406,6.6573,6.3498,6.0882,5.8984,5.8358,0.0,5.4775,5.4654,5.3923,5.2497,5.2702,0.0,0.0,0.0,0.0,0.0,0.0,0.0,0.0,0.0,0.0,0.0,4.9342,4.8463,4.7741,4.6139,4.5733,4.7162,4.8026,4.8873,4.9732,5.0168,5.0616,5.0795,5.0848,5.0909,5.1256,5.1361,5.1439,5.1439,5.1544,5.1805,5.2328,5.3844,5.5072,5.5543,5.719,5.8261,5.834,5.8314,5.8392,5.8497,5.8523,5.8523,5.8523,5.8627,5.8967,5.9437,6.0013,6.0614,6.1215,6.1711,6.1973,6.1973,6.1973,6.1973,6.1973,6.1973,6.1894,6.1659,5.9993,5.8027,5.5583,5.329,5.1716,7.9601,0.0,7.8862,7.8339,0.0,7.7293,7.6615,7.5846,7.3445,7.2244,7.1875,7.0859,7.0952,7.1906,7.1229,7.129,7.1967,7.3014,7.366,7.3999,7.4676,7.5169,7.5476,7.5169,7.5015,7.4984,7.4645,7.4491,7.4461,7.4153,7.3106,7.1322,7.1291,7.0615,6.9294,6.9878,6.8505,6.5049,6.7072,6.8603,6.9761,6.7605,6.4849,6.1609,0.0,0.0,0.0,0.0,0.0,0.0,0.0,0.0,0.0,0.0,0.0,5.2798,5.2051,5.19,5.2798,5.3458,5.4291,5.5508,5.476,5.3085,5.0514,4.9777,4.9801,5.0432,5.0281,5.0379,5.1145,5.1439,5.1596,5.1596,5.1596,5.1701,5.1962,5.1779,5.1727,5.1988,5.204,5.2171,5.2459,5.4262,5.5517,5.5961,5.7399,5.8523,5.8523,5.8523,5.8523,5.8523,5.8523,5.8523,5.8549,5.8784,5.8993,5.9385,6.0091,6.0718,6.1058,6.1607,6.1973,6.1973,6.1973,6.1973,6.1973,6.1973,6.1894,6.1458,6.0371,5.8605,5.6301,5.4262,5.2674,8.0402,8.0217,7.9694,7.9386,7.9232,7.8647,7.8678,7.8893,0.0,0.0,0.0,7.1998,7.2152,7.3291,7.2645,7.2768,7.3537,7.4091,7.4769,7.5538,7.5538,7.5907,7.6523,7.6,7.5723,7.5723,7.5723,7.5723,7.5723,7.5723,7.5723,7.5723,7.5723,7.5723,7.5815,7.6831,7.5348,7.1507,7.0495,7.1106,7.313,7.2159,6.9362,6.4811,6.3459,6.0606,5.6101,5.526,5.4299,5.317,5.2687,5.2532,5.2863,5.2893,5.3008,5.3324,5.4341,5.5658,5.7274,5.7752,5.886,6.0984,5.964,5.7067,5.3107,5.3208,5.3483,5.3483,5.2315,5.1622,5.1753,5.1648,5.1648,5.1727,5.1753,5.1962,5.238,5.2197,5.2145,5.2563,5.2668,5.2694,5.2903,5.4602,5.5909,5.6118,5.7425,5.8523,5.8523,5.8523,5.8523,5.8523,5.8523,5.8523,5.8575,5.8836,5.9176,5.9202,6.0065,6.0771,6.0901,6.1372,6.179,6.1764,6.1894,6.1973,6.1973,6.1973,6.1816,6.1346,6.0019,5.8679,5.7284,5.5722,5.4077,8.1479,8.0925,8.0832,8.0463,7.9971,7.9847,7.954,7.8955,7.7323,7.5877,7.4676,7.3907,7.3968,7.4676,7.403,7.4399,7.5569,7.5692,7.64,0.0,7.76,7.797,7.8647,7.8555,7.8524,7.8524,7.8524,7.8524,7.8524,7.8493,7.8524,7.8493,7.8524,7.8462,7.8524,7.8709,7.8493,7.7754,7.4083,7.1719,7.0583,6.7725,6.5353,6.3447,6.2202,6.0502,5.862,5.7952,5.6819,5.5349,5.5681,5.6504,5.7978,5.7962,5.9009,6.1194,6.1583,6.1822,6.2061,6.1672,6.1313,6.1104,6.079,5.9031,5.5308,5.4075,5.3483,5.351,5.2492,5.1805,5.225,5.1936,5.1858,5.2302,5.2354,5.2406,5.2563,5.2903,5.3138,5.3295,5.3269,5.3504,5.4001,5.5151,5.6013,5.6196,5.7477,5.8523,5.8523,5.8523,5.8523,5.8523,5.8523,5.8523,5.8523,5.8549,5.8679,5.8627,5.9228,5.9751,5.9751,6.0561,6.1189,6.1241,6.1555,6.1842,6.1921,6.1973,6.1894,6.1588,6.0049,5.8582,5.8227,5.631,5.4211,8.2433,8.2125,8.1756,8.1448,8.114,8.0802,8.0248,7.9601,7.8986,7.8154,7.7169,7.6092,7.6215,7.7139,7.6492,7.6523,7.7108,7.7108,7.7631,7.8555,7.8216,7.8616,7.954,7.9263,7.9109,7.9109,7.9109,7.9109,7.9109,7.9109,7.8893,7.8524,7.8154,7.8154,7.8493,7.8524,7.8524,7.8462,7.6915,7.5579,7.4646,7.315,7.1438,6.9395,6.8395,6.6942,6.5076,6.4021,6.2996,6.1868,6.1639,6.1528,6.1702,6.1875,6.2528,6.3498,6.3917,6.4126,6.4126,6.3857,6.3408,6.275,6.269,6.1634,5.9275,5.7537,5.6248,5.5529,5.4364,5.3528,5.3083,5.2746,5.2668,5.2955,5.2981,5.3112,5.3373,5.3635,5.3949,5.4288,5.4602,5.4863,5.5099,5.6144,5.685,5.6954,5.7895,5.8497,5.8523,5.8523,5.8523,5.8523,5.8523,5.8523,5.8523,5.8523,5.8523,5.8523,5.8993,5.9307,5.9385,6.0117,6.0535,6.064,6.0875,6.1136,6.1424,6.1502,6.1308,6.0989,6.0227,5.9192,5.7982,5.6255,5.4671,8.3449,8.3264,8.2587,8.231,8.2248,8.1756,8.1233,8.0802,8.0771,8.0402,7.9601,7.8154,7.8093,7.8986,7.8493,7.8339,7.8462,7.8339,7.8739,7.9417,7.8801,7.9078,7.9971,7.957,7.9324,7.9324,7.9324,7.9386,7.9509,7.9417,7.9047,7.8524,7.8124,7.8216,7.8709,7.8709,7.8709,7.8739,7.9127,7.8961,7.8047,7.8291,7.7182,7.5049,7.4251,7.2942,7.0757,6.9526,6.8565,6.7781,6.6914,6.6041,6.5173,6.5201,6.5169,6.4873,6.5173,6.5413,6.5263,6.5263,6.4934,6.4276,6.4246,6.3827,6.2754,6.1436,5.9564,5.764,5.5839,5.4741,5.4183,5.3844,5.3818,5.3922,5.3949,5.4158,5.4524,5.4707,5.4942,5.5465,5.5857,5.6092,5.6275,5.7007,5.7634,5.7843,5.8157,5.834,5.847,5.8523,5.8523,5.8523,5.8523,5.8523,5.8523,5.8523,5.8523,5.8523,5.8836,5.9045,5.9228,5.962,5.9986,6.0065,6.0326,6.0692,6.1058,6.1267,6.1204,6.0786,6.038,5.9428,5.7405,5.6186,5.5082,8.4557,8.3941,8.3295,8.2987,8.2956,8.2895,8.2803,8.2741,8.2803,8.2433,8.1571,7.9786,7.8986,7.9078,7.9047,7.9324,7.9755,7.9263,7.9632,8.0617,8.0217,7.9971,8.0094,8.0032,8.0032,8.0001,8.0001,8.0278,8.0709,8.0248,7.9971,8.0001,8.0432,8.0586,8.0709,8.0679,8.074,8.0771,8.0556,7.9117,7.6885,7.7562,7.7259,7.5893,7.5772,7.4668,7.2629,7.194,7.1087,7.0169,6.9446,6.89,6.8435,6.7926,6.7574,6.7095,6.6881,6.658,6.5981,6.5922,6.5652,6.5024,6.4964,6.4904,6.4725,6.4516,6.2585,5.8833,5.5915,5.5129,5.5491,5.5229,5.5125,5.5491,5.5569,5.57,5.5752,5.6249,5.6588,5.6641,5.6693,5.6719,5.685,5.7346,5.7869,5.8287,5.8104,5.8078,5.8418,5.8523,5.8523,5.8523,5.8523,5.8523,5.8523,5.8523,5.8523,5.8523,5.8549,5.8653,5.881,5.9098,5.9464,5.9673,6.0222,6.0797,6.1163,6.1476,6.1816,6.1141,6.0406,5.9173,5.7141,5.5999,5.5639,8.5911,8.5234,8.4557,8.3818,8.3141,8.311,8.311,8.311,8.311,8.2926,8.2618,8.1787,8.0832,7.9755,8.0094,8.0001,7.954,7.9632,7.9755,7.9909,7.9632,7.9724,8.0094,8.0124,8.0278,8.0648,8.0679,8.0802,8.0894,8.0127,7.9682,7.9652,7.9422,7.9193,7.9162,7.9193,7.9193,7.9193,7.8885,7.8062,7.7304,7.8413,7.8261,7.6804,7.6653,7.5972,7.4165,7.3052,7.236,7.1899,7.0705,6.9923,6.9572,6.907,6.8505,6.7874,6.7301,6.6879,6.661,6.658,6.649,6.6221,6.6191,6.6041,6.5532,6.4837,6.3167,6.0752,5.8971,5.7856,5.6626,5.6249,5.6223,5.6405,5.6432,5.6432,5.6458,5.6954,5.7294,5.7346,5.7608,5.7817,5.7843,5.8026,5.8261,5.847,5.8287,5.8287,5.8497,5.8523,5.8523,5.8523,5.8523,5.8523,5.8523,5.8523,5.8523,5.8523,5.8523,5.8523,5.8575,5.8653,5.8941,5.9281,5.9803,6.0457,6.1032,6.1092,6.1379,6.0861,5.9473,5.7726,5.5999,5.5759,5.5656,8.7327,8.6589,8.5758,8.4834,8.3941,8.3911,8.3911,8.3911,8.3911,8.3726,8.3357,8.3357,8.2372,8.0863,8.114,8.0709,7.9786,8.0155,8.0124,7.9663,7.9632,7.9817,8.0094,8.0124,8.034,8.074,8.0771,8.0802,8.0771,8.0142,7.9789,7.9589,7.9068,7.8868,7.8989,7.8898,7.8777,7.8638,7.8207,7.7856,7.7965,7.9042,7.871,7.6985,7.7072,7.6403,7.4659,7.3702,7.3193,7.3133,7.1869,7.1028,7.0769,7.0217,6.9376,6.8315,6.7931,6.7571,6.7268,6.7268,6.7178,6.7029,6.6999,6.6789,6.6279,6.5365,6.4057,6.2145,6.1678,6.0248,5.7794,5.7268,5.7268,5.7268,5.7268,5.7268,5.732,5.766,5.7895,5.7948,5.8183,5.8523,5.8523,5.8497,5.8497,5.8497,5.8523,5.8523,5.8523,5.8523,5.8523,5.8523,5.8523,5.8523,5.8523,5.8523,5.8523,5.8523,5.8523,5.8523,5.8523,5.8523,5.8549,5.8941,5.9176,5.9568,6.0274,6.0493,6.0846,5.9947,5.864,5.7019,5.5952,5.5878,5.5426,8.8713,8.7912,8.6619,8.6004,8.5973,8.5911,8.5911,8.5758,8.585,8.5203,8.4126,8.4065,8.3295,8.2033,8.2095,8.1664,8.1017,8.0986,8.0986,8.0925,8.0894,8.0648,8.0124,8.0124,8.0186,8.0432,8.0432,8.0371,8.0309,8.0356,8.0462,8.0523,8.0588,8.091,8.1244,8.0759,8.078,8.0395,7.9566,7.9082,7.888,7.8859,7.8003,7.6415,7.6514,7.5976,7.43,7.3911,7.3851,7.3851,7.3073,7.2684,7.2624,7.1487,7.0201,6.9153,6.9106,6.8775,6.8141,6.7897,6.7657,6.7119,6.7029,6.6969,6.6879,6.6727,6.5396,6.2981,6.2577,6.1378,5.885,5.8235,5.8287,5.8314,5.8366,5.8366,5.8392,5.8314,5.847,5.8444,5.847,5.8523,5.8523,5.8523,5.8523,5.8523,5.8523,5.8523,5.8523,5.8523,5.8523,5.8523,5.8523,5.8523,5.8523,5.8523,5.8523,5.8523,5.8523,5.8523,5.8523,5.8523,5.8549,5.8732,5.9202,5.9516,5.9673,5.9955,6.0444,5.9871,5.8656,5.7252,5.5764,5.5438,5.5201,8.8805,8.8128,8.7173,8.6804,8.6743,8.6312,8.6096,8.6065,8.5634,8.5203,8.4803,8.4742,8.4218,8.3387,8.3357,8.2772,8.1787,8.1725,8.1725,8.1664,8.1263,8.1171,8.1387,8.1356,8.1356,8.1356,8.1078,8.0938,8.0969,8.0649,8.0841,8.1205,8.1045,8.1025,8.1085,8.0574,8.0243,8.0182,7.9437,7.8956,7.8889,7.8813,7.822,7.7203,7.6904,7.6485,7.5796,7.4569,7.4091,7.448,7.3522,7.2924,7.2804,7.1637,7.0709,7.0201,6.958,6.901,6.8615,6.8226,6.7867,6.7657,6.7208,6.7029,6.6999,6.6876,6.5823,6.3562,6.2773,6.1436,5.9315,5.8523,5.8523,5.8523,5.8523,5.8523,5.8523,5.8523,5.8523,5.8523,5.8523,5.8523,5.8523,5.8523,5.8523,5.8523,5.8523,5.8523,5.8523,5.8523,5.8523,5.8523,5.8523,5.8523,5.8523,5.8523,5.8523,5.8523,5.8523,5.8523,5.8523,5.8523,5.8549,5.8889,5.9333,5.9803,6.0039,5.9953,6.0149,5.9153,5.8055,5.6949,5.5368,5.5158,5.4829,8.8805,8.8159,8.7697,8.7512,8.7451,8.6989,8.6773,8.6743,8.6312,8.5973,8.5819,8.5788,8.5388,8.4834,8.4773,8.4157,8.3049,8.2649,8.2402,8.2372,8.1941,8.1971,8.2341,8.2402,8.2402,8.2402,8.1979,8.1837,8.1522,8.1009,8.1196,8.1916,8.1419,8.1242,8.1302,8.0794,8.0464,8.0315,7.9567,7.9118,7.9118,7.8878,7.8609,7.81,7.7502,7.7023,7.6814,7.5527,7.4899,7.5048,7.436,7.3702,7.3193,7.2385,7.1667,7.1218,7.0649,6.9961,6.9393,6.9034,6.8764,6.8315,6.7926,6.7597,6.7358,6.7298,6.5903,6.3647,6.2773,6.1571,5.9315,5.8523,5.8523,5.8523,5.8523,5.8523,5.8523,5.8523,5.8523,5.8523,5.8523,5.8523,5.8523,5.8523,5.8523,5.8523,5.8523,5.8523,5.8523,5.8523,5.8523,5.8523,5.8523,5.8523,5.8523,5.8523,5.8523,5.8523,5.8523,5.8523,5.8523,5.8523,5.8653,5.9045,5.9516,6.0039,6.0172,6.0019,5.931,5.8319,5.729,5.6358,5.537,5.4925,5.4783,8.8836,8.8282,8.8189,8.8189,8.8189,8.8066,8.8128,8.8035,8.7974,8.7451,8.6927,8.705,8.6589,8.6158,8.6004,8.5665,8.4926,8.3849,8.3264,8.3172,8.308,8.3049,8.3172,8.3203,8.2999,8.2938,8.2653,8.2223,8.1934,8.1558,8.1714,8.2078,8.208,8.205,8.2709,8.1931,8.1661,8.1362,8.0405,7.9806,7.9746,7.9208,7.8819,7.8669,7.813,7.7562,7.6963,7.6754,7.6395,7.6006,7.5856,7.5258,7.418,7.3732,7.3223,7.2235,7.2415,7.1787,7.035,7.041,6.9961,6.9213,6.8944,6.8555,6.8076,6.7897,6.6471,6.3658,6.2669,6.1571,5.9175,5.8523,5.8523,5.8523,5.8523,5.8523,5.8523,5.8523,5.8523,5.8523,5.8523,5.8523,5.8523,5.8523,5.8523,5.8523,5.8523,5.8523,5.8523,5.8523,5.8523,5.8523,5.8523,5.8523,5.8523,5.8523,5.8523,5.8523,5.8523,5.8523,5.8523,5.8523,5.8523,5.8836,5.9281,5.983,6.0319,6.0144,5.9106,5.8089,5.7083,5.597,5.53,5.4806,5.4898,8.9082,8.8897,8.8897,8.8897,8.8836,8.8405,8.8189,8.8128,8.7728,8.7389,8.7204,8.7173,8.705,8.6927,8.6866,8.6743,8.6466,8.5573,8.4926,8.4465,8.4003,8.389,8.4084,8.4031,8.3496,8.2632,8.2032,8.1946,8.2162,8.1928,8.208,8.277,8.259,8.2559,8.2709,8.214,8.1781,8.1691,8.0943,8.0315,7.9866,7.9627,7.9297,7.8819,7.8579,7.837,7.816,7.7322,7.6993,7.7143,7.6784,7.6155,7.5318,7.439,7.3732,7.3253,7.2535,7.2056,7.1368,7.0649,7.0171,6.9692,6.9303,6.8944,6.8645,6.8256,6.6735,6.3867,6.3026,6.1571,5.9175,5.8523,5.8523,5.8523,5.8523,5.8523,5.8523,5.8523,5.8523,5.8523,5.8523,5.8523,5.8523,5.8523,5.8523,5.8523,5.8523,5.8523,5.8523,5.8523,5.8523,5.8523,5.8523,5.8523,5.8523,5.8523,5.8523,5.8523,5.8523,5.8523,5.8523,5.8653,5.8627,5.8862,5.9281,5.9684,6.0146,5.9942,5.8977,5.7922,5.6917,5.5858,5.5066,5.4898,5.5128,8.9421,8.9205,8.9205,8.9205,8.9174,8.8743,8.8559,8.8528,8.8128,8.7943,8.7943,8.7943,8.7789,8.7604,8.7574,8.742,8.7143,8.6681,8.6134,8.5611,8.4865,8.4689,8.4803,8.4747,8.4089,8.3249,8.2678,8.2559,8.277,8.265,8.274,8.3041,8.292,8.2739,8.2739,8.238,8.214,8.205,8.1512,8.0973,8.0584,8.0315,7.9836,7.9297,7.9178,7.9028,7.8759,7.7951,7.7622,7.7622,7.6963,7.6305,7.5856,7.4869,7.4151,7.3762,7.3133,7.2475,7.1906,7.1188,7.056,7.032,6.9931,6.9602,6.9363,6.8884,6.7442,6.4652,6.3476,6.1902,5.9493,5.8601,5.8523,5.8523,5.8523,5.8523,5.8523,5.8523,5.8523,5.8523,5.8523,5.8523,5.8523,5.8523,5.8523,5.8523,5.8523,5.8523,5.8523,5.8523,5.8523,5.8523,5.8523,5.8523,5.8523,5.8523,5.8523,5.8523,5.8523,5.8523,5.8523,5.8836,5.8993,5.9516,5.996,6.0326,6.0736,5.9947,5.9123,5.8008,5.7066,5.635,5.5832,5.5518,5.5702,8.9882,8.9297,8.9267,8.9267,8.9205,8.9144,8.9113,8.9174,8.9205,8.9205,8.9205,8.9174,8.8897,8.8405,8.8312,8.7974,8.7389,8.7266,8.7055,8.6507,8.5679,8.5342,8.5239,8.4879,8.4518,8.4276,8.4004,8.3912,8.3666,8.3666,8.3487,8.3068,8.3068,8.2918,8.3038,8.2858,8.2798,8.2739,8.217,8.1811,8.1661,8.1153,8.0554,7.9926,7.9776,7.9477,7.9028,7.8699,7.84,7.7831,7.6784,7.6125,7.5886,7.5288,7.454,7.4061,7.3941,7.3193,7.2325,7.1966,7.1607,7.1038,7.0889,7.0679,7.0111,6.9812,6.8295,6.5092,6.4094,6.259,6.0058,5.9019,5.8732,5.8575,5.8575,5.8523,5.8523,5.8523,5.8523,5.8523,5.8523,5.8523,5.8523,5.8523,5.8523,5.8523,5.8523,5.8523,5.8523,5.8523,5.8523,5.8523,5.8523,5.8523,5.8523,5.8523,5.8523,5.8575,5.8627,5.8706,5.8679,5.8993,5.9385,5.996,6.0535,6.0901,6.0795,6.01,5.9478,5.8753,5.7886,5.7196,5.6624,5.6214,5.6115,9.0559,8.9975,8.9944,8.9667,8.9236,8.9205,8.9205,8.9267,8.9728,8.9851,8.9913,8.9944,8.9759,8.9636,8.9113,8.8836,8.8528,8.8159,8.7943,8.7639,8.6603,8.5818,8.5213,8.4425,8.4302,8.4479,8.4209,8.3965,8.4414,8.4444,8.4325,8.4235,8.4085,8.4145,8.4145,8.3666,8.3487,8.3397,8.2828,8.226,8.1871,8.1691,8.1212,8.0584,8.0105,7.9776,7.9507,7.9058,7.8729,7.8489,7.7293,7.6604,7.6485,7.5557,7.4839,7.4629,7.4121,7.3791,7.3343,7.2864,7.2325,7.1727,7.1637,7.1338,7.0709,7.0231,6.8546,6.6008,6.4712,6.2949,6.0207,5.9594,5.9542,5.9176,5.8862,5.8601,5.8549,5.8523,5.8523,5.8523,5.8523,5.8523,5.8523,5.8523,5.8523,5.8523,5.8549,5.8575,5.8627,5.8732,5.881,5.8601,5.8549,5.8523,5.8523,5.8523,5.8549,5.8601,5.8758,5.9019,5.9019,5.9124,5.9594,6.0091,6.0771,6.1241,6.0898,6.0529,5.9814,5.9573,5.8685,5.7975,5.6903,5.6391,5.6459,9.1083,9.0221,9.0221,8.9821,8.9236,8.9205,8.9205,8.9267,8.9605,8.979,8.979,8.979,8.979,8.9728,8.9359,8.9205,8.9174,8.9082,8.8899,8.841,8.7702,8.6726,8.5448,8.4659,8.4773,8.5043,8.4743,8.4803,8.5073,8.5132,8.4983,8.4714,8.4714,8.4714,8.4594,8.4085,8.3906,8.3965,8.3517,8.3068,8.3008,8.2739,8.223,8.1631,8.0973,8.0464,7.9866,7.9148,7.8789,7.8579,7.7831,7.7233,7.7113,7.6006,7.5347,7.5258,7.445,7.3881,7.3791,7.3283,7.2774,7.2415,7.2295,7.1718,7.0874,7.0179,6.8701,6.5866,6.4666,6.2823,6.0895,6.0195,6.0065,5.9751,5.9411,5.9124,5.8915,5.8889,5.8862,5.881,5.8679,5.8523,5.8523,5.8523,5.8523,5.8575,5.881,5.8862,5.8941,5.9045,5.9098,5.8967,5.8836,5.8862,5.8732,5.8679,5.8967,5.9019,5.9307,5.9516,5.9725,5.9751,6.0248,6.0797,6.1215,6.1405,6.1516,6.1373,6.1325,6.0814,5.956,5.8639,5.778,5.6758,5.6804,9.1637,9.0436,9.0344,8.9882,8.9267,8.9205,8.9205,8.9236,8.939,8.9482,8.9574,8.9482,8.979,8.9513,8.979,8.9482,8.9544,9.0036,8.9727,8.9225,8.8526,8.7666,8.623,8.5978,8.603,8.615,8.6,8.594,8.603,8.597,8.5581,8.5252,8.5073,8.4983,8.5013,8.4414,8.4325,8.4624,8.4175,8.4055,8.4205,8.3936,8.3367,8.2739,8.1901,8.0943,8.0016,7.9297,7.8908,7.8789,7.816,7.7801,7.7592,7.6604,7.6006,7.5707,7.4869,7.424,7.3971,7.3582,7.3133,7.3043,7.3013,7.2357,7.1219,7.0342,6.8785,6.6236,6.4319,6.3189,6.1606,6.0744,6.0326,6.0248,6.0274,6.0039,5.9699,5.949,5.9437,5.9333,5.8889,5.8653,5.8523,5.8523,5.8523,5.8575,5.8836,5.9098,5.9307,5.9516,5.9568,5.949,5.9385,5.9255,5.9072,5.8836,5.9281,5.9594,6.0013,6.0326,6.0744,6.0953,6.1346,6.1738,6.1947,6.2313,6.2705,6.2637,6.2535,6.1584,6.0302,5.9616,5.9043,5.7685,5.7217,9.3022,9.176,9.1237,9.0313,8.9297,8.9205,8.9236,8.9297,8.979,9.0252,9.0652,9.0744,9.1021,9.1452,9.0898,9.0775,9.0683,9.0743,9.0523,8.9706,8.9319,8.8777,8.7836,8.7526,8.7556,8.7706,8.7467,8.7257,8.7227,8.7048,8.6898,8.627,8.606,8.624,8.606,8.5462,8.5312,8.5372,8.4833,8.4594,8.4773,8.4654,8.4175,8.3457,8.238,8.1153,8.0105,7.9686,7.9357,7.8789,7.825,7.7981,7.7741,7.7113,7.6485,7.6066,7.5736,7.5228,7.4779,7.454,7.421,7.3821,7.3762,7.3328,7.2492,7.1092,6.9531,6.7652,6.6267,6.4331,6.2561,6.1032,6.0718,6.0875,6.0953,6.0901,6.0692,6.0326,5.9908,5.9516,5.9307,5.9045,5.8627,5.8653,5.8653,5.8627,5.8941,5.9307,5.9673,6.0039,6.0091,6.0117,6.0013,5.9908,5.9725,5.9647,6.0091,6.0535,6.0927,6.1293,6.1711,6.1764,6.1973,6.2287,6.26,6.294,6.3201,6.3387,6.3311,6.2096,6.0858,6.0023,5.9138,5.8065,5.7493,9.3853,9.3114,9.2437,9.1544,9.0652,9.0282,9.0159,9.0221,9.0498,9.0867,9.1175,9.1206,9.1421,9.1729,9.1235,9.0894,9.086,9.0789,9.0776,9.0477,9.0111,8.9785,8.9561,8.9232,8.9052,8.8783,8.8334,8.8035,8.7796,8.7676,8.7287,8.6718,8.6689,8.6599,8.6569,8.609,8.5881,8.597,8.5521,8.5282,8.5581,8.5312,8.4654,8.3696,8.2499,8.1362,8.0853,8.0434,7.9956,7.9387,7.8938,7.8579,7.819,7.7652,7.7143,7.6874,7.6455,7.6245,7.5886,7.5766,7.5527,7.4869,7.4839,7.401,7.3034,7.1656,6.9878,6.8065,6.6548,6.5178,6.3014,6.2522,6.1921,6.1529,6.1764,6.179,6.1502,6.1006,6.0561,6.0195,5.996,5.9699,5.9411,5.9176,5.9281,5.9464,5.9986,6.0352,6.0509,6.0823,6.0823,6.0797,6.0692,6.0561,6.0405,6.0561,6.1084,6.1581,6.2077,6.2417,6.2809,6.2652,6.2443,6.2679,6.2888,6.3123,6.341,6.3596,6.3596,6.2763,6.1605,6.0241,5.904,5.8274,5.778,9.4192,9.4038,9.333,9.2653,9.2037,9.1421,9.1144,9.1019,9.1081,9.1112,9.1235,9.1235,9.1262,9.1262,9.1039,9.0789,9.0783,9.0668,9.0889,9.1058,9.0759,9.0429,9.0429,9.0309,8.995,8.9052,8.9052,8.8723,8.8274,8.7975,8.7885,8.7167,8.7018,8.7077,8.6778,8.6389,8.627,8.6479,8.612,8.603,8.6389,8.603,8.5222,8.3965,8.2739,8.1931,8.1512,8.1033,8.0494,8.0016,7.9776,7.9417,7.8968,7.834,7.7861,7.7801,7.7233,7.6874,7.6634,7.6664,7.6485,7.6066,7.5886,7.5031,7.351,7.1908,7.0103,6.8272,6.6562,6.5048,6.3328,6.3149,6.2992,6.26,6.2705,6.2679,6.2313,6.1764,6.1555,6.098,6.0588,6.0274,6.0117,5.9934,6.0117,6.0352,6.0901,6.1293,6.145,6.1607,6.1633,6.1659,6.1607,6.1816,6.1711,6.1659,6.2182,6.226,6.2862,6.3018,6.3306,6.2992,6.2652,6.2888,6.3097,6.3463,6.3726,6.3882,6.3715,6.3159,6.1903,5.9859,5.9059,5.8483,5.8115,9.3915,9.3299,9.2683,9.2006,9.1452,9.1267,9.1142,9.0768,9.0891,9.0789,9.0898,9.0928,9.1392,9.1567,9.1749,9.1588,9.1335,9.1161,9.1148,9.1134,9.0804,9.0638,9.0638,9.0638,9.0459,9.0399,9.019,8.9801,8.9352,8.9292,8.8723,8.8394,8.8215,8.8035,8.7556,8.7377,8.6928,8.6689,8.6479,8.6539,8.6569,8.6299,8.5701,8.4414,8.3158,8.235,8.1781,8.1212,8.0764,8.0554,7.9537,7.9357,7.9357,7.8968,7.843,7.7981,7.7771,7.7472,7.7143,7.6933,7.6814,7.6574,7.6245,7.5946,7.4691,7.2402,7.0351,6.8855,6.6622,6.461,6.4247,6.4012,6.3672,6.3437,6.341,6.3463,6.3306,6.3045,6.2522,6.1685,6.1215,6.0927,6.0875,6.0797,6.0849,6.1136,6.1633,6.1947,6.2077,6.2339,6.2522,6.2574,6.26,6.2914,6.3201,6.3149,6.3254,6.2888,6.3071,6.2888,6.3045,6.2888,6.2862,6.3332,6.3776,6.4221,6.4325,6.4136,6.327,6.2545,6.1008,5.9473,5.8655,5.7961,5.7938,9.4253,9.4192,9.3545,9.3084,9.2745,9.2376,9.2095,9.162,9.1651,9.1484,9.1375,9.1466,9.1618,9.1729,9.1626,9.1463,9.1299,9.1134,9.0969,9.0804,9.0638,9.0638,9.0638,9.0638,9.0638,9.0638,9.0608,9.0309,8.9711,8.9621,8.9352,8.8813,8.8693,8.8364,8.7856,8.7646,8.7317,8.6838,8.6689,8.6689,8.6569,8.615,8.5252,8.4594,8.3547,8.2679,8.235,8.205,8.1661,8.1272,8.0704,8.0225,7.9836,7.9477,7.8998,7.846,7.828,7.819,7.7891,7.7831,7.7741,7.7322,7.6754,7.6245,7.5378,7.3207,7.0606,6.8737,6.7007,6.4848,6.4508,6.4508,6.4299,6.3855,6.3933,6.3959,6.3803,6.3724,6.3175,6.2469,6.2234,6.2051,6.1868,6.1764,6.1633,6.1894,6.2365,6.26,6.2783,6.2992,6.328,6.3254,6.328,6.3489,6.3855,6.4012,6.3855,6.3541,6.3332,6.3175,6.3149,6.3175,6.3593,6.4116,6.456,6.4796,6.4323,6.411,6.3022,6.1918,6.0508,5.9116,5.8052,5.7376,5.7376,9.4376,9.4807,9.4284,9.4069,9.3785,9.3293,9.2697,9.2407,9.2215,9.2023,9.1626,9.1596,9.1596,9.1626,9.1299,9.0969,9.0638,9.0638,9.0638,9.0638,9.0638,9.0638,9.0638,9.0638,9.0638,9.0638,9.0638,9.0369,9.004,8.995,8.9591,8.9382,8.9142,8.8634,8.8125,8.8035,8.7437,8.6898,8.6689,8.6689,8.6389,8.5581,8.4833,8.4654,8.3576,8.2948,8.2709,8.2409,8.226,8.1931,8.1542,8.1033,8.0195,7.9896,7.9507,7.8938,7.8789,7.8789,7.8759,7.8699,7.84,7.8011,7.7233,7.6634,7.5476,7.3382,7.0724,6.8241,6.6419,6.5318,6.5109,6.5188,6.4979,6.4665,6.456,6.456,6.4325,6.4221,6.4273,6.3776,6.3437,6.3097,6.2835,6.2731,6.26,6.2757,6.3201,6.3489,6.3646,6.3698,6.3855,6.3855,6.3881,6.3985,6.4247,6.4587,6.4299,6.3829,6.3698,6.3567,6.3593,6.3672,6.4116,6.443,6.4796,6.4953,6.4427,6.4054,6.3311,6.2041,6.031,5.9041,5.8396,5.738,5.6751,9.3361,9.3453,9.3361,9.3171,9.2881,9.2759,9.2246,9.1463,9.1463,9.1134,9.0804,9.0804,9.0804,9.0804,9.0804,9.0638,9.0638,9.0638,9.0638,9.0638,9.0638,9.0638,9.0638,9.0638,9.0638,9.0638,9.0638,9.0638,9.0429,9.0429,9.0459,9.0279,9.01,8.9801,8.8663,8.8574,8.7885,8.6928,8.6689,8.6659,8.6509,8.5881,8.5282,8.4594,8.3965,8.3277,8.2798,8.2409,8.217,8.2469,8.1512,8.0913,8.0584,8.0105,7.9507,7.9028,7.8789,7.8789,7.8789,7.8789,7.8789,7.837,7.7592,7.6963,7.5318,7.2692,6.9839,6.8089,6.6316,6.5765,6.5711,6.5606,6.5632,6.5501,6.5318,6.524,6.5031,6.4717,6.477,6.4743,6.4299,6.3959,6.3672,6.362,6.3567,6.3776,6.4012,6.4299,6.4534,6.4587,6.4613,6.4665,6.4482,6.4534,6.4717,6.5057,6.4979,6.4378,6.4168,6.4064,6.4012,6.4064,6.4116,6.4456,6.4822,6.5292,6.5209,6.4698,6.3803,6.2313,6.0442,5.9611,5.8847,5.7649,5.6143,9.3176,9.3176,9.3176,9.3048,9.2568,9.2568,9.2114,9.1493,9.1329,9.0969,9.0638,9.0638,9.0638,9.0638,9.0638,9.0638,9.0638,9.0638,9.0638,9.0638,9.0638,9.0638,9.0638,9.0638,9.0638,9.0638,9.0638,9.0638,9.0638,9.0638,9.0638,9.0638,9.0608,9.016,8.9262,8.9232,8.8454,8.7556,8.6898,8.6479,8.615,8.5791,8.5222,8.4235,8.3906,8.3427,8.2858,8.2559,8.2439,8.2589,8.1781,8.1183,8.0734,8.0165,7.9537,7.8878,7.8789,7.8789,7.8789,7.8789,7.8789,7.8609,7.7778,7.6521,7.4285,7.1841,6.9164,6.7107,6.6345,6.605,6.6233,6.605,6.6076,6.605,6.592,6.5658,6.5501,6.5397,6.524,6.524,6.5162,6.4796,6.4482,6.4378,6.4325,6.4404,6.4717,6.5109,6.5397,6.5606,6.5606,6.5606,6.5318,6.5057,6.5292,6.5554,6.5789,6.5371,6.4979,6.4822,6.4482,6.443,6.456,6.443,6.4533,6.5053,6.5838,6.5213,6.3906,6.2372,6.0837,5.9616,5.8188,5.6447,5.5238,9.2857,9.2888,9.3048,9.2888,9.2407,9.2246,9.1789,9.1134,9.1134,9.0969,9.0638,9.0638,9.0638,9.0638,9.0638,9.0638,9.0638,9.0638,9.0638,9.0638,9.0638,9.0638,9.0638,9.0638,9.0638,9.0638,9.0638,9.0638,9.0638,9.0638,9.0638,9.0638,9.0638,9.0249,8.983,8.9531,8.8993,8.8035,8.7317,8.6808,8.6419,8.609,8.5222,8.4444,8.3906,8.3606,8.2888,8.2739,8.2739,8.2619,8.235,8.1751,8.1153,8.0524,7.9866,7.9267,7.8998,7.8789,7.8789,7.8789,7.8789,7.8579,7.8017,7.6411,7.3518,7.1361,6.9798,6.7694,6.679,6.6708,6.6652,6.6625,6.6652,6.6547,6.6338,6.6024,6.5763,6.5763,6.5737,6.5658,6.5606,6.5528,6.5266,6.5136,6.5083,6.5083,6.5397,6.5867,6.6181,6.6442,6.6416,6.6338,6.6181,6.5894,6.6024,6.6207,6.639,6.6312,6.592,6.5632,6.5345,6.5188,6.524,6.5056,6.479,6.5491,6.6588,6.5288,6.4053,6.2666,6.1239,5.8933,5.7208,5.5577,5.4524,9.1922,9.2114,9.2407,9.2407,9.1952,9.1493,9.1134,9.0638,9.0638,9.0638,9.0638,9.0638,9.0638,9.0638,9.0638,9.0638,9.0638,9.0638,9.0638,9.0638,9.0638,9.0638,9.0638,9.0638,9.0638,9.0638,9.0519,9.0519,9.0608,9.0459,9.0549,9.0638,9.0608,9.0219,8.989,8.9711,8.9382,8.8574,8.7885,8.7467,8.7137,8.6718,8.5821,8.4833,8.4504,8.4085,8.2858,8.2769,8.2769,8.2769,8.2499,8.223,8.1542,8.0794,8.0105,7.9656,7.9058,7.8849,7.8789,7.8789,7.8789,7.8609,7.8047,7.6877,7.4365,7.2651,7.0991,6.9151,6.7825,6.7279,6.741,6.7462,6.7279,6.72,6.6965,6.6678,6.6442,6.6286,6.6233,6.6129,6.605,6.6024,6.605,6.5946,6.5894,6.5894,6.6181,6.6652,6.6834,6.707,6.7044,6.6991,6.6939,6.6861,6.6887,6.6965,6.6991,6.6861,6.6573,6.6416,6.6259,6.6155,6.5946,6.6229,6.6276,6.6711,6.663,6.4974,6.3619,6.3029,6.1593,5.8635,5.6803,5.5409,5.4714,9.1922,9.1922,9.1789,9.1626,9.1463,9.1329,9.0969,9.0638,9.0638,9.0638,9.0638,9.0638,9.0638,9.0638,9.0638,9.0638,9.0638,9.0638,9.0638,9.0638,9.0638,9.0638,9.0638,9.0638,9.0638,9.0549,9.0309,9.004,9.001,9.004,9.004,9.01,9.0399,9.0519,9.0249,8.989,8.9561,8.9112,8.8274,8.7586,8.7048,8.6808,8.5851,8.4265,8.4594,8.3995,8.2978,8.2798,8.2769,8.2679,8.2409,8.214,8.1751,8.0913,8.0315,7.9896,7.9267,7.8908,7.8819,7.8819,7.8789,7.8669,7.8077,7.7084,7.5507,7.3406,7.1715,7.0085,6.8569,6.7828,6.7828,6.7775,6.7723,6.7775,6.7619,6.7331,6.7122,6.6965,6.6834,6.673,6.6704,6.6652,6.6704,6.6756,6.673,6.6756,6.7096,6.7383,6.754,6.7671,6.7645,6.7566,6.7514,6.7357,6.7357,6.7436,6.7514,6.741,6.7253,6.7227,6.7148,6.6834,6.6808,6.7168,6.7204,6.7105,6.6398,6.4407,6.307,6.2241,6.0401,5.8057,5.6328,5.5073,5.4714,9.1463,9.1463,9.1134,9.1134,9.1329,9.1134,9.0969,9.0638,9.0638,9.0638,9.0638,9.0638,9.0638,9.0638,9.0638,9.0638,9.0638,9.0638,9.0638,9.0638,9.0638,9.0638,9.0638,9.0638,9.0638,9.0489,9.004,8.9711,8.9711,8.9501,8.9382,8.9561,9.001,9.0309,9.0519,9.0219,8.995,8.9651,8.8933,8.8125,8.7676,8.7377,8.6599,8.5103,8.5252,8.4534,8.3606,8.3128,8.2948,8.2739,8.2439,8.217,8.1721,8.1153,8.0524,8.0135,7.9656,7.9148,7.9058,7.8878,7.8819,7.8699,7.846,7.7502,7.606,7.3947,7.2328,7.0792,6.9316,6.8246,6.822,6.8246,6.8246,6.8298,6.8168,6.7906,6.7775,6.7619,6.7488,6.7357,6.7253,6.7044,6.7436,6.7514,6.7488,6.7566,6.7828,6.8063,6.8168,6.8246,6.8246,6.8141,6.8037,6.7854,6.7671,6.7906,6.8141,6.8168,6.8063,6.8115,6.8011,6.7671,6.7592,6.7872,6.7826,6.7454,6.6272,6.4704,6.2985,6.1305,5.9019,5.6703,5.5786,5.4714,5.4714,9.0638,9.0638,9.0638,9.0834,9.1134,9.0804,9.0638,9.0638,9.0638,9.0638,9.0638,9.0638,9.0638,9.0638,9.0638,9.0638,9.0638,9.0638,9.0638,9.0638,9.0638,9.0638,9.0638,9.0638,9.0638,9.0459,9.001,8.9651,8.9651,8.9292,8.8993,8.9142,8.9711,9.019,9.0608,9.0638,9.0608,9.0489,8.983,8.9412,8.9112,8.8544,8.7377,8.6539,8.606,8.5222,8.4115,8.3576,8.3337,8.2978,8.2739,8.2589,8.2439,8.1871,8.1482,8.1422,8.0375,7.9836,7.9746,7.9148,7.8908,7.8819,7.8579,7.806,7.6438,7.4754,7.3097,7.1706,6.9768,6.8883,6.8769,6.8769,6.8716,6.8664,6.8533,6.8429,6.8272,6.8194,6.8037,6.7958,6.7566,6.7331,6.7906,6.8272,6.8246,6.835,6.8586,6.869,6.869,6.8664,6.8612,6.856,6.8429,6.8377,6.8272,6.856,6.8743,6.8795,6.8576,6.8472,6.8472,6.8097,6.8149,6.8576,6.8048,6.7323,6.6303,6.5124,6.3177,6.0836,5.759,5.543,5.4714,5.4544,5.4544,9.0638,9.0638,9.0638,9.0638,9.0804,9.0638,9.0638,9.0638,9.0638,9.0638,9.0638,9.0638,9.0638,9.0638,9.0579,9.0579,9.0608,9.0638,9.0638,9.0638,9.0638,9.0638,9.0638,9.0638,9.0638,9.0459,9.004,8.9651,8.9651,8.9262,8.9322,8.9501,8.9801,9.0369,9.0608,9.0638,9.0638,9.0519,9.004,8.9621,8.9531,8.8663,8.7706,8.6778,8.6419,8.5641,8.4504,8.4145,8.3786,8.3397,8.3158,8.2828,8.2709,8.22,8.1841,8.1691,8.0853,8.0255,7.9986,7.9507,7.9267,7.8998,7.8789,7.847,7.7711,7.523,7.3816,7.2403,7.0065,6.9154,6.8821,6.8821,6.8795,6.8795,6.8716,6.8743,6.8664,6.8612,6.856,6.856,6.8324,6.8194,6.8507,6.856,6.856,6.8586,6.8743,6.8769,6.8769,6.8795,6.8769,6.8769,6.8716,6.8769,6.8847,6.8847,6.8847,6.8821,6.8487,6.8319,6.8319,6.8345,6.8151,6.7957,6.7451,6.6967,6.6233,6.5174,6.2824,6.0294,5.8145,5.6328,5.6162,5.5451,5.4544,9.0638,9.0638,9.0638,9.0638,9.0638,9.0638,9.0638,9.0638,9.0638,9.0638,9.0608,9.0429,9.0279,9.0219,9.007,9.019,9.0279,9.0309,9.0579,9.0579,9.0638,9.0638,9.0638,9.0638,9.0638,9.0459,9.004,8.9651,8.9621,8.9412,8.9412,8.9651,9.01,9.0339,9.0519,9.0638,9.0638,9.0549,9.0219,9.007,8.9771,8.9082,8.8185,8.7556,8.6988,8.6299,8.5372,8.4803,8.4504,8.4055,8.3517,8.3098,8.2888,8.2529,8.217,8.1931,8.1512,8.0734,8.0075,7.9806,7.9417,7.8878,7.8819,7.847,7.7711,7.523,7.3661,7.2085,7.0228,6.9293,6.8847,6.8847,6.8847,6.8847,6.8847,6.8847,6.8847,6.8795,6.8769,6.8821,6.8847,6.8847,6.8847,6.8821,6.8769,6.8795,6.8847,6.8847,6.8847,6.8847,6.8847,6.8847,6.8847,6.8847,6.8847,6.8847,6.8847,6.8847,6.8513,6.8203,6.8035,6.8009,6.7671,6.7477,6.7163,6.6822,6.6283,6.5,6.3778,6.2137,6.0294,5.8859,5.7753,5.6141,5.4735,9.0638,9.0638,9.0608,9.0579,9.0579,9.0459,9.0489,9.0549,9.0579,9.0549,9.0489,8.992,8.986,8.9621,8.9112,8.9262,8.9681,8.9771,9.007,9.0459,9.0579,9.0608,9.0638,9.0638,9.0638,9.0429,9.016,8.989,8.9681,8.9531,8.9501,8.9681,8.998,9.019,9.0429,9.0459,9.0519,9.0519,9.0549,9.0429,9.0219,8.9801,8.9082,8.8544,8.8095,8.7197,8.6419,8.591,8.5521,8.4893,8.4055,8.3816,8.3517,8.3098,8.2888,8.2589,8.208,8.1212,8.0375,8.0165,7.9627,7.9118,7.8849,7.7887,7.6765,7.5202,7.3661,7.2112,7.0228,6.9459,6.8847,6.8847,6.8847,6.8847,6.8847,6.8847,6.8847,6.8821,6.8821,6.8847,6.8847,6.8847,6.8847,6.8847,6.8847,6.8847,6.8847,6.8847,6.8847,6.8847,6.8847,6.8847,6.8847,6.8847,6.8847,6.8847,6.8847,6.8847,6.8345,6.8009,6.784,6.7671,6.7307,6.6992,6.7018,6.6676,6.6308,6.5965,6.5496,6.365,6.1109,5.9954,5.8574,5.6017,5.4544,9.0638,9.0608,9.016,8.995,8.989,8.9441,8.9262,8.9292,8.9711,8.9711,8.9292,9.007,9.001,8.9651,8.9501,8.9471,8.9591,8.9681,8.9771,9.007,9.0489,9.0608,9.0638,9.0638,9.0638,9.0579,9.0429,9.0279,9.0339,9.004,9.001,9.0339,9.016,9.019,9.001,8.995,9.0219,9.0459,9.0549,9.0608,9.0459,9.001,8.9531,8.9172,8.8484,8.7616,8.7137,8.6359,8.5881,8.5432,8.4325,8.3786,8.3666,8.3128,8.2769,8.2769,8.2469,8.208,8.1302,8.0764,8.0225,7.9597,7.9178,7.8674,7.7387,7.5592,7.3717,7.1953,7.0228,6.9154,6.8847,6.8847,6.8847,6.8847,6.8847,6.8847,6.8847,6.8847,6.8847,6.8847,6.8847,6.8847,6.8847,6.8847,6.8847,6.8847,6.8847,6.8873,6.8847,6.8847,6.8847,6.8847,6.8847,6.8847,6.8847,6.8847,6.8847,6.868,6.8177,6.784,6.7646,6.7307,6.6797,6.6556,6.656,6.6485,6.6137,6.5471,6.4299,6.3087,6.0932,6.0182,5.8981,5.6461,5.4772,8.986,8.9801,8.9441,8.9142,8.8873,8.8753,8.8424,8.8185,8.9142,8.9531,8.9531,8.998,9.004,8.9621,8.9142,8.9082,8.9621,8.9352,8.9501,9.0279,9.0429,9.0579,9.0638,9.0638,9.0638,9.0638,9.0638,9.0579,9.0638,9.0608,9.0549,9.016,9.0249,8.986,8.9471,8.9322,8.9651,9.001,9.0279,9.0399,9.0309,9.001,8.9651,8.9232,8.8394,8.7975,8.7407,8.6509,8.6419,8.597,8.4803,8.4145,8.3936,8.3337,8.2769,8.2769,8.2709,8.232,8.1721,8.1392,8.0853,8.0315,7.9806,7.9247,7.7619,7.5631,7.3857,7.2271,7.0228,6.8847,6.8847,6.8847,6.8847,6.8847,6.8847,6.8847,6.8847,6.8847,6.8847,6.8847,6.8847,6.8847,6.8847,6.8873,6.8873,6.8926,6.9004,6.9082,6.8978,6.8847,6.8847,6.8847,6.8847,6.8847,6.8873,6.8899,6.8873,6.8706,6.8009,6.7646,6.7307,6.7018,6.6581,6.6265,6.5993,6.5894,6.5645,6.3643,6.2218,6.1229,6.0318,5.939,5.8379,5.6845,5.5592,8.8693,8.8723,8.8634,8.8245,8.7766,8.8274,8.7975,8.7107,8.8813,8.9771,8.995,8.983,8.9591,8.9112,8.8424,8.8634,8.9052,8.9052,8.9412,9.0519,9.0579,9.0638,9.0638,9.0638,9.0638,9.0638,9.0638,9.0638,9.0638,9.0608,9.0369,8.9741,8.989,8.9681,8.9202,8.9082,8.9382,8.9711,8.9801,8.986,9.0279,9.001,8.9412,8.9082,8.8634,8.8215,8.7437,8.7197,8.7377,8.6479,8.5641,8.4833,8.4115,8.3457,8.2918,8.2769,8.2769,8.2529,8.211,8.1751,8.1422,8.1063,8.0823,7.9932,7.8381,7.5992,7.4176,7.2281,7.0246,6.9119,6.8926,6.8873,6.8847,6.8847,6.8847,6.8847,6.8847,6.8873,6.8952,6.9004,6.9135,6.9161,6.9422,6.9501,6.9553,6.9344,6.9344,6.9501,6.9291,6.9082,6.9082,6.9108,6.9265,6.9291,6.9108,6.9108,6.8952,6.8565,6.8009,6.7646,6.7477,6.6923,6.6388,6.6367,6.6541,6.5282,6.4497,6.2988,6.1487,6.0361,5.9426,5.8453,5.759,5.6525,5.6265,8.8693,8.8634,8.8155,8.7556,8.7048,8.7646,8.8095,8.8245,8.8663,8.8514,8.8005,8.8933,8.9142,8.8334,8.7975,8.8245,8.8783,8.8813,8.9202,8.989,9.0339,9.0489,9.0608,9.0549,9.0608,9.0638,9.0638,9.0579,9.0638,9.0608,9.0579,9.0369,9.0219,8.9771,8.9262,8.9202,8.9172,8.9591,8.9292,8.9681,9.0429,9.019,8.9681,8.9591,8.9382,8.8693,8.8035,8.7736,8.7377,8.6629,8.591,8.5013,8.3995,8.3217,8.2828,8.2769,8.2769,8.2619,8.2439,8.211,8.1781,8.1512,8.1212,8.0765,7.9362,7.6776,7.4445,7.2369,7.0677,6.9688,6.9082,6.9004,6.8952,6.8952,6.8873,6.8873,6.8899,6.9004,6.9082,6.9239,6.9396,6.9684,6.9971,7.0102,7.0154,7.0206,7.0259,7.0232,6.9866,6.9631,6.9593,6.9645,6.9997,6.9997,6.9579,6.9045,6.8863,6.8423,6.784,6.7646,6.7502,6.7329,6.7091,6.7241,6.7091,6.59,6.4608,6.3336,6.1807,6.006,5.8525,5.755,5.7246,5.6592,5.6479,8.7796,8.7736,8.7407,8.7018,8.6898,8.7706,8.8215,8.8334,8.8843,8.8544,8.7766,8.8634,8.8783,8.8035,8.7856,8.8274,8.8783,8.8424,8.9202,8.989,8.992,9.016,9.0279,9.0399,9.0489,9.0519,9.0309,9.0249,9.0459,9.0279,9.016,9.019,9.004,8.9711,8.9232,8.8873,8.8993,8.9561,8.9023,8.9501,9.0429,9.013,8.983,8.9801,8.9591,8.8993,8.8514,8.8095,8.7586,8.6898,8.621,8.5013,8.4085,8.3457,8.3068,8.2858,8.2769,8.2769,8.2649,8.2439,8.217,8.1991,8.1961,8.1631,8.0052,7.7576,7.5952,7.4004,7.1256,7.0088,6.9893,6.984,6.984,6.984,6.9474,6.9239,6.9344,6.9474,6.9474,6.9501,6.9762,7.0154,7.0363,7.0363,7.0442,7.052,7.0651,7.0729,7.0389,7.0036,7.0166,7.014,7.0192,6.9801,6.9265,6.8915,6.8721,6.8281,6.7969,6.7563,6.7279,6.7641,6.7819,6.7894,6.7463,6.6333,6.5048,6.3433,6.17,5.9747,5.8063,5.6438,5.6511,5.6718,5.6697,8.6718,8.6689,8.6689,8.6689,8.6868,8.8095,8.8304,8.8005,8.8963,8.9142,8.8424,8.8454,8.8544,8.8334,8.7945,8.8663,8.8843,8.8215,8.8993,8.983,8.9441,8.992,9.016,9.01,9.007,8.995,8.9741,8.989,9.013,8.992,8.9771,8.9561,8.9292,8.8963,8.8574,8.8215,8.8424,8.9382,8.9531,8.9651,8.989,9.007,8.989,8.9771,8.9561,8.9262,8.8663,8.8155,8.7766,8.7077,8.6329,8.5342,8.4444,8.3846,8.3397,8.3128,8.2828,8.2798,8.2739,8.2709,8.2649,8.2679,8.2769,8.1917,8.0219,7.8506,7.6872,7.4966,7.2196,7.0795,7.0598,7.0546,7.0546,7.0494,7.0023,6.9684,6.9814,6.9971,6.9945,6.9893,7.0259,7.0677,7.0834,7.0807,7.086,7.0912,7.0938,7.0938,7.0912,7.0714,7.0568,7.0058,6.9772,6.9423,6.9033,6.889,6.8758,6.8484,6.822,6.7532,6.7164,6.7518,6.802,6.8269,6.7652,6.6847,6.5103,6.3199,6.1457,5.9781,5.8144,5.6676,5.6801,5.6966,5.6966,8.6689,8.6689,8.6689,8.6689,8.6868,8.8095,8.8304,8.7885,8.8544,8.8514,8.8185,8.7945,8.7885,8.7885,8.7167,8.7706,8.8873,8.8125,8.9023,9.019,8.9322,8.983,9.013,8.9711,8.9412,8.9202,8.9023,8.9023,8.9382,8.9531,8.9651,8.9621,9.016,9.01,9.013,8.9741,8.9531,9.004,8.986,8.983,9.016,9.0249,9.013,8.986,8.9412,8.9023,8.8514,8.8035,8.7467,8.6808,8.624,8.5641,8.5043,8.4384,8.3906,8.3576,8.3247,8.2978,8.2978,8.2918,8.2918,8.2435,8.2253,8.161,7.9934,7.8148,7.6507,7.4989,7.2835,7.1241,7.0964,7.0807,7.0755,7.0729,7.0442,7.0337,7.0363,7.0546,7.0624,7.0781,7.1043,7.1435,7.1775,7.1748,7.1748,7.1801,7.1775,7.1722,7.1209,7.1062,7.0966,7.0178,6.9489,6.9521,6.965,6.9489,6.9168,6.879,6.8489,6.8018,6.7743,6.7618,6.807,6.8494,6.8459,6.7883,6.5879,6.3242,6.184,6.0198,5.8394,5.7132,5.7194,5.7173,5.7111]},{"header":{"parameterUnit":"m.s-1","parameterCategory":1,"la1":31.0,"la2":29.5877,"lo1":-88.7671,"lo2":-86.6584,"dx":0.0162,"dy":0.0185,"nx":115,"ny":88,"refTime":"2023-02-08T18:00:00:Z","depth":0,"parameterNumber":3,"parameterNumberName":"V-component_of_WINDS"},"data":[0.0,0.0,0.0,0.0,0.0,0.0,0.0,0.0,0.0,0.0,0.0,0.0,0.0,0.0,0.0,0.0,0.0,0.0,0.0,0.0,0.0,0.0,0.0,0.0,0.0,0.0,0.0,0.0,0.0,0.0,0.0,0.0,0.0,0.0,0.0,0.0,0.0,0.0,0.0,0.0,0.0,0.0,0.0,0.0,0.0,0.0,0.0,0.0,0.0,0.0,0.0,0.0,0.0,0.0,0.0,0.0,0.0,0.0,0.0,0.0,0.0,0.0,0.0,0.0,0.0,0.0,0.0,0.0,0.0,0.0,0.0,0.0,0.0,0.0,0.0,0.0,0.0,0.0,0.0,0.0,0.0,0.0,0.0,0.0,0.0,0.0,0.0,0.0,0.0,0.0,0.0,0.0,0.0,0.0,0.0,0.0,0.0,0.0,0.0,0.0,0.0,0.0,0.0,0.0,0.0,0.0,0.0,0.0,0.0,0.0,0.0,0.0,0.0,0.0,0.0,0.0,0.0,0.0,0.0,0.0,0.0,0.0,0.0,0.0,0.0,0.0,0.0,0.0,0.0,0.0,0.0,0.0,0.0,0.0,0.0,0.0,0.0,0.0,0.0,0.0,0.0,0.0,0.0,0.0,0.0,0.0,0.0,0.0,0.0,0.0,0.0,0.0,0.0,0.0,0.0,0.0,0.0,0.0,0.0,0.0,0.0,0.0,0.0,0.0,0.0,0.0,0.0,0.0,0.0,0.0,0.0,0.0,0.0,0.0,0.0,0.0,0.0,0.0,0.0,0.0,0.0,0.0,0.0,0.0,0.0,0.0,0.0,0.0,0.0,0.0,0.0,0.0,0.0,0.0,0.0,0.0,0.0,0.0,0.0,0.0,0.0,0.0,0.0,0.0,0.0,0.0,0.0,0.0,0.0,0.0,0.0,0.0,0.0,0.0,0.0,0.0,0.0,0.0,0.0,0.0,0.0,0.0,0.0,0.0,0.0,0.0,0.0,0.0,0.0,0.0,0.0,0.0,0.0,0.0,0.0,0.0,0.0,0.0,0.0,0.0,0.0,0.0,0.0,0.0,0.0,0.0,0.0,0.0,0.0,0.0,0.0,0.0,0.0,0.0,0.0,0.0,0.0,0.0,0.0,0.0,0.0,0.0,0.0,0.0,0.0,0.0,0.0,0.0,0.0,0.0,0.0,0.0,0.0,0.0,0.0,0.0,0.0,0.0,0.0,0.0,0.0,0.0,0.0,0.0,0.0,0.0,0.0,0.0,0.0,0.0,0.0,0.0,0.0,0.0,0.0,0.0,0.0,0.0,0.0,0.0,0.0,0.0,0.0,0.0,0.0,0.0,0.0,0.0,0.0,0.0,0.0,0.0,0.0,0.0,0.0,0.0,0.0,0.0,0.0,0.0,0.0,0.0,0.0,0.0,0.0,0.0,0.0,0.0,0.0,0.0,0.0,0.0,0.0,0.0,0.0,0.0,0.0,0.0,0.0,0.0,0.0,0.0,0.0,0.0,0.0,0.0,0.0,0.0,0.0,0.0,0.0,0.0,0.0,0.0,0.0,0.0,0.0,0.0,0.0,0.0,0.0,0.0,0.0,0.0,0.0,0.0,0.0,0.0,0.0,0.0,0.0,0.0,0.0,0.0,0.0,0.0,0.0,0.0,0.0,0.0,0.0,0.0,0.0,0.0,0.0,0.0,0.0,0.0,0.0,0.0,0.0,0.0,0.0,0.0,0.0,0.0,0.0,0.0,0.0,0.0,0.0,0.0,0.0,0.0,0.0,0.0,0.0,0.0,0.0,0.0,0.0,0.0,0.0,0.0,0.0,0.0,0.0,0.0,0.0,0.0,0.0,0.0,0.0,0.0,0.0,0.0,0.0,0.0,0.0,0.0,0.0,0.0,0.0,0.0,0.0,0.0,0.0,0.0,0.0,0.0,0.0,0.0,0.0,0.0,0.0,0.0,0.0,0.0,0.0,0.0,0.0,0.0,0.0,0.0,0.0,0.0,0.0,0.0,0.0,0.0,0.0,0.0,0.0,0.0,0.0,0.0,0.0,0.0,0.0,0.0,0.0,0.0,0.0,0.0,0.0,0.0,0.0,0.0,0.0,0.0,0.0,0.0,0.0,0.0,0.0,0.0,0.0,0.0,0.0,0.0,0.0,0.0,0.0,0.0,0.0,0.0,0.0,0.0,0.0,0.0,0.0,0.0,0.0,0.0,0.0,0.0,0.0,0.0,0.0,0.0,0.0,0.0,0.0,0.0,0.0,0.0,0.0,0.0,0.0,0.0,0.0,0.0,0.0,0.0,0.0,0.0,0.0,0.0,0.0,0.0,0.0,0.0,0.0,0.0,0.0,0.0,0.0,0.0,0.0,0.0,0.0,0.0,0.0,0.0,0.0,0.0,0.0,0.0,0.0,0.0,0.0,0.0,0.0,0.0,0.0,0.0,0.0,0.0,0.0,0.0,0.0,0.0,0.0,0.0,0.0,0.0,0.0,0.0,0.0,0.0,0.0,0.0,0.0,0.0,0.0,0.0,0.0,0.0,0.0,0.0,0.0,0.0,0.0,0.0,0.0,0.0,0.0,0.0,0.0,0.0,0.0,0.0,0.0,0.0,0.0,0.0,0.0,0.0,0.0,0.0,0.0,0.0,0.0,0.0,0.0,0.0,0.0,0.0,0.0,0.0,0.0,0.0,0.0,0.0,0.0,0.0,0.0,0.0,0.0,0.0,0.0,0.0,0.0,0.0,0.0,0.0,0.0,0.0,0.0,0.0,0.0,0.0,0.0,0.0,0.0,0.0,0.0,0.0,0.0,0.0,0.0,0.0,0.0,0.0,0.0,0.0,0.0,0.0,0.0,0.0,0.0,0.0,0.0,0.0,0.0,0.0,0.0,0.0,0.0,0.0,0.0,0.0,0.0,0.0,0.0,0.0,0.0,0.0,0.0,0.0,0.0,0.0,0.0,0.0,0.0,0.0,0.0,0.0,0.0,0.0,0.0,0.0,0.0,0.0,0.0,0.0,0.0,0.0,0.0,0.0,0.0,0.0,0.0,0.0,0.0,0.0,0.0,0.0,0.0,0.0,0.0,0.0,0.0,0.0,0.0,0.0,0.0,0.0,0.0,0.0,0.0,0.0,0.0,0.0,0.0,0.0,0.0,0.0,0.0,0.0,0.0,0.0,0.0,0.0,0.0,0.0,0.0,0.0,0.0,0.0,0.0,0.0,0.0,0.0,0.0,0.0,0.0,0.0,0.0,0.0,0.0,0.0,0.0,0.0,0.0,0.0,0.0,0.0,0.0,0.0,0.0,0.0,0.0,0.0,0.0,0.0,0.0,0.0,0.0,0.0,0.0,0.0,0.0,0.0,0.0,0.0,0.0,0.0,0.0,0.0,0.0,0.0,0.0,0.0,0.0,0.0,0.0,0.0,0.0,0.0,0.0,0.0,0.0,0.0,0.0,0.0,0.0,0.0,0.0,0.0,0.0,0.0,0.0,0.0,0.0,0.0,0.0,0.0,0.0,0.0,0.0,0.0,0.0,0.0,0.0,0.0,0.0,0.0,0.0,0.0,0.0,0.0,0.0,0.0,0.0,0.0,0.0,0.0,0.0,0.0,0.0,0.0,0.0,0.0,0.0,0.0,0.0,0.0,0.0,0.0,0.0,0.0,0.0,0.0,0.0,0.0,0.0,0.0,0.0,0.0,0.0,0.0,0.0,0.0,0.0,0.0,0.0,0.0,0.0,0.0,0.0,0.0,0.0,0.0,0.0,0.0,0.0,0.0,0.0,0.0,0.0,0.0,0.0,0.0,0.0,0.0,0.0,0.0,0.0,0.0,0.0,0.0,0.0,0.0,0.0,0.0,0.0,0.0,0.0,0.0,0.0,0.0,0.0,0.0,0.0,0.0,0.0,0.0,0.0,0.0,0.0,0.0,0.0,0.0,0.0,0.0,0.0,0.0,0.0,0.0,0.0,0.0,0.0,0.0,0.0,0.0,0.0,0.0,0.0,0.0,0.0,0.0,0.0,0.0,0.0,0.0,0.0,0.0,0.0,0.0,0.0,0.0,0.0,0.0,0.0,0.0,0.0,0.0,0.0,0.0,0.0,0.0,0.0,0.0,0.0,0.0,0.0,0.0,0.0,0.0,0.0,0.0,0.0,0.0,0.0,0.0,0.0,0.0,0.0,0.0,0.0,0.0,0.0,0.0,0.0,0.0,0.0,0.0,0.0,0.0,0.0,0.0,0.0,0.0,0.0,0.0,-3.3947,0.0,0.0,0.0,0.0,0.0,0.0,0.0,0.0,0.0,0.0,0.0,0.0,0.0,0.0,0.0,0.0,0.0,0.0,0.0,0.0,0.0,0.0,0.0,0.0,0.0,0.0,0.0,0.0,0.0,0.0,0.0,0.0,0.0,0.0,0.0,0.0,0.0,0.0,0.0,0.0,0.0,0.0,0.0,0.0,0.0,0.0,0.0,0.0,0.0,0.0,0.0,0.0,0.0,0.0,0.0,0.0,0.0,0.0,0.0,0.0,0.0,0.0,0.0,0.0,0.0,0.0,0.0,0.0,0.0,0.0,0.0,0.0,0.0,0.0,0.0,0.0,0.0,0.0,0.0,0.0,0.0,0.0,0.0,0.0,0.0,0.0,0.0,0.0,0.0,0.0,0.0,0.0,0.0,0.0,0.0,0.0,0.0,0.0,0.0,0.0,0.0,0.0,0.0,0.0,0.0,0.0,0.0,0.0,0.0,0.0,-3.5127,-3.5152,-3.5403,-3.5152,-3.4374,0.0,0.0,0.0,0.0,0.0,0.0,0.0,0.0,0.0,0.0,0.0,0.0,0.0,0.0,0.0,0.0,0.0,0.0,0.0,0.0,0.0,0.0,0.0,0.0,0.0,0.0,0.0,0.0,0.0,0.0,0.0,0.0,0.0,0.0,0.0,0.0,0.0,0.0,0.0,0.0,0.0,0.0,0.0,0.0,0.0,0.0,0.0,0.0,0.0,0.0,0.0,0.0,0.0,0.0,0.0,0.0,0.0,0.0,0.0,0.0,0.0,0.0,0.0,0.0,0.0,0.0,0.0,0.0,0.0,0.0,0.0,0.0,0.0,0.0,0.0,0.0,0.0,0.0,0.0,0.0,0.0,0.0,0.0,0.0,0.0,0.0,0.0,0.0,0.0,0.0,0.0,0.0,0.0,0.0,0.0,0.0,0.0,0.0,0.0,0.0,0.0,0.0,0.0,0.0,0.0,0.0,0.0,0.0,0.0,0.0,0.0,0.0,-3.5604,-3.5228,-3.455,0.0,0.0,0.0,0.0,0.0,0.0,0.0,0.0,0.0,0.0,0.0,0.0,0.0,0.0,0.0,0.0,0.0,0.0,0.0,0.0,0.0,0.0,0.0,0.0,0.0,0.0,0.0,0.0,0.0,0.0,0.0,0.0,0.0,0.0,0.0,0.0,0.0,0.0,0.0,0.0,0.0,0.0,0.0,0.0,0.0,0.0,0.0,0.0,0.0,0.0,0.0,0.0,0.0,0.0,0.0,0.0,0.0,0.0,0.0,0.0,0.0,0.0,0.0,0.0,0.0,0.0,0.0,0.0,0.0,0.0,0.0,0.0,0.0,0.0,0.0,0.0,0.0,0.0,0.0,0.0,0.0,0.0,0.0,0.0,0.0,0.0,0.0,0.0,0.0,0.0,0.0,0.0,0.0,0.0,0.0,0.0,0.0,0.0,0.0,0.0,0.0,0.0,0.0,0.0,0.0,0.0,0.0,0.0,0.0,0.0,-3.6232,-3.6257,-3.5805,0.0,-3.4048,0.0,0.0,0.0,0.0,0.0,0.0,0.0,0.0,0.0,0.0,0.0,0.0,0.0,0.0,0.0,0.0,0.0,0.0,0.0,0.0,0.0,0.0,0.0,0.0,0.0,0.0,0.0,0.0,0.0,0.0,0.0,0.0,0.0,0.0,0.0,0.0,0.0,0.0,0.0,0.0,0.0,0.0,0.0,0.0,0.0,0.0,0.0,0.0,0.0,0.0,0.0,0.0,0.0,0.0,0.0,0.0,0.0,0.0,0.0,0.0,0.0,0.0,0.0,0.0,0.0,0.0,0.0,0.0,0.0,0.0,0.0,0.0,0.0,0.0,0.0,0.0,0.0,0.0,0.0,0.0,0.0,0.0,0.0,0.0,0.0,0.0,0.0,0.0,0.0,0.0,0.0,0.0,0.0,0.0,0.0,0.0,0.0,0.0,0.0,0.0,0.0,0.0,0.0,0.0,0.0,0.0,0.0,0.0,0.0,0.0,-3.6031,-3.6358,-3.5529,-3.47,0.0,0.0,0.0,0.0,0.0,0.0,0.0,0.0,0.0,0.0,0.0,0.0,0.0,0.0,0.0,0.0,0.0,0.0,0.0,0.0,0.0,0.0,0.0,0.0,0.0,0.0,0.0,0.0,0.0,0.0,0.0,0.0,0.0,0.0,0.0,0.0,0.0,0.0,0.0,0.0,0.0,0.0,0.0,0.0,0.0,0.0,0.0,0.0,0.0,0.0,0.0,0.0,0.0,0.0,0.0,0.0,0.0,0.0,0.0,0.0,0.0,0.0,0.0,0.0,0.0,0.0,0.0,0.0,0.0,0.0,0.0,0.0,0.0,0.0,0.0,0.0,0.0,0.0,0.0,0.0,0.0,0.0,0.0,0.0,0.0,0.0,0.0,0.0,0.0,0.0,0.0,0.0,0.0,0.0,0.0,0.0,0.0,0.0,0.0,0.0,0.0,0.0,0.0,0.0,0.0,0.0,0.0,0.0,0.0,0.0,-3.5981,-3.5881,-3.6081,-3.5228,-3.4474,-3.3922,0.0,0.0,0.0,0.0,0.0,0.0,0.0,0.0,0.0,0.0,0.0,0.0,0.0,0.0,0.0,0.0,0.0,0.0,0.0,0.0,0.0,0.0,0.0,0.0,0.0,0.0,0.0,0.0,0.0,0.0,0.0,0.0,0.0,0.0,0.0,0.0,0.0,0.0,0.0,0.0,0.0,0.0,0.0,0.0,0.0,0.0,0.0,0.0,0.0,0.0,0.0,0.0,0.0,0.0,0.0,0.0,0.0,0.0,0.0,0.0,0.0,0.0,0.0,0.0,0.0,0.0,0.0,0.0,0.0,0.0,0.0,0.0,0.0,0.0,0.0,0.0,0.0,0.0,0.0,0.0,0.0,0.0,0.0,0.0,0.0,0.0,0.0,0.0,0.0,0.0,0.0,0.0,0.0,0.0,0.0,0.0,0.0,0.0,0.0,0.0,0.0,0.0,0.0,0.0,0.0,0.0,0.0,0.0,-3.6358,-3.6307,-3.6081,-3.5579,-3.5002,-3.4449,0.0,0.0,0.0,0.0,0.0,0.0,0.0,0.0,0.0,0.0,0.0,0.0,0.0,0.0,0.0,0.0,0.0,0.0,0.0,0.0,0.0,0.0,0.0,0.0,0.0,0.0,0.0,0.0,0.0,0.0,0.0,0.0,0.0,0.0,0.0,0.0,0.0,0.0,0.0,0.0,0.0,0.0,0.0,0.0,0.0,0.0,0.0,0.0,0.0,0.0,0.0,0.0,0.0,0.0,0.0,0.0,0.0,0.0,0.0,0.0,0.0,0.0,0.0,0.0,0.0,0.0,0.0,0.0,0.0,0.0,0.0,0.0,0.0,0.0,0.0,0.0,0.0,0.0,0.0,0.0,0.0,0.0,0.0,0.0,0.0,0.0,0.0,0.0,0.0,0.0,0.0,0.0,0.0,0.0,0.0,0.0,0.0,0.0,0.0,0.0,0.0,0.0,0.0,0.0,0.0,0.0,0.0,0.0,0.0,-3.583,-3.583,-3.5579,-3.5027,-3.4474,-3.3771,0.0,0.0,0.0,0.0,0.0,0.0,0.0,0.0,0.0,0.0,0.0,0.0,0.0,0.0,0.0,0.0,0.0,0.0,0.0,0.0,0.0,0.0,0.0,0.0,0.0,0.0,0.0,0.0,0.0,0.0,0.0,0.0,0.0,0.0,0.0,0.0,0.0,0.0,0.0,0.0,0.0,0.0,0.0,0.0,0.0,0.0,0.0,0.0,0.0,0.0,0.0,0.0,0.0,0.0,0.0,0.0,0.0,0.0,0.0,0.0,0.0,0.0,0.0,0.0,0.0,0.0,0.0,0.0,0.0,0.0,0.0,0.0,0.0,0.0,0.0,0.0,0.0,0.0,0.0,0.0,0.0,0.0,0.0,0.0,0.0,0.0,0.0,0.0,0.0,0.0,0.0,0.0,0.0,0.0,0.0,0.0,0.0,0.0,0.0,0.0,0.0,0.0,0.0,0.0,0.0,0.0,0.0,0.0,0.0,-3.5303,0.0,-3.5102,-3.4726,-3.4198,-3.347,0.0,0.0,0.0,0.0,0.0,0.0,0.0,0.0,0.0,0.0,0.0,0.0,0.0,0.0,0.0,0.0,0.0,0.0,0.0,0.0,0.0,0.0,0.0,0.0,0.0,0.0,0.0,0.0,0.0,0.0,0.0,0.0,0.0,0.0,0.0,0.0,0.0,0.0,0.0,0.0,0.0,0.0,0.0,0.0,0.0,0.0,0.0,0.0,0.0,0.0,0.0,0.0,0.0,0.0,0.0,0.0,0.0,0.0,0.0,0.0,0.0,0.0,0.0,0.0,0.0,0.0,0.0,0.0,0.0,0.0,0.0,0.0,0.0,0.0,0.0,0.0,0.0,0.0,0.0,0.0,0.0,0.0,0.0,0.0,0.0,0.0,0.0,0.0,0.0,0.0,0.0,0.0,0.0,0.0,0.0,0.0,0.0,0.0,0.0,0.0,0.0,0.0,0.0,0.0,0.0,0.0,0.0,0.0,-3.5253,-3.4776,-3.4726,-3.4726,-3.4726,-3.4148,-3.3596,0.0,0.0,0.0,0.0,0.0,0.0,0.0,0.0,0.0,0.0,0.0,0.0,0.0,0.0,0.0,0.0,0.0,0.0,0.0,0.0,0.0,0.0,0.0,0.0,0.0,0.0,0.0,0.0,0.0,0.0,0.0,0.0,0.0,0.0,0.0,0.0,0.0,0.0,0.0,0.0,0.0,0.0,0.0,0.0,0.0,0.0,0.0,0.0,0.0,0.0,0.0,0.0,0.0,0.0,0.0,0.0,0.0,0.0,0.0,0.0,0.0,0.0,0.0,0.0,0.0,0.0,0.0,0.0,0.0,0.0,0.0,0.0,0.0,0.0,0.0,0.0,0.0,0.0,0.0,0.0,0.0,0.0,0.0,0.0,0.0,0.0,0.0,0.0,0.0,0.0,0.0,0.0,0.0,0.0,0.0,0.0,0.0,0.0,0.0,0.0,0.0,0.0,0.0,0.0,0.0,0.0,0.0,0.0,0.0,-3.5253,-3.455,-3.4525,-3.5203,-3.3621,-3.2641,0.0,0.0,0.0,0.0,0.0,0.0,0.0,0.0,0.0,0.0,0.0,0.0,0.0,0.0,0.0,0.0,0.0,0.0,0.0,0.0,0.0,0.0,0.0,0.0,0.0,0.0,0.0,0.0,0.0,0.0,0.0,0.0,0.0,0.0,0.0,0.0,0.0,0.0,0.0,0.0,0.0,0.0,0.0,0.0,0.0,0.0,0.0,0.0,0.0,0.0,0.0,0.0,0.0,0.0,0.0,0.0,0.0,0.0,0.0,0.0,0.0,0.0,0.0,0.0,0.0,0.0,0.0,0.0,0.0,0.0,0.0,0.0,0.0,0.0,0.0,0.0,0.0,0.0,0.0,0.0,0.0,0.0,0.0,0.0,0.0,0.0,0.0,0.0,0.0,0.0,0.0,0.0,0.0,0.0,0.0,0.0,0.0,0.0,0.0,0.0,0.0,0.0,0.0,0.0,0.0,0.0,0.0,0.0,0.0,-3.6985,-3.5512,-3.5161,-3.6132,-3.451,-3.3082,-3.1964,0.0,0.0,0.0,0.0,0.0,0.0,0.0,0.0,0.0,0.0,0.0,0.0,0.0,0.0,0.0,0.0,0.0,0.0,0.0,0.0,0.0,0.0,0.0,0.0,0.0,0.0,0.0,0.0,0.0,0.0,0.0,0.0,0.0,0.0,0.0,0.0,0.0,0.0,0.0,0.0,0.0,0.0,0.0,0.0,0.0,0.0,0.0,0.0,0.0,0.0,0.0,0.0,0.0,0.0,0.0,0.0,0.0,0.0,0.0,0.0,0.0,0.0,0.0,0.0,0.0,0.0,0.0,0.0,0.0,0.0,0.0,0.0,0.0,0.0,0.0,0.0,0.0,0.0,0.0,0.0,0.0,0.0,0.0,0.0,0.0,0.0,0.0,0.0,0.0,0.0,0.0,0.0,0.0,0.0,0.0,0.0,0.0,0.0,0.0,0.0,0.0,0.0,0.0,0.0,0.0,0.0,0.0,0.0,-3.9823,-3.7593,-3.6846,-3.7538,-3.6497,-3.4628,0.0,0.0,0.0,0.0,0.0,0.0,0.0,0.0,0.0,0.0,0.0,0.0,0.0,0.0,0.0,0.0,0.0,0.0,0.0,0.0,0.0,0.0,0.0,0.0,0.0,0.0,0.0,0.0,0.0,0.0,0.0,0.0,0.0,0.0,0.0,0.0,0.0,0.0,0.0,0.0,0.0,0.0,0.0,0.0,0.0,0.0,0.0,0.0,0.0,0.0,0.0,0.0,0.0,0.0,0.0,0.0,0.0,0.0,0.0,0.0,0.0,0.0,0.0,0.0,0.0,0.0,0.0,0.0,0.0,0.0,0.0,0.0,0.0,0.0,0.0,0.0,0.0,0.0,0.0,0.0,0.0,0.0,0.0,0.0,0.0,0.0,0.0,0.0,0.0,0.0,0.0,0.0,0.0,0.0,0.0,0.0,0.0,0.0,0.0,0.0,0.0,0.0,0.0,0.0,0.0,0.0,0.0,0.0,0.0,-4.143,-4.2202,-4.2252,-4.1455,-3.8442,-3.6288,0.0,0.0,0.0,0.0,0.0,0.0,0.0,0.0,0.0,0.0,0.0,0.0,0.0,0.0,0.0,0.0,0.0,0.0,0.0,0.0,0.0,0.0,0.0,0.0,0.0,0.0,0.0,0.0,0.0,0.0,0.0,0.0,0.0,0.0,0.0,0.0,0.0,0.0,0.0,0.0,0.0,0.0,0.0,0.0,0.0,0.0,0.0,0.0,0.0,0.0,0.0,0.0,0.0,0.0,0.0,0.0,0.0,0.0,0.0,0.0,0.0,0.0,0.0,0.0,0.0,0.0,0.0,0.0,0.0,0.0,0.0,0.0,0.0,0.0,0.0,0.0,0.0,0.0,0.0,0.0,0.0,0.0,0.0,0.0,0.0,0.0,0.0,0.0,0.0,0.0,0.0,0.0,0.0,0.0,0.0,0.0,0.0,0.0,0.0,0.0,0.0,0.0,0.0,0.0,0.0,0.0,0.0,0.0,-4.1128,-4.2509,-4.593,-4.7208,-4.6234,-4.1563,-3.8266,0.0,0.0,0.0,0.0,0.0,0.0,0.0,0.0,0.0,0.0,0.0,0.0,0.0,0.0,0.0,0.0,0.0,0.0,0.0,0.0,0.0,0.0,0.0,0.0,0.0,0.0,0.0,0.0,0.0,0.0,0.0,0.0,0.0,0.0,0.0,0.0,0.0,0.0,0.0,0.0,0.0,0.0,0.0,0.0,0.0,0.0,0.0,0.0,0.0,0.0,0.0,0.0,0.0,0.0,0.0,0.0,0.0,0.0,0.0,0.0,0.0,0.0,0.0,0.0,0.0,0.0,0.0,0.0,0.0,0.0,0.0,0.0,0.0,0.0,0.0,0.0,0.0,0.0,0.0,0.0,0.0,0.0,0.0,0.0,0.0,0.0,0.0,0.0,0.0,0.0,0.0,0.0,0.0,0.0,0.0,0.0,0.0,0.0,0.0,0.0,0.0,0.0,0.0,0.0,0.0,0.0,0.0,0.0,-4.3489,-4.3489,-4.856,-5.1139,-5.0538,-4.4923,-4.0259,0.0,0.0,0.0,0.0,0.0,0.0,0.0,0.0,0.0,0.0,0.0,0.0,0.0,0.0,0.0,0.0,0.0,0.0,0.0,0.0,0.0,0.0,0.0,0.0,0.0,0.0,0.0,0.0,0.0,0.0,0.0,0.0,0.0,0.0,0.0,0.0,0.0,0.0,0.0,0.0,0.0,0.0,0.0,0.0,0.0,0.0,0.0,0.0,0.0,0.0,0.0,0.0,0.0,0.0,0.0,0.0,0.0,0.0,0.0,0.0,0.0,0.0,0.0,0.0,0.0,0.0,0.0,0.0,0.0,0.0,0.0,0.0,0.0,0.0,0.0,0.0,0.0,0.0,0.0,0.0,0.0,0.0,0.0,0.0,0.0,0.0,0.0,0.0,0.0,0.0,0.0,0.0,0.0,0.0,0.0,0.0,0.0,0.0,0.0,0.0,0.0,0.0,0.0,0.0,0.0,0.0,0.0,0.0,-4.3313,-4.6225,-4.954,-5.1139,-5.0687,-4.551,-4.1788,0.0,0.0,0.0,0.0,0.0,0.0,0.0,0.0,0.0,0.0,0.0,0.0,0.0,0.0,0.0,0.0,0.0,0.0,0.0,0.0,0.0,0.0,0.0,0.0,0.0,0.0,0.0,0.0,0.0,0.0,0.0,0.0,0.0,0.0,0.0,0.0,0.0,0.0,0.0,0.0,0.0,0.0,0.0,0.0,0.0,0.0,0.0,0.0,-3.9479,0.0,0.0,0.0,0.0,0.0,0.0,0.0,0.0,0.0,0.0,0.0,0.0,0.0,0.0,0.0,0.0,0.0,0.0,0.0,0.0,0.0,0.0,0.0,0.0,0.0,0.0,0.0,0.0,0.0,0.0,0.0,0.0,0.0,0.0,0.0,0.0,0.0,0.0,0.0,0.0,0.0,0.0,0.0,0.0,0.0,0.0,0.0,0.0,0.0,0.0,0.0,0.0,0.0,0.0,0.0,0.0,0.0,0.0,0.0,-4.3212,-4.7054,-4.9841,-5.1389,-5.1284,-4.7183,-4.3676,0.0,0.0,0.0,0.0,0.0,0.0,0.0,0.0,0.0,0.0,0.0,0.0,0.0,0.0,0.0,0.0,0.0,0.0,0.0,0.0,0.0,0.0,0.0,0.0,0.0,0.0,0.0,0.0,0.0,0.0,0.0,0.0,0.0,0.0,0.0,0.0,0.0,0.0,0.0,0.0,0.0,0.0,0.0,0.0,0.0,0.0,0.0,0.0,0.0,0.0,0.0,0.0,0.0,0.0,0.0,0.0,0.0,0.0,0.0,0.0,0.0,0.0,0.0,0.0,0.0,0.0,0.0,0.0,0.0,0.0,0.0,0.0,0.0,0.0,0.0,0.0,0.0,0.0,0.0,0.0,0.0,0.0,0.0,0.0,0.0,0.0,0.0,0.0,0.0,0.0,0.0,0.0,0.0,0.0,0.0,0.0,0.0,0.0,0.0,0.0,0.0,0.0,0.0,0.0,0.0,0.0,0.0,-4.0149,-4.3388,-4.7506,-5.0017,-5.159,-5.2029,-4.8907,-4.5185,-4.1062,0.0,0.0,0.0,0.0,0.0,0.0,0.0,0.0,0.0,0.0,0.0,0.0,0.0,0.0,0.0,0.0,0.0,0.0,0.0,0.0,0.0,0.0,0.0,0.0,0.0,0.0,0.0,0.0,0.0,0.0,0.0,0.0,0.0,0.0,0.0,0.0,0.0,0.0,-3.8419,-3.9025,0.0,0.0,0.0,0.0,0.0,0.0,0.0,0.0,-3.9305,0.0,0.0,0.0,0.0,0.0,0.0,0.0,0.0,0.0,0.0,0.0,0.0,0.0,0.0,0.0,0.0,0.0,0.0,0.0,0.0,0.0,0.0,0.0,0.0,0.0,0.0,0.0,0.0,0.0,0.0,0.0,0.0,0.0,0.0,0.0,0.0,0.0,0.0,0.0,0.0,0.0,0.0,0.0,0.0,0.0,0.0,0.0,0.0,0.0,0.0,0.0,0.0,0.0,0.0,0.0,0.0,-4.0576,-4.1103,-4.4116,-4.9715,-5.0795,-5.1214,-5.0911,-4.896,-4.5735,-4.1632,0.0,0.0,0.0,0.0,0.0,0.0,0.0,0.0,0.0,0.0,0.0,0.0,0.0,0.0,0.0,0.0,0.0,0.0,0.0,0.0,0.0,0.0,0.0,0.0,0.0,0.0,0.0,0.0,0.0,0.0,0.0,0.0,0.0,0.0,0.0,0.0,0.0,0.0,0.0,-4.0153,-4.0437,0.0,0.0,0.0,0.0,0.0,0.0,0.0,0.0,-4.0031,0.0,0.0,0.0,0.0,0.0,0.0,0.0,0.0,0.0,0.0,0.0,0.0,0.0,0.0,0.0,0.0,0.0,0.0,0.0,0.0,0.0,0.0,0.0,0.0,0.0,0.0,0.0,0.0,0.0,0.0,0.0,0.0,0.0,0.0,0.0,0.0,0.0,0.0,0.0,0.0,0.0,0.0,0.0,0.0,0.0,0.0,0.0,0.0,0.0,0.0,0.0,0.0,0.0,0.0,0.0,-4.1103,-4.2183,-4.5146,-5.0193,-5.0695,-5.121,-5.1915,-4.8762,-4.5885,0.0,0.0,0.0,0.0,0.0,0.0,0.0,0.0,0.0,0.0,0.0,0.0,0.0,0.0,0.0,0.0,0.0,0.0,0.0,0.0,0.0,0.0,0.0,0.0,0.0,0.0,0.0,0.0,0.0,0.0,0.0,0.0,0.0,0.0,0.0,0.0,0.0,0.0,0.0,0.0,-4.1654,-4.2424,-4.3835,0.0,0.0,0.0,0.0,0.0,0.0,-4.0757,-4.0583,0.0,0.0,0.0,0.0,0.0,0.0,0.0,0.0,0.0,0.0,0.0,0.0,0.0,0.0,0.0,0.0,0.0,0.0,0.0,0.0,0.0,0.0,0.0,0.0,0.0,0.0,0.0,0.0,0.0,0.0,0.0,0.0,0.0,0.0,0.0,0.0,0.0,0.0,0.0,0.0,0.0,0.0,0.0,0.0,0.0,0.0,0.0,0.0,0.0,0.0,0.0,0.0,0.0,0.0,0.0,-4.1254,-4.3187,-4.6175,-5.0218,-5.0544,-5.1296,-5.2673,-4.8197,-4.5182,0.0,0.0,0.0,0.0,0.0,0.0,0.0,0.0,0.0,0.0,0.0,0.0,0.0,0.0,0.0,0.0,0.0,0.0,0.0,0.0,0.0,0.0,0.0,0.0,0.0,0.0,0.0,0.0,0.0,0.0,0.0,0.0,0.0,0.0,0.0,0.0,0.0,0.0,0.0,0.0,0.0,-4.4243,-4.5863,-4.4879,0.0,0.0,0.0,0.0,-4.1337,-4.2469,0.0,0.0,0.0,0.0,0.0,0.0,0.0,0.0,0.0,0.0,0.0,0.0,0.0,0.0,0.0,0.0,0.0,0.0,0.0,0.0,0.0,0.0,0.0,0.0,0.0,0.0,0.0,0.0,0.0,0.0,0.0,0.0,0.0,0.0,0.0,0.0,0.0,0.0,0.0,0.0,0.0,0.0,0.0,0.0,0.0,0.0,0.0,0.0,0.0,0.0,0.0,0.0,0.0,0.0,0.0,0.0,-4.1304,-4.3966,-4.6954,-5.0243,-5.0921,-5.133,-5.1463,-4.627,-4.3123,0.0,0.0,0.0,0.0,0.0,0.0,0.0,0.0,0.0,0.0,0.0,0.0,0.0,0.0,0.0,0.0,0.0,0.0,0.0,0.0,0.0,0.0,0.0,0.0,0.0,0.0,0.0,0.0,0.0,0.0,0.0,0.0,0.0,0.0,0.0,0.0,0.0,0.0,0.0,0.0,0.0,-4.4533,-4.6471,-4.5169,-4.366,0.0,0.0,-4.5285,-4.5227,-4.8595,0.0,0.0,0.0,0.0,0.0,0.0,0.0,0.0,0.0,0.0,0.0,0.0,0.0,0.0,0.0,0.0,0.0,0.0,0.0,0.0,0.0,0.0,0.0,0.0,0.0,0.0,0.0,0.0,0.0,0.0,0.0,0.0,0.0,0.0,0.0,0.0,0.0,0.0,0.0,0.0,0.0,0.0,0.0,0.0,0.0,0.0,0.0,0.0,0.0,0.0,0.0,0.0,0.0,0.0,0.0,-3.8969,-4.1379,-4.4995,-4.8008,-5.0343,-5.0971,-5.1494,-5.1897,-4.5867,-4.2823,0.0,0.0,0.0,0.0,0.0,0.0,0.0,0.0,0.0,0.0,0.0,0.0,0.0,0.0,0.0,0.0,0.0,0.0,0.0,0.0,0.0,0.0,0.0,0.0,0.0,0.0,0.0,0.0,0.0,0.0,0.0,0.0,0.0,0.0,0.0,0.0,0.0,0.0,0.0,0.0,0.0,0.0,-4.7738,-4.7811,0.0,0.0,0.0,-4.7404,-4.5605,0.0,0.0,0.0,0.0,0.0,0.0,0.0,0.0,0.0,0.0,0.0,0.0,0.0,0.0,0.0,0.0,0.0,0.0,0.0,0.0,0.0,0.0,0.0,0.0,0.0,0.0,0.0,0.0,0.0,0.0,0.0,0.0,0.0,0.0,0.0,0.0,0.0,0.0,0.0,0.0,0.0,0.0,0.0,0.0,0.0,0.0,0.0,0.0,0.0,0.0,0.0,0.0,0.0,0.0,0.0,0.0,0.0,-4.1379,-4.5949,-4.9088,-5.0569,-5.1197,-5.1727,-5.1923,-4.6239,0.0,0.0,0.0,0.0,0.0,0.0,0.0,0.0,0.0,0.0,0.0,0.0,0.0,0.0,0.0,0.0,0.0,0.0,0.0,0.0,0.0,0.0,0.0,0.0,0.0,0.0,0.0,-3.3893,0.0,0.0,0.0,0.0,0.0,0.0,0.0,0.0,0.0,0.0,0.0,0.0,0.0,0.0,-4.7884,-4.8769,-4.9959,-5.0452,0.0,0.0,-4.932,-4.7579,-5.1468,-5.2455,0.0,0.0,0.0,0.0,0.0,0.0,0.0,0.0,0.0,0.0,0.0,0.0,0.0,0.0,0.0,0.0,0.0,0.0,0.0,0.0,0.0,0.0,0.0,0.0,0.0,0.0,0.0,0.0,0.0,0.0,0.0,0.0,0.0,0.0,0.0,0.0,0.0,0.0,0.0,0.0,0.0,0.0,0.0,0.0,0.0,0.0,0.0,0.0,0.0,0.0,0.0,0.0,0.0,0.0,0.0,-4.148,-4.6702,-5.0042,-5.1197,-5.1774,-5.18,-5.1305,-4.7478,-4.4041,0.0,0.0,0.0,0.0,0.0,0.0,0.0,0.0,0.0,0.0,0.0,0.0,0.0,0.0,0.0,0.0,0.0,0.0,0.0,0.0,0.0,0.0,0.0,0.0,0.0,0.0,0.0,0.0,0.0,0.0,0.0,0.0,0.0,0.0,0.0,0.0,0.0,0.0,0.0,0.0,0.0,-4.7231,-4.9328,-5.022,-5.1672,0.0,0.0,-5.1352,-5.35,-5.7594,-5.7419,-4.813,0.0,0.0,0.0,0.0,0.0,0.0,0.0,0.0,0.0,0.0,0.0,0.0,0.0,0.0,0.0,0.0,0.0,0.0,0.0,0.0,0.0,0.0,0.0,0.0,0.0,0.0,0.0,0.0,0.0,0.0,0.0,0.0,0.0,0.0,0.0,0.0,0.0,0.0,0.0,0.0,0.0,0.0,0.0,0.0,0.0,0.0,0.0,0.0,0.0,0.0,0.0,0.0,0.0,-4.0224,-4.1379,-4.6778,-5.0142,-5.1247,-5.2151,-5.2503,-5.2302,-4.8535,-4.5196,0.0,0.0,0.0,0.0,0.0,0.0,0.0,0.0,0.0,0.0,0.0,0.0,0.0,0.0,0.0,0.0,0.0,0.0,0.0,0.0,0.0,0.0,0.0,0.0,0.0,0.0,0.0,0.0,-3.9114,-3.9087,-3.7368,0.0,0.0,0.0,0.0,0.0,0.0,0.0,0.0,0.0,0.0,-4.9059,-5.1642,-5.3268,0.0,0.0,-5.5039,-5.44,-5.3442,-5.5068,-5.4023,-4.6795,-4.4182,0.0,0.0,0.0,0.0,0.0,0.0,0.0,0.0,0.0,0.0,0.0,0.0,0.0,0.0,0.0,0.0,0.0,0.0,0.0,0.0,0.0,0.0,0.0,0.0,0.0,0.0,0.0,0.0,0.0,0.0,0.0,0.0,0.0,0.0,0.0,0.0,0.0,0.0,0.0,0.0,0.0,0.0,0.0,0.0,0.0,0.0,0.0,0.0,0.0,0.0,0.0,0.0,-4.0727,-4.1856,-4.7007,-5.0262,-5.1364,-5.2329,-5.2665,-5.2441,-4.9576,-4.6734,0.0,0.0,0.0,0.0,0.0,0.0,0.0,0.0,0.0,0.0,0.0,0.0,0.0,0.0,0.0,0.0,0.0,0.0,0.0,0.0,0.0,0.0,0.0,0.0,0.0,0.0,0.0,0.0,-3.9698,-3.9338,-3.7395,0.0,0.0,0.0,0.0,0.0,0.0,0.0,0.0,0.0,0.0,-5.0531,-5.1947,-5.3588,-5.4458,-5.3791,-5.3617,-5.3152,-5.1904,-5.2397,-5.1236,-4.6272,0.0,0.0,0.0,0.0,0.0,0.0,0.0,0.0,0.0,0.0,0.0,0.0,0.0,0.0,0.0,0.0,0.0,0.0,0.0,0.0,0.0,0.0,0.0,0.0,0.0,0.0,0.0,0.0,0.0,0.0,-3.8915,0.0,0.0,0.0,0.0,0.0,0.0,0.0,0.0,0.0,0.0,0.0,0.0,0.0,0.0,0.0,0.0,0.0,0.0,0.0,0.0,0.0,0.0,-4.1831,-4.2986,-4.7483,-5.0414,-5.1482,-5.2182,-5.2337,-5.182,-5.069,-4.8682,-4.5646,0.0,0.0,0.0,0.0,0.0,0.0,0.0,0.0,0.0,0.0,0.0,0.0,0.0,0.0,0.0,0.0,0.0,0.0,0.0,0.0,0.0,0.0,0.0,0.0,0.0,0.0,-3.4578,-3.6067,-3.7316,0.0,0.0,0.0,0.0,0.0,0.0,0.0,0.0,0.0,0.0,-4.7645,-5.1261,-4.9223,-4.9988,-5.0772,-5.0133,-4.7433,-4.6388,-4.9436,-5.0801,-5.054,0.0,0.0,0.0,0.0,0.0,0.0,0.0,0.0,0.0,0.0,0.0,0.0,0.0,0.0,0.0,0.0,0.0,0.0,0.0,0.0,0.0,0.0,0.0,0.0,0.0,0.0,0.0,-4.022,-4.0354,0.0,0.0,0.0,0.0,0.0,0.0,0.0,0.0,0.0,0.0,0.0,-4.2786,-4.2612,0.0,0.0,0.0,0.0,0.0,0.0,0.0,0.0,0.0,0.0,0.0,0.0,-4.2057,-4.3664,-4.7958,-5.088,-5.2329,-5.3053,-5.3213,-5.3014,-5.2341,-4.9725,-4.4873,0.0,0.0,0.0,0.0,0.0,0.0,0.0,0.0,0.0,0.0,0.0,0.0,0.0,0.0,0.0,0.0,0.0,0.0,0.0,0.0,0.0,0.0,0.0,0.0,0.0,-3.7861,0.0,0.0,0.0,0.0,0.0,0.0,0.0,0.0,0.0,0.0,0.0,-4.0729,-4.2688,-4.551,-4.7701,-4.8528,-4.9843,-5.1468,0.0,0.0,0.0,0.0,0.0,0.0,0.0,0.0,0.0,0.0,0.0,0.0,0.0,0.0,-4.5866,-4.186,-4.1976,-4.2673,-4.2702,0.0,0.0,0.0,0.0,0.0,0.0,0.0,0.0,0.0,0.0,0.0,0.0,0.0,0.0,0.0,0.0,-4.1638,0.0,0.0,0.0,0.0,0.0,0.0,0.0,0.0,-4.3795,-4.4487,-4.4689,-4.4808,-4.4516,0.0,-4.337,-4.211,0.0,0.0,0.0,0.0,0.0,0.0,0.0,0.0,-4.2424,-4.394,-4.8181,-5.1184,-5.274,-5.3205,-5.3335,-5.3137,-5.2412,-5.0008,-4.5674,-4.3538,-4.0765,0.0,0.0,0.0,0.0,0.0,0.0,0.0,0.0,0.0,0.0,0.0,0.0,0.0,0.0,0.0,0.0,0.0,0.0,0.0,0.0,0.0,0.0,0.0,-3.9124,0.0,0.0,0.0,0.0,0.0,0.0,0.0,0.0,0.0,-3.8025,-4.0603,-4.298,-4.4533,-4.6512,-4.7724,-4.7143,0.0,0.0,0.0,0.0,0.0,0.0,0.0,-4.5895,-4.4879,-4.5024,-4.6156,-4.9059,-5.1062,-5.2426,-5.2833,0.0,0.0,-4.6708,-4.6534,-4.7201,-4.723,-4.8214,-4.885,-4.8024,-4.9614,-5.0873,0.0,0.0,0.0,0.0,0.0,0.0,0.0,0.0,-4.4178,-4.3553,0.0,-4.3216,0.0,0.0,0.0,0.0,0.0,0.0,0.0,0.0,-4.7458,-4.8509,-4.7191,-4.7531,-4.7555,-4.7094,-4.5865,-4.5355,-4.5208,-4.313,0.0,0.0,0.0,0.0,0.0,0.0,-4.2999,-4.4051,-4.8305,-5.1247,-5.2632,-5.2938,-5.2959,-5.2381,-5.1168,-4.9728,-4.8231,-4.6242,-4.4289,-4.2433,-3.9099,0.0,0.0,0.0,0.0,0.0,0.0,0.0,0.0,0.0,0.0,0.0,0.0,0.0,0.0,0.0,0.0,0.0,0.0,0.0,0.0,-3.9084,0.0,0.0,0.0,0.0,0.0,0.0,0.0,0.0,0.0,0.0,-3.9891,-4.3026,-4.5722,-4.6529,0.0,0.0,0.0,0.0,-4.7695,-4.2615,-4.1599,-4.1773,-4.1976,-4.5837,-4.9088,-4.9727,0.0,0.0,-5.6752,-5.5126,-5.4139,-5.3994,-5.6113,-5.6578,-5.3559,-5.1527,-5.0336,-5.0278,-5.0639,-5.0426,-5.0545,-5.2667,-5.3821,-4.5766,0.0,0.0,0.0,0.0,-4.3385,-4.4347,-4.5814,-4.5958,-4.579,-4.5381,-4.5669,0.0,0.0,0.0,0.0,0.0,0.0,-4.4836,-4.6324,-4.7402,-4.8123,-4.895,-4.895,-4.8926,-4.8901,-4.8197,-4.8137,-4.822,-4.7506,-4.489,-4.0591,0.0,0.0,0.0,0.0,-4.4259,-4.6637,-5.0048,-5.2346,-5.3601,-5.4295,-5.4539,-5.3992,-5.2124,-5.0703,-4.9597,-4.9316,-4.7403,-4.3768,-4.3295,0.0,0.0,0.0,0.0,0.0,0.0,0.0,0.0,0.0,0.0,0.0,0.0,0.0,0.0,0.0,0.0,0.0,0.0,0.0,-3.8833,-4.0804,-4.0643,0.0,0.0,0.0,0.0,0.0,0.0,0.0,0.0,0.0,-4.3478,-4.4358,-4.4642,0.0,0.0,-4.456,-4.2237,-4.4821,-4.7695,-4.9669,-4.9959,0.0,-5.3036,-5.2688,-5.2514,-5.3588,-5.7797,-6.0874,-6.0526,-6.1513,-6.2383,-6.2325,-6.2587,-6.247,-6.1571,-5.951,-5.7971,-5.7884,-5.8224,-5.862,-5.8791,-6.0566,-6.2089,-5.0624,-4.8219,-4.5934,-4.5333,-4.591,-4.615,-4.7136,-4.8628,-4.882,-4.8555,-4.7978,-4.8195,-4.7064,-4.4924,-4.4202,0.0,0.0,0.0,-4.7027,-4.8874,-4.9092,-4.9697,-5.0591,-5.0616,-5.064,-5.0616,-5.05,-5.05,-5.0616,-4.9552,-4.7142,-4.3615,0.0,0.0,-4.0621,-4.2946,-4.5355,-4.7636,-5.0479,-5.2632,-5.3858,-5.4203,-5.4419,-5.4135,-5.2404,-5.1117,-5.0493,-5.0763,-4.9336,-4.5841,-4.5834,-4.3797,0.0,0.0,0.0,0.0,0.0,0.0,0.0,0.0,0.0,0.0,0.0,-3.7848,0.0,0.0,0.0,0.0,-3.9677,-3.9918,-4.0549,-4.1019,0.0,0.0,0.0,0.0,0.0,0.0,0.0,-3.9123,-4.3259,-4.6386,-4.6517,-4.7091,-4.7317,-4.6708,-4.7056,-4.694,-4.5808,0.0,-5.1004,-5.3559,-5.3907,-5.4575,-5.649,-5.6461,-5.6926,-5.9248,-6.1745,-6.3632,-6.4009,-6.5315,-6.636,-6.6564,-6.6186,-6.5838,-6.607,-6.4648,-6.3167,-6.247,-6.2963,-6.3623,-6.3623,-6.5668,-6.7363,-5.5313,-5.4399,-4.9036,-4.7521,-4.87,-4.9205,-5.0215,-5.1586,-5.2043,-5.1441,-5.0119,-5.06,-4.9181,-4.6319,-4.5405,0.0,-4.7834,-4.8411,-4.971,-5.1634,-5.2163,-5.2403,-5.2403,-5.2403,-5.2403,-5.2403,-5.2355,-5.2355,-5.2211,-5.0108,-4.8646,-4.787,-4.6439,-4.4719,-4.2934,-4.4524,-4.6154,-4.758,-5.0174,-5.2163,-5.3667,-5.3373,-5.3253,-5.3443,-5.2186,-5.141,-5.1083,-5.1009,-5.0161,-4.8353,-4.7209,-4.539,-4.2763,0.0,0.0,0.0,0.0,0.0,0.0,0.0,0.0,0.0,0.0,0.0,0.0,0.0,0.0,0.0,-4.3026,0.0,-4.3822,-4.1004,0.0,0.0,0.0,-3.9987,-4.3122,-4.4869,-4.5836,-4.5656,0.0,0.0,-4.8992,-5.0672,-5.2514,-5.3878,-5.4749,-5.4604,-5.2804,-5.4604,-5.6171,-5.5271,-5.5242,-5.5358,-5.6374,-5.8639,-6.1658,-6.4793,-6.6041,-6.6244,-6.6767,-6.6999,-6.7289,-6.7812,-6.7434,-6.7202,-6.7841,-6.7231,-6.6418,-6.4648,-6.5228,-6.5884,-6.5884,-6.7703,-6.9256,-5.7165,-5.6852,-5.4688,-5.3077,-5.1946,-5.2067,-5.2115,-5.2115,-5.2235,-5.2067,-5.1706,-5.1826,-5.1249,-5.0167,-5.0335,-5.0455,-5.0576,-5.1513,-5.2211,-5.2716,-5.3221,-5.3461,-5.3461,-5.3461,-5.3461,-5.3437,-5.3053,-5.2884,-5.2836,-5.1995,-5.0301,-4.7991,-4.7244,-4.5857,-4.3566,-4.4597,-4.6085,-4.7831,-4.9547,-5.181,-5.4574,-5.4157,-5.3692,-5.3443,-5.2449,-5.1864,-5.1624,-5.1206,-5.0777,-5.0073,-4.9282,-4.7357,-4.422,-4.1629,0.0,0.0,0.0,0.0,0.0,0.0,0.0,0.0,0.0,-3.847,-3.5709,0.0,-3.841,0.0,-4.4498,-4.7881,-4.7853,-4.7511,0.0,0.0,-4.43,-4.3955,-4.5194,-4.7595,-4.8489,-4.6754,-4.9608,-5.1613,-5.1347,-5.3625,-5.6113,-5.8203,-5.591,-5.3617,-5.2804,-5.562,-5.8116,-5.8842,-6.038,-6.1919,-6.2238,-6.3603,-6.4967,-6.6418,-6.7057,-6.7638,-6.8247,-6.8363,-6.8421,-6.8567,-6.8479,-6.845,-6.8538,-6.8073,-6.758,-6.6999,-6.7039,-6.6906,-6.6398,-6.7989,-6.9361,-5.8872,-5.8776,-5.7718,-5.6468,-5.5121,-5.4399,-5.3798,-5.3317,-5.3317,-5.3173,-5.2932,-5.274,-5.2331,-5.1874,-5.2139,-5.2235,-5.2259,-5.3029,-5.3534,-5.3774,-5.4279,-5.452,-5.452,-5.452,-5.452,-5.4496,-5.4231,-5.4111,-5.4087,-5.3798,-5.2791,-5.0837,-5.0912,-4.9697,-4.7012,-4.5622,-4.589,-4.753,-4.9816,-5.2421,-5.5606,-5.5064,-5.3961,-5.2527,-5.1656,-5.043,-4.8756,-4.8386,-4.7997,-4.7206,-4.6736,-4.546,-4.3273,-4.0881,-3.8739,0.0,0.0,0.0,0.0,0.0,0.0,0.0,0.0,0.0,0.0,0.0,-4.0656,-4.1288,-4.65,-4.9126,-4.7595,-4.7791,-4.8014,-4.7866,-4.7689,-4.8154,-5.0001,-5.1889,-5.2566,-5.1349,-5.3181,-5.4591,-5.45,-5.6532,-5.8581,-6.0032,-5.9045,-5.8058,-5.7884,-5.9597,-6.1222,-6.2238,-6.3545,-6.4561,-6.4938,-6.5519,-6.6157,-6.6767,-6.7434,-6.8102,-6.8712,-6.8828,-6.8828,-6.8828,-6.8828,-6.8828,-6.8799,-6.8567,-6.816,-6.7625,-6.7993,-6.8136,-6.7601,-6.842,-6.9441,-6.0388,-6.0291,-5.9305,-5.8584,-5.7983,-5.654,-5.553,-5.4904,-5.476,-5.4447,-5.3991,-5.3485,-5.3053,-5.2668,-5.2596,-5.286,-5.3389,-5.3966,-5.4471,-5.4952,-5.553,-5.5794,-5.5794,-5.5818,-5.5794,-5.5794,-5.5746,-5.5698,-5.5698,-5.5626,-5.5193,-5.4471,-5.4856,-5.3731,-5.095,-4.7288,-4.6178,-4.7572,-5.0531,-5.3424,-5.6147,-5.5037,-5.3179,-5.1024,-5.0062,-4.8164,-4.5052,-4.4853,-4.4358,-4.3086,-4.296,-4.2587,-4.1903,-3.955,-3.839,0.0,-3.6739,0.0,0.0,0.0,0.0,0.0,0.0,0.0,0.0,-4.3752,-4.4166,-4.5686,-4.8668,-4.9437,-4.6873,-4.6661,-4.7987,-5.0824,-5.1213,-5.2444,-5.5249,-5.6171,-5.652,-5.652,-5.6984,-5.7332,-5.7419,-5.9103,-6.0322,-6.0642,-6.2354,-6.3486,-6.398,-6.3864,-6.4125,-6.4909,-6.4996,-6.4938,-6.5025,-6.5431,-6.5983,-6.6651,-6.726,-6.7986,-6.8567,-6.877,-6.8828,-6.8828,-6.8828,-6.8828,-6.8828,-6.8828,-6.845,-6.7463,-6.8516,-6.9359,-6.885,-6.9079,-6.9703,-6.1494,-6.1446,-6.0796,-6.0219,-5.9666,-5.8945,-5.7838,-5.6516,-5.5626,-5.5193,-5.5073,-5.4544,-5.4496,-5.476,-5.4351,-5.4447,-5.5001,-5.5963,-5.6468,-5.6612,-5.755,-5.7983,-5.7983,-5.7983,-5.7983,-5.7959,-5.755,-5.7357,-5.7357,-5.6925,-5.5733,-5.3735,-5.3611,-5.2477,-5.0537,0.0,0.0,0.0,-5.1401,-5.3059,-5.391,-5.119,-4.9082,-4.7764,-4.7047,0.0,-4.4953,-4.4853,-4.4451,-4.3662,-4.4026,0.0,0.0,0.0,0.0,0.0,0.0,0.0,0.0,0.0,0.0,0.0,-4.1771,-4.2314,-4.3938,-4.4556,-4.6134,-4.9052,-5.0388,-5.1953,-5.4035,-5.4748,-5.5238,-5.5921,-5.5979,-5.6292,-5.6926,-5.7042,-5.7129,-5.7129,-5.7245,-5.7536,-5.8116,-5.98,-6.1164,-6.1687,-6.3516,-6.4706,-6.4793,-6.4764,-6.4851,-6.4967,-6.4996,-6.4996,-6.4996,-6.5112,-6.5489,-6.6012,-6.6651,-6.7318,-6.7986,-6.8538,-6.8828,-6.8828,-6.8828,-6.8828,-6.8828,-6.8828,-6.8741,-6.8479,-6.9014,-6.9153,-6.8334,-6.9449,-7.0532,-6.2191,0.0,-6.1614,-6.1205,0.0,-6.0388,-5.9859,-5.9257,-5.7381,-5.6444,-5.6155,-5.5361,-5.5433,-5.6179,-5.565,-5.5698,-5.6227,-5.7045,-5.755,-5.7814,-5.8343,-5.8728,-5.8969,-5.8728,-5.8608,-5.8584,-5.8319,-5.8199,-5.8175,-5.7935,-5.7117,-5.5974,-5.595,-5.5419,-5.4382,-5.4841,-5.4248,-5.2441,-5.3351,-5.4814,-5.6491,-5.4746,-5.2749,-5.0787,0.0,0.0,0.0,0.0,0.0,0.0,0.0,0.0,0.0,0.0,0.0,-4.3911,-4.3099,-4.2974,-4.3911,-4.4461,-4.5354,-4.6577,-4.6976,-4.6759,-4.5884,-4.8491,-5.09,-5.2682,-5.3685,-5.4979,-5.6553,-5.7129,-5.7303,-5.7303,-5.7303,-5.7419,-5.771,-5.7507,-5.7448,-5.7739,-5.7797,-5.7942,-5.8261,-6.0264,-6.1658,-6.2151,-6.3748,-6.4996,-6.4996,-6.4996,-6.4996,-6.4996,-6.4996,-6.4996,-6.5025,-6.5286,-6.5519,-6.5954,-6.6738,-6.7434,-6.7812,-6.8421,-6.8828,-6.8828,-6.8828,-6.8828,-6.8828,-6.8828,-6.8741,-6.8556,-6.884,-6.9227,-6.8909,-7.0081,-7.1185,-6.2817,-6.2672,-6.2263,-6.2023,-6.1903,-6.1446,-6.147,-6.1638,0.0,0.0,0.0,-5.6251,-5.6371,-5.7261,-5.6756,-5.6852,-5.7454,-5.7886,-5.8416,-5.9017,-5.9017,-5.9305,-5.9786,-5.9378,-5.9161,-5.9161,-5.9161,-5.9161,-5.9161,-5.9161,-5.9161,-5.9161,-5.9161,-5.9161,-5.9233,-6.0027,-5.9133,-5.6371,-5.5824,-5.6814,-5.922,-5.8433,-5.6671,-5.3903,-5.2779,-5.0406,-4.6659,-4.596,-4.516,-4.383,-4.3432,-4.3497,-4.3771,-4.3796,-4.4086,-4.4744,-4.5598,-4.6702,-4.8058,-4.846,-4.9389,-5.1172,-5.1844,-5.1158,-4.8663,-5.2746,-5.5383,-5.5383,-5.6594,-5.7332,-5.7477,-5.7361,-5.7361,-5.7448,-5.7477,-5.771,-5.8174,-5.7971,-5.7913,-5.8377,-5.8493,-5.8523,-5.8755,-6.0642,-6.2093,-6.2325,-6.3777,-6.4996,-6.4996,-6.4996,-6.4996,-6.4996,-6.4996,-6.4996,-6.5054,-6.5344,-6.5722,-6.5751,-6.6709,-6.7492,-6.7638,-6.816,-6.8625,-6.8596,-6.8741,-6.8828,-6.8828,-6.8828,-6.8654,-6.8131,-6.9044,-6.9931,-7.0425,-7.1321,-7.2089,-6.3658,-6.3225,-6.3153,-6.2865,-6.248,-6.2384,-6.2143,-6.1686,-6.0412,-5.9281,-5.8343,-5.7742,-5.779,-5.8343,-5.7838,-5.8127,-5.9041,-5.9137,-5.969,0.0,-6.0628,-6.0917,-6.1446,-6.1374,-6.135,-6.135,-6.135,-6.135,-6.135,-6.1326,-6.135,-6.1326,-6.135,-6.1301,-6.135,-6.1494,-6.1326,-6.0748,-5.8403,-5.7047,-5.6903,-5.4598,-5.2686,-5.1378,-5.037,-4.8993,-4.7469,-4.6929,-4.6217,-4.5423,-4.5696,-4.6786,-4.8434,-4.8636,-4.9515,-5.1348,-5.1674,-5.1875,-5.2076,-5.1749,-5.1448,-5.1272,-5.1463,-5.1769,-5.2715,-5.4311,-5.5383,-5.5412,-5.6537,-5.7536,-5.8029,-5.7681,-5.7594,-5.8087,-5.8145,-5.8203,-5.8377,-5.8755,-5.9016,-5.919,-5.9161,-5.9422,-5.9974,-6.1251,-6.2209,-6.2412,-6.3835,-6.4996,-6.4996,-6.4996,-6.4996,-6.4996,-6.4996,-6.4996,-6.4996,-6.5025,-6.517,-6.5112,-6.578,-6.636,-6.636,-6.726,-6.7957,-6.8015,-6.8363,-6.8683,-6.877,-6.8828,-6.8741,-6.8701,-6.9999,-7.1383,-7.2226,-7.3385,-7.3934,-6.4404,-6.4163,-6.3875,-6.3634,-6.3394,-6.3129,-6.2696,-6.2191,-6.171,-6.1061,-6.0291,-5.945,-5.9546,-6.0267,-5.9762,-5.9786,-6.0243,-6.0243,-6.0652,-6.1374,-6.1109,-6.1422,-6.2143,-6.1927,-6.1807,-6.1807,-6.1807,-6.1807,-6.1807,-6.1807,-6.1638,-6.135,-6.1061,-6.1061,-6.1326,-6.135,-6.135,-6.1301,-6.0363,-5.9849,-5.9642,-5.8447,-5.7335,-5.6446,-5.5633,-5.4694,-5.3644,-5.2774,-5.193,-5.1455,-5.0812,-5.0946,-5.1774,-5.169,-5.2004,-5.3281,-5.3632,-5.3808,-5.3808,-5.3582,-5.3206,-5.2653,-5.2603,-5.2641,-5.2673,-5.3654,-5.4556,-5.5287,-5.6542,-5.7654,-5.8697,-5.8581,-5.8493,-5.8813,-5.8842,-5.8987,-5.9277,-5.9568,-5.9916,-6.0293,-6.0642,-6.0932,-6.1193,-6.2354,-6.3138,-6.3254,-6.4299,-6.4967,-6.4996,-6.4996,-6.4996,-6.4996,-6.4996,-6.4996,-6.4996,-6.4996,-6.4996,-6.4996,-6.5519,-6.5867,-6.5954,-6.6767,-6.7231,-6.7347,-6.7609,-6.7899,-6.8218,-6.8305,-6.869,-6.9545,-7.0206,-7.1487,-7.3221,-7.4654,-7.4904,-6.5197,-6.5053,-6.4524,-6.4308,-6.426,-6.3875,-6.3466,-6.3129,-6.3105,-6.2817,-6.2191,-6.1061,-6.1013,-6.171,-6.1326,-6.1205,-6.1301,-6.1205,-6.1518,-6.2047,-6.1566,-6.1782,-6.248,-6.2167,-6.1975,-6.1975,-6.1975,-6.2023,-6.2119,-6.2047,-6.1758,-6.135,-6.1037,-6.1109,-6.1494,-6.1494,-6.1494,-6.1518,-6.21,-6.2248,-6.2081,-6.2276,-6.2223,-6.1318,-6.0936,-6.0129,-5.8848,-5.7824,-5.7025,-5.6623,-5.5405,-5.4683,-5.4687,-5.4227,-5.396,-5.4194,-5.4687,-5.4888,-5.4762,-5.4762,-5.4486,-5.3934,-5.3909,-5.3557,-5.2891,-5.3171,-5.4104,-5.542,-5.707,-5.8446,-5.9651,-5.98,-5.9771,-5.9887,-5.9916,-6.0148,-6.0555,-6.0758,-6.1019,-6.16,-6.2035,-6.2296,-6.2499,-6.3312,-6.4009,-6.4241,-6.459,-6.4793,-6.4938,-6.4996,-6.4996,-6.4996,-6.4996,-6.4996,-6.4996,-6.4996,-6.4996,-6.4996,-6.5344,-6.5577,-6.578,-6.6215,-6.6622,-6.6709,-6.6999,-6.7405,-6.7812,-6.8044,-6.8573,-6.9619,-7.0075,-7.1138,-7.3476,-7.5243,-7.5814,-6.6063,-6.5582,-6.5077,-6.4837,-6.4813,-6.4765,-6.4692,-6.4644,-6.4692,-6.4404,-6.373,-6.2336,-6.171,-6.1782,-6.1758,-6.1975,-6.2312,-6.1927,-6.2215,-6.2985,-6.2672,-6.248,-6.2576,-6.2528,-6.2528,-6.2504,-6.2504,-6.272,-6.3057,-6.2696,-6.248,-6.2504,-6.2841,-6.2961,-6.3057,-6.3033,-6.3081,-6.3105,-6.3505,-6.2932,-6.1157,-6.225,-6.2563,-6.1457,-6.1359,-6.0735,-5.9341,-5.8517,-5.808,-5.7843,-5.7247,-5.7049,-5.7424,-5.6997,-5.6201,-5.5555,-5.5872,-5.5867,-5.5365,-5.5315,-5.5089,-5.4561,-5.4511,-5.4461,-5.431,-5.4376,-5.4885,-5.632,-5.841,-6.0163,-6.1629,-6.1338,-6.1222,-6.1629,-6.1716,-6.1861,-6.1919,-6.247,-6.2848,-6.2906,-6.2964,-6.2993,-6.3138,-6.369,-6.427,-6.4735,-6.4532,-6.4502,-6.488,-6.4996,-6.4996,-6.4996,-6.4996,-6.4996,-6.4996,-6.4996,-6.4996,-6.4996,-6.5025,-6.5141,-6.5315,-6.5635,-6.6041,-6.6273,-6.6883,-6.7522,-6.7928,-6.8276,-6.8654,-6.9412,-7.0104,-7.1148,-7.3137,-7.5334,-7.623,-6.7121,-6.6592,-6.6063,-6.5486,-6.4957,-6.4933,-6.4933,-6.4933,-6.4933,-6.4789,-6.4548,-6.3899,-6.3153,-6.2312,-6.2576,-6.2504,-6.2143,-6.2215,-6.2312,-6.2432,-6.2215,-6.2287,-6.2576,-6.26,-6.272,-6.3009,-6.3033,-6.3129,-6.3201,-6.3167,-6.3099,-6.3075,-6.3175,-6.3275,-6.3251,-6.3275,-6.3275,-6.3275,-6.3596,-6.3496,-6.2879,-6.3497,-6.3374,-6.2194,-6.2628,-6.2349,-6.1409,-6.0487,-5.9914,-5.9797,-5.8544,-5.7897,-5.8378,-5.77,-5.6975,-5.645,-5.6223,-5.6118,-5.5892,-5.5867,-5.5792,-5.5566,-5.5541,-5.5415,-5.5232,-5.5867,-5.6876,-5.8157,-5.8971,-6.0174,-6.234,-6.247,-6.2441,-6.2645,-6.2674,-6.2674,-6.2703,-6.3254,-6.3632,-6.369,-6.398,-6.4212,-6.4241,-6.4444,-6.4706,-6.4938,-6.4735,-6.4735,-6.4967,-6.4996,-6.4996,-6.4996,-6.4996,-6.4996,-6.4996,-6.4996,-6.4996,-6.4996,-6.4996,-6.4996,-6.5054,-6.5141,-6.546,-6.5838,-6.6418,-6.7144,-6.7783,-6.8148,-6.8468,-6.9398,-7.1508,-7.3225,-7.4651,-7.6045,-7.6604,-6.8228,-6.765,-6.7001,-6.628,-6.5582,-6.5558,-6.5558,-6.5558,-6.5558,-6.5414,-6.5125,-6.5125,-6.4356,-6.3177,-6.3394,-6.3057,-6.2336,-6.2624,-6.26,-6.2239,-6.2215,-6.236,-6.2576,-6.26,-6.2768,-6.3081,-6.3105,-6.3129,-6.3105,-6.3463,-6.3467,-6.3592,-6.3743,-6.3866,-6.3964,-6.3891,-6.3792,-6.3964,-6.4183,-6.4179,-6.3984,-6.458,-6.4308,-6.29,-6.3533,-6.3544,-6.2647,-6.1843,-6.1416,-6.1366,-5.9772,-5.9073,-5.9382,-5.8399,-5.7699,-5.7323,-5.6749,-5.6448,-5.6445,-5.6445,-5.6369,-5.6244,-5.6219,-5.6043,-5.5861,-5.6571,-5.7931,-5.9752,-5.9561,-6.0512,-6.3072,-6.3603,-6.3603,-6.3603,-6.3603,-6.3603,-6.3661,-6.4038,-6.4299,-6.4357,-6.4619,-6.4996,-6.4996,-6.4967,-6.4967,-6.4967,-6.4996,-6.4996,-6.4996,-6.4996,-6.4996,-6.4996,-6.4996,-6.4996,-6.4996,-6.4996,-6.4996,-6.4996,-6.4996,-6.4996,-6.4996,-6.4996,-6.5025,-6.546,-6.5722,-6.6157,-6.6941,-6.7479,-6.8473,-7.0189,-7.2092,-7.3974,-7.4589,-7.586,-7.6288,-6.931,-6.8685,-6.7675,-6.7194,-6.7169,-6.7121,-6.7121,-6.7001,-6.7073,-6.6568,-6.5727,-6.5678,-6.5077,-6.4091,-6.4139,-6.3803,-6.3298,-6.3274,-6.3274,-6.3225,-6.3201,-6.3009,-6.26,-6.26,-6.2648,-6.2841,-6.2841,-6.2793,-6.2744,-6.3632,-6.4002,-6.4051,-6.4969,-6.5813,-6.6084,-6.5689,-6.5415,-6.5394,-6.5298,-6.4901,-6.4161,-6.5296,-6.5163,-6.3836,-6.4203,-6.3751,-6.2345,-6.2019,-6.1969,-6.1969,-6.1316,-6.0989,-6.0939,-5.9985,-5.8905,-5.8027,-5.7474,-5.72,-5.6924,-5.6972,-5.6771,-5.6319,-5.6244,-5.6194,-5.6118,-5.6239,-5.7604,-6.0291,-6.043,-6.1647,-6.4224,-6.4677,-6.4735,-6.4764,-6.4822,-6.4822,-6.4851,-6.4764,-6.4938,-6.4909,-6.4938,-6.4996,-6.4996,-6.4996,-6.4996,-6.4996,-6.4996,-6.4996,-6.4996,-6.4996,-6.4996,-6.4996,-6.4996,-6.4996,-6.4996,-6.4996,-6.4996,-6.4996,-6.4996,-6.4996,-6.4996,-6.4996,-6.5025,-6.5228,-6.5751,-6.6099,-6.6273,-6.7174,-6.862,-7.01,-7.1473,-7.2951,-7.4339,-7.5263,-7.563,-6.9382,-6.8853,-6.8107,-6.7819,-6.7771,-6.7434,-6.7266,-6.7242,-6.6905,-6.6568,-6.6256,-6.6208,-6.5799,-6.5149,-6.5125,-6.4668,-6.3899,-6.3851,-6.3851,-6.3803,-6.349,-6.3418,-6.3586,-6.3562,-6.3562,-6.3562,-6.3916,-6.4093,-6.4117,-6.5018,-6.5464,-6.5759,-6.6512,-6.7089,-6.7139,-6.6716,-6.6441,-6.6392,-6.6067,-6.5667,-6.532,-6.5839,-6.5634,-6.4781,-6.453,-6.4178,-6.3601,-6.2571,-6.2169,-6.2496,-6.1692,-6.119,-6.109,-6.0111,-5.9332,-5.8905,-5.8126,-5.765,-5.7575,-5.7248,-5.6947,-5.6771,-5.6394,-5.6244,-5.6219,-5.6365,-5.7472,-5.9793,-6.062,-6.1975,-6.4167,-6.4996,-6.4996,-6.4996,-6.4996,-6.4996,-6.4996,-6.4996,-6.4996,-6.4996,-6.4996,-6.4996,-6.4996,-6.4996,-6.4996,-6.4996,-6.4996,-6.4996,-6.4996,-6.4996,-6.4996,-6.4996,-6.4996,-6.4996,-6.4996,-6.4996,-6.4996,-6.4996,-6.4996,-6.4996,-6.4996,-6.4996,-6.5025,-6.5402,-6.5896,-6.6418,-6.668,-6.8063,-6.95,-7.0809,-7.2013,-7.2891,-7.4147,-7.5226,-7.5466,-6.9382,-6.8877,-6.8516,-6.8372,-6.8324,-6.7963,-6.7795,-6.7771,-6.7434,-6.7169,-6.7049,-6.7025,-6.6713,-6.628,-6.6232,-6.5751,-6.4885,-6.4572,-6.438,-6.4356,-6.4019,-6.4043,-6.4332,-6.438,-6.438,-6.438,-6.4918,-6.5096,-6.5428,-6.6187,-6.6636,-6.6928,-6.7715,-6.817,-6.8221,-6.7794,-6.7518,-6.7392,-6.6764,-6.6388,-6.6388,-6.6187,-6.5961,-6.5534,-6.5032,-6.463,-6.4454,-6.3375,-6.2847,-6.2973,-6.2395,-6.1843,-6.1416,-6.0738,-6.0136,-5.9759,-5.9282,-5.8704,-5.8227,-5.7926,-5.77,-5.7323,-5.6997,-5.6721,-5.652,-5.647,-5.7796,-5.9873,-6.062,-6.184,-6.4167,-6.4996,-6.4996,-6.4996,-6.4996,-6.4996,-6.4996,-6.4996,-6.4996,-6.4996,-6.4996,-6.4996,-6.4996,-6.4996,-6.4996,-6.4996,-6.4996,-6.4996,-6.4996,-6.4996,-6.4996,-6.4996,-6.4996,-6.4996,-6.4996,-6.4996,-6.4996,-6.4996,-6.4996,-6.4996,-6.4996,-6.4996,-6.5141,-6.5577,-6.6099,-6.668,-6.7714,-6.9044,-7.0371,-7.1698,-7.2672,-7.3447,-7.4487,-7.5251,-7.5403,-6.9406,-6.8973,-6.8901,-6.8901,-6.8901,-6.8805,-6.8853,-6.8781,-6.8733,-6.8324,-6.7915,-6.8011,-6.765,-6.7314,-6.7194,-6.6929,-6.6352,-6.551,-6.5053,-6.4981,-6.4909,-6.4885,-6.4981,-6.5005,-6.5138,-6.509,-6.5451,-6.5991,-6.6349,-6.6933,-6.736,-6.7961,-6.8265,-6.8848,-6.9401,-6.8748,-6.8522,-6.8271,-6.7467,-6.6965,-6.6915,-6.6463,-6.6137,-6.6011,-6.5559,-6.5082,-6.458,-6.4404,-6.4103,-6.3776,-6.3651,-6.3149,-6.2245,-6.1868,-6.1441,-6.0613,-6.0763,-6.0236,-5.9031,-5.9081,-5.8704,-5.8077,-5.7851,-5.7524,-5.7123,-5.6972,-5.8037,-6.0146,-6.0784,-6.184,-6.4296,-6.4996,-6.4996,-6.4996,-6.4996,-6.4996,-6.4996,-6.4996,-6.4996,-6.4996,-6.4996,-6.4996,-6.4996,-6.4996,-6.4996,-6.4996,-6.4996,-6.4996,-6.4996,-6.4996,-6.4996,-6.4996,-6.4996,-6.4996,-6.4996,-6.4996,-6.4996,-6.4996,-6.4996,-6.4996,-6.4996,-6.4996,-6.4996,-6.5344,-6.5838,-6.6447,-6.7582,-6.8883,-7.044,-7.1734,-7.2736,-7.3939,-7.4733,-7.5434,-7.5561,-6.9598,-6.9454,-6.9454,-6.9454,-6.9406,-6.9069,-6.8901,-6.8853,-6.854,-6.8276,-6.8131,-6.8107,-6.8011,-6.7915,-6.7867,-6.7771,-6.7554,-6.6857,-6.6352,-6.5991,-6.563,-6.5838,-6.6286,-6.6542,-6.6713,-6.6914,-6.6725,-6.6953,-6.7429,-6.7837,-6.8265,-6.8534,-6.8995,-6.9275,-6.9401,-6.8924,-6.8622,-6.8547,-6.7919,-6.7392,-6.7015,-6.6815,-6.6538,-6.6137,-6.5936,-6.576,-6.5584,-6.4881,-6.4605,-6.4731,-6.4429,-6.3902,-6.3199,-6.2421,-6.1868,-6.1466,-6.0864,-6.0462,-5.9885,-5.9282,-5.888,-5.8478,-5.8152,-5.7851,-5.76,-5.7273,-5.8268,-6.0607,-6.0864,-6.184,-6.4296,-6.4996,-6.4996,-6.4996,-6.4996,-6.4996,-6.4996,-6.4996,-6.4996,-6.4996,-6.4996,-6.4996,-6.4996,-6.4996,-6.4996,-6.4996,-6.4996,-6.4996,-6.4996,-6.4996,-6.4996,-6.4996,-6.4996,-6.4996,-6.4996,-6.4996,-6.4996,-6.4996,-6.4996,-6.4996,-6.4996,-6.5141,-6.5112,-6.5373,-6.5838,-6.6578,-6.7684,-6.8956,-7.0599,-7.217,-7.3509,-7.4464,-7.51,-7.5561,-7.5877,-6.9863,-6.9695,-6.9695,-6.9695,-6.9671,-6.9334,-6.919,-6.9166,-6.8853,-6.8709,-6.8709,-6.8709,-6.8588,-6.8444,-6.842,-6.83,-6.8083,-6.7723,-6.7598,-6.7188,-6.6304,-6.6465,-6.7455,-6.7713,-6.8094,-6.8321,-6.8155,-6.836,-6.8839,-6.9045,-6.912,-6.9064,-6.927,-6.9426,-6.9426,-6.9125,-6.8924,-6.8848,-6.8396,-6.7945,-6.7618,-6.7392,-6.699,-6.6538,-6.6438,-6.6312,-6.6086,-6.5409,-6.5132,-6.5132,-6.458,-6.4028,-6.3651,-6.2822,-6.222,-6.1893,-6.1366,-6.0814,-6.0337,-5.9734,-5.9207,-5.9006,-5.8679,-5.8403,-5.8202,-5.7801,-5.8885,-6.1085,-6.1298,-6.2173,-6.4641,-6.5083,-6.4996,-6.4996,-6.4996,-6.4996,-6.4996,-6.4996,-6.4996,-6.4996,-6.4996,-6.4996,-6.4996,-6.4996,-6.4996,-6.4996,-6.4996,-6.4996,-6.4996,-6.4996,-6.4996,-6.4996,-6.4996,-6.4996,-6.4996,-6.4996,-6.4996,-6.4996,-6.4996,-6.4996,-6.4996,-6.5344,-6.5519,-6.6099,-6.6593,-6.6999,-6.8048,-6.9572,-7.1088,-7.2601,-7.4035,-7.512,-7.5797,-7.6414,-7.6667,-7.0224,-6.9767,-6.9743,-6.9743,-6.9695,-6.9647,-6.9622,-6.9671,-6.9695,-6.9695,-6.9695,-6.9671,-6.9454,-6.9069,-6.8997,-6.8733,-6.8276,-6.818,-6.8322,-6.8197,-6.7544,-6.7278,-6.8411,-6.8733,-6.9054,-6.9472,-6.9556,-6.9789,-7.0204,-7.0204,-7.0054,-6.9702,-6.9702,-6.9577,-6.9677,-6.9526,-6.9476,-6.9426,-6.8949,-6.8648,-6.8522,-6.8095,-6.7593,-6.7066,-6.694,-6.6689,-6.6312,-6.6036,-6.5785,-6.5308,-6.4429,-6.3877,-6.3676,-6.3174,-6.2546,-6.2144,-6.2044,-6.1416,-6.0688,-6.0387,-6.0085,-5.9608,-5.9483,-5.9307,-5.883,-5.8579,-5.963,-6.204,-6.1895,-6.259,-6.497,-6.5548,-6.5228,-6.5054,-6.5054,-6.4996,-6.4996,-6.4996,-6.4996,-6.4996,-6.4996,-6.4996,-6.4996,-6.4996,-6.4996,-6.4996,-6.4996,-6.4996,-6.4996,-6.4996,-6.4996,-6.4996,-6.4996,-6.4996,-6.4996,-6.4996,-6.4996,-6.5054,-6.5112,-6.5199,-6.517,-6.5519,-6.5954,-6.6593,-6.7231,-6.7638,-6.8414,-6.9749,-7.1198,-7.2554,-7.4091,-7.5558,-7.6523,-7.7018,-7.7236,-7.0753,-7.0296,-7.0272,-7.0055,-6.9719,-6.9695,-6.9695,-6.9743,-7.0103,-7.02,-7.0248,-7.0272,-7.0128,-7.0031,-6.9622,-6.9406,-6.9166,-6.8877,-6.8709,-6.878,-6.8579,-6.8876,-6.9622,-6.9904,-7.0113,-7.0573,-7.0347,-7.0455,-7.0832,-7.0857,-7.0757,-7.0681,-7.0556,-7.0606,-7.0606,-7.0204,-7.0054,-6.9978,-6.9501,-6.9024,-6.8698,-6.8547,-6.8145,-6.7618,-6.7216,-6.694,-6.6714,-6.6338,-6.6061,-6.586,-6.4856,-6.4279,-6.4178,-6.34,-6.2797,-6.2621,-6.2195,-6.1918,-6.1542,-6.114,-6.0688,-6.0186,-6.0111,-5.9859,-5.9332,-5.893,-6.0114,-6.2095,-6.2492,-6.3225,-6.5417,-6.6186,-6.6128,-6.5722,-6.5373,-6.5083,-6.5025,-6.4996,-6.4996,-6.4996,-6.4996,-6.4996,-6.4996,-6.4996,-6.4996,-6.4996,-6.5025,-6.5054,-6.5112,-6.5228,-6.5315,-6.5083,-6.5025,-6.4996,-6.4996,-6.4996,-6.5025,-6.5083,-6.5257,-6.5548,-6.5548,-6.5664,-6.6186,-6.6738,-6.7492,-6.8015,-6.8531,-6.9325,-7.0968,-7.259,-7.4109,-7.5554,-7.69,-7.7615,-7.771,-7.1162,-7.0488,-7.0488,-7.0176,-6.9719,-6.9695,-6.9695,-6.9743,-7.0007,-7.0152,-7.0152,-7.0152,-7.0152,-7.0103,-6.9815,-6.9695,-6.9671,-6.9598,-6.9769,-7.0325,-7.102,-7.0858,-7.0751,-7.0723,-7.1133,-7.1359,-7.1108,-7.1158,-7.1384,-7.1435,-7.1309,-7.1083,-7.1083,-7.1083,-7.0983,-7.0556,-7.0405,-7.0455,-7.0079,-6.9702,-6.9652,-6.9426,-6.8999,-6.8497,-6.7945,-6.7518,-6.7015,-6.6413,-6.6112,-6.5936,-6.5308,-6.4806,-6.4705,-6.3776,-6.3224,-6.3149,-6.2471,-6.1994,-6.1918,-6.1492,-6.1065,-6.0763,-6.0663,-6.0983,-6.1069,-6.0737,-6.1588,-6.4444,-6.4104,-6.4772,-6.6165,-6.6854,-6.6709,-6.636,-6.5983,-6.5664,-6.5431,-6.5402,-6.5373,-6.5315,-6.517,-6.4996,-6.4996,-6.4996,-6.4996,-6.5054,-6.5315,-6.5373,-6.546,-6.5577,-6.5635,-6.5489,-6.5344,-6.5373,-6.5228,-6.517,-6.5489,-6.5548,-6.5867,-6.6099,-6.6331,-6.636,-6.6912,-6.7522,-6.7986,-6.8497,-6.8923,-6.9676,-7.0858,-7.2475,-7.4211,-7.5733,-7.7026,-7.8121,-7.8184,-7.1595,-7.0657,-7.0584,-7.0224,-6.9743,-6.9695,-6.9695,-6.9719,-6.9839,-6.9911,-6.9983,-6.9911,-7.0152,-6.9935,-7.0152,-6.9911,-6.9959,-7.0344,-7.1053,-7.1931,-7.2975,-7.2911,-7.1399,-7.1825,-7.2188,-7.2288,-7.2163,-7.2113,-7.2188,-7.2138,-7.1811,-7.1535,-7.1384,-7.1309,-7.1334,-7.0832,-7.0757,-7.1008,-7.0631,-7.0531,-7.0656,-7.043,-6.9953,-6.9426,-6.8723,-6.7919,-6.7141,-6.6538,-6.6212,-6.6112,-6.5584,-6.5283,-6.5107,-6.4279,-6.3776,-6.3525,-6.2822,-6.2295,-6.2069,-6.1743,-6.1366,-6.1291,-6.1266,-6.1799,-6.2457,-6.2507,-6.3584,-6.6236,-6.6314,-6.6587,-6.7526,-6.7463,-6.6999,-6.6912,-6.6941,-6.668,-6.6302,-6.607,-6.6012,-6.5896,-6.5402,-6.5141,-6.4996,-6.4996,-6.4996,-6.5054,-6.5344,-6.5635,-6.5867,-6.6099,-6.6157,-6.607,-6.5954,-6.5809,-6.5606,-6.5344,-6.5838,-6.6186,-6.6651,-6.6999,-6.7463,-6.7696,-6.8131,-6.8567,-6.8799,-6.9205,-6.9641,-7.0488,-7.1307,-7.2745,-7.4466,-7.5962,-7.7295,-7.8313,-7.8753,-7.2677,-7.1691,-7.1282,-7.056,-6.9767,-6.9695,-6.9719,-6.9767,-7.0152,-7.0512,-7.0825,-7.0897,-7.1114,-7.145,-7.1017,-7.0921,-7.0849,-7.1215,-7.1684,-7.2642,-7.3302,-7.3835,-7.3377,-7.3443,-7.3468,-7.3594,-7.3393,-7.3217,-7.3192,-7.3042,-7.2916,-7.2389,-7.2213,-7.2364,-7.2213,-7.1711,-7.1585,-7.1636,-7.1184,-7.0983,-7.1133,-7.1033,-7.0631,-7.0029,-6.9125,-6.8095,-6.7216,-6.6865,-6.6589,-6.6112,-6.566,-6.5434,-6.5233,-6.4705,-6.4178,-6.3827,-6.355,-6.3124,-6.2747,-6.2546,-6.227,-6.1943,-6.1893,-6.1802,-6.1641,-6.2897,-6.4274,-6.6192,-6.7141,-6.8088,-6.8875,-6.7783,-6.7434,-6.7609,-6.7696,-6.7638,-6.7405,-6.6999,-6.6535,-6.6099,-6.5867,-6.5577,-6.5112,-6.5141,-6.5141,-6.5112,-6.546,-6.5867,-6.6273,-6.668,-6.6738,-6.6767,-6.6651,-6.6535,-6.6331,-6.6244,-6.6738,-6.7231,-6.7667,-6.8073,-6.8538,-6.8596,-6.8828,-6.9176,-6.9525,-6.9902,-7.0192,-7.0708,-7.1247,-7.3028,-7.4819,-7.6139,-7.7419,-7.847,-7.9132,-7.3326,-7.2749,-7.222,-7.1522,-7.0825,-7.0536,-7.044,-7.0488,-7.0705,-7.0993,-7.1234,-7.1258,-7.1426,-7.1667,-7.1601,-7.1655,-7.195,-7.2541,-7.3182,-7.3923,-7.4613,-7.5005,-7.5151,-7.4875,-7.4724,-7.4498,-7.4121,-7.387,-7.3669,-7.3569,-7.3242,-7.2765,-7.274,-7.2665,-7.264,-7.2238,-7.2062,-7.2138,-7.1761,-7.156,-7.1811,-7.1585,-7.1033,-7.0229,-6.9225,-6.8271,-6.7844,-6.7493,-6.7091,-6.6614,-6.6237,-6.5936,-6.5609,-6.5157,-6.4731,-6.4505,-6.4153,-6.3977,-6.3676,-6.3576,-6.3375,-6.2822,-6.2797,-6.2931,-6.293,-6.3675,-6.5163,-6.6887,-6.8015,-6.8684,-6.9678,-6.9437,-6.877,-6.8334,-6.8596,-6.8625,-6.8305,-6.7754,-6.726,-6.6854,-6.6593,-6.6302,-6.5983,-6.5722,-6.5838,-6.6041,-6.6622,-6.7028,-6.7202,-6.7551,-6.7551,-6.7522,-6.7405,-6.726,-6.7086,-6.726,-6.7841,-6.8392,-6.8944,-6.9321,-6.9757,-6.9583,-6.935,-6.9612,-6.9844,-7.0105,-7.0424,-7.0941,-7.1882,-7.3486,-7.5066,-7.6415,-7.7641,-7.8753,-7.9164,-7.3591,-7.347,-7.2917,-7.2388,-7.1907,-7.1426,-7.121,-7.1433,-7.1481,-7.1505,-7.1601,-7.1601,-7.1945,-7.1945,-7.2416,-7.2541,-7.2861,-7.375,-7.4591,-7.5062,-7.5484,-7.5879,-7.5879,-7.5778,-7.5477,-7.4724,-7.4724,-7.4448,-7.4071,-7.382,-7.3745,-7.3142,-7.3016,-7.3067,-7.2816,-7.2489,-7.2389,-7.2565,-7.2263,-7.2188,-7.2489,-7.2188,-7.151,-7.0455,-6.9426,-6.8748,-6.8396,-6.7995,-6.7543,-6.7141,-6.694,-6.6639,-6.6262,-6.5735,-6.5333,-6.5283,-6.4806,-6.4505,-6.4304,-6.4329,-6.4178,-6.3827,-6.3676,-6.4082,-6.4466,-6.5031,-6.6236,-6.7679,-6.8927,-6.9451,-7.0025,-7.0134,-6.996,-6.9525,-6.9641,-6.9612,-6.9205,-6.8596,-6.8363,-6.7725,-6.7289,-6.6941,-6.6767,-6.6564,-6.6767,-6.7028,-6.7638,-6.8073,-6.8247,-6.8421,-6.845,-6.8479,-6.8421,-6.8654,-6.8538,-6.8479,-6.906,-6.9147,-6.9815,-6.9989,-7.0308,-6.996,-6.9583,-6.9844,-7.0076,-7.0482,-7.1086,-7.1889,-7.2973,-7.4277,-7.5429,-7.6962,-7.8019,-7.9035,-7.9258,-7.3374,-7.2893,-7.2412,-7.1883,-7.145,-7.1306,-7.1529,-7.1878,-7.1975,-7.2541,-7.328,-7.3304,-7.335,-7.3819,-7.3966,-7.4166,-7.4292,-7.4814,-7.5137,-7.546,-7.5857,-7.6055,-7.6055,-7.6055,-7.5904,-7.5854,-7.5678,-7.5352,-7.4975,-7.4925,-7.4448,-7.4171,-7.4021,-7.387,-7.3468,-7.3318,-7.2941,-7.274,-7.2565,-7.2615,-7.264,-7.2414,-7.1912,-7.0832,-6.9777,-6.91,-6.8622,-6.8145,-6.7769,-6.7593,-6.6739,-6.6589,-6.6589,-6.6262,-6.581,-6.5434,-6.5258,-6.5007,-6.4731,-6.4555,-6.4454,-6.4254,-6.3977,-6.3726,-6.4358,-6.5766,-6.7053,-6.8256,-6.9899,-7.113,-7.1353,-7.1092,-7.0715,-7.0453,-7.0424,-7.0482,-7.0308,-7.0018,-6.9437,-6.8509,-6.7986,-6.7667,-6.7609,-6.7522,-6.758,-6.7899,-6.845,-6.8799,-6.8944,-6.9234,-6.9437,-6.9495,-6.9525,-6.9873,-7.0192,-7.0134,-7.025,-6.9844,-7.0047,-6.9844,-7.0018,-6.9844,-6.9815,-7.0337,-7.0831,-7.1324,-7.207,-7.2812,-7.408,-7.5202,-7.6355,-7.7507,-7.8907,-8.0143,-8.0112,-7.3639,-7.3591,-7.3086,-7.2725,-7.246,-7.2172,-7.2277,-7.2878,-7.2902,-7.3424,-7.3994,-7.4068,-7.4191,-7.4612,-7.4862,-7.5061,-7.5261,-7.546,-7.5658,-7.5857,-7.6055,-7.6055,-7.6055,-7.6055,-7.6055,-7.6055,-7.603,-7.5778,-7.5276,-7.5201,-7.4975,-7.4523,-7.4423,-7.4146,-7.372,-7.3544,-7.3268,-7.2866,-7.274,-7.274,-7.264,-7.2288,-7.1535,-7.0983,-7.0104,-6.9376,-6.91,-6.8848,-6.8522,-6.8196,-6.7719,-6.7317,-6.699,-6.6689,-6.6287,-6.5835,-6.5685,-6.5609,-6.5358,-6.5308,-6.5233,-6.4881,-6.4404,-6.3977,-6.4095,-6.5339,-6.7295,-6.9038,-7.061,-7.2021,-7.1644,-7.1644,-7.1411,-7.0918,-7.1005,-7.1034,-7.086,-7.0773,-7.0163,-6.9379,-6.9118,-6.8915,-6.8712,-6.8596,-6.845,-6.8741,-6.9263,-6.9525,-6.9728,-6.996,-7.0279,-7.025,-7.0279,-7.0512,-7.0918,-7.1092,-7.0918,-7.057,-7.0337,-7.0163,-7.0134,-7.0163,-7.0628,-7.1208,-7.1702,-7.1963,-7.2386,-7.2783,-7.4445,-7.6122,-7.7447,-7.8807,-8.027,-8.1185,-8.1185,-7.3735,-7.4072,-7.3663,-7.3494,-7.3603,-7.3217,-7.3405,-7.3833,-7.401,-7.4187,-7.4862,-7.4837,-7.4837,-7.4862,-7.5261,-7.5658,-7.6055,-7.6055,-7.6055,-7.6055,-7.6055,-7.6055,-7.6055,-7.6055,-7.6055,-7.6055,-7.6055,-7.5829,-7.5552,-7.5477,-7.5176,-7.5,-7.4799,-7.4372,-7.3946,-7.387,-7.3368,-7.2916,-7.274,-7.274,-7.2489,-7.1811,-7.1184,-7.1033,-7.0129,-6.9602,-6.9401,-6.915,-6.9024,-6.8748,-6.8422,-6.7995,-6.7292,-6.7041,-6.6714,-6.6237,-6.6112,-6.6112,-6.6086,-6.6036,-6.5785,-6.5459,-6.4806,-6.4304,-6.4463,-6.5496,-6.7114,-6.9747,-7.1538,-7.2544,-7.2311,-7.2398,-7.2166,-7.1818,-7.1702,-7.1702,-7.144,-7.1324,-7.1382,-7.0831,-7.0453,-7.0076,-6.9786,-6.967,-6.9525,-6.9699,-7.0192,-7.0512,-7.0686,-7.0744,-7.0918,-7.0918,-7.0947,-7.1063,-7.1353,-7.1731,-7.1411,-7.0889,-7.0744,-7.0599,-7.0628,-7.0715,-7.1208,-7.1557,-7.1963,-7.2137,-7.2502,-7.304,-7.4456,-7.6274,-7.8243,-7.9789,-8.0745,-8.1947,-8.2573,-7.2941,-7.3013,-7.2941,-7.3121,-7.3551,-7.3454,-7.4035,-7.5061,-7.5061,-7.546,-7.5857,-7.5857,-7.5857,-7.5857,-7.5857,-7.6055,-7.6055,-7.6055,-7.6055,-7.6055,-7.6055,-7.6055,-7.6055,-7.6055,-7.6055,-7.6055,-7.6055,-7.6055,-7.5879,-7.5879,-7.5904,-7.5753,-7.5603,-7.5352,-7.4397,-7.4322,-7.3745,-7.2941,-7.274,-7.2715,-7.259,-7.2062,-7.156,-7.0983,-7.0455,-6.9878,-6.9476,-6.915,-6.8949,-6.92,-6.8396,-6.7894,-6.7618,-6.7216,-6.6714,-6.6312,-6.6112,-6.6112,-6.6112,-6.6112,-6.6112,-6.576,-6.5107,-6.458,-6.5185,-6.6318,-6.8034,-6.9895,-7.174,-7.272,-7.2979,-7.2863,-7.2892,-7.2747,-7.2544,-7.2456,-7.2224,-7.1876,-7.1934,-7.1905,-7.1411,-7.1034,-7.0715,-7.0657,-7.0599,-7.0831,-7.1092,-7.1411,-7.1673,-7.1731,-7.176,-7.1818,-7.1615,-7.1673,-7.1876,-7.2253,-7.2166,-7.1498,-7.1266,-7.115,-7.1092,-7.115,-7.1208,-7.1586,-7.1992,-7.2515,-7.3061,-7.3774,-7.4704,-7.6607,-7.9126,-8.0193,-8.0996,-8.2331,-8.4024,-7.2797,-7.2797,-7.2797,-7.3024,-7.3632,-7.3632,-7.426,-7.5086,-7.5286,-7.5658,-7.6055,-7.6055,-7.6055,-7.6055,-7.6055,-7.6055,-7.6055,-7.6055,-7.6055,-7.6055,-7.6055,-7.6055,-7.6055,-7.6055,-7.6055,-7.6055,-7.6055,-7.6055,-7.6055,-7.6055,-7.6055,-7.6055,-7.603,-7.5653,-7.49,-7.4875,-7.4222,-7.3468,-7.2916,-7.2565,-7.2288,-7.1987,-7.151,-7.0681,-7.0405,-7.0003,-6.9526,-6.9275,-6.9175,-6.93,-6.8622,-6.812,-6.7744,-6.7267,-6.6739,-6.6187,-6.6112,-6.6112,-6.6112,-6.6112,-6.6112,-6.5961,-6.5553,-6.5645,-6.6887,-6.7581,-6.9164,-7.1964,-7.272,-7.3356,-7.356,-7.3356,-7.3385,-7.3356,-7.3211,-7.2921,-7.2747,-7.2631,-7.2456,-7.2456,-7.2369,-7.1963,-7.1615,-7.1498,-7.144,-7.1528,-7.1876,-7.2311,-7.2631,-7.2863,-7.2863,-7.2863,-7.2544,-7.2253,-7.2515,-7.2805,-7.3066,-7.2602,-7.2166,-7.1992,-7.1615,-7.1557,-7.1702,-7.1871,-7.2303,-7.2886,-7.3442,-7.4361,-7.5488,-7.7714,-8.0004,-8.1306,-8.2716,-8.4478,-8.5878,-7.3203,-7.3227,-7.3024,-7.3227,-7.3833,-7.4035,-7.4662,-7.546,-7.546,-7.5658,-7.6055,-7.6055,-7.6055,-7.6055,-7.6055,-7.6055,-7.6055,-7.6055,-7.6055,-7.6055,-7.6055,-7.6055,-7.6055,-7.6055,-7.6055,-7.6055,-7.6055,-7.6055,-7.6055,-7.6055,-7.6055,-7.6055,-7.6055,-7.5728,-7.5377,-7.5126,-7.4674,-7.387,-7.3268,-7.2841,-7.2514,-7.2238,-7.151,-7.0857,-7.0405,-7.0154,-6.9551,-6.9426,-6.9426,-6.9325,-6.91,-6.8597,-6.8095,-6.7568,-6.7015,-6.6513,-6.6287,-6.6112,-6.6112,-6.6112,-6.6112,-6.5936,-6.5755,-6.6131,-6.7959,-6.8314,-6.9191,-7.2592,-7.353,-7.3763,-7.4024,-7.3995,-7.4024,-7.3908,-7.3676,-7.3327,-7.3037,-7.3037,-7.3008,-7.2921,-7.2863,-7.2776,-7.2485,-7.234,-7.2282,-7.2282,-7.2631,-7.3153,-7.3501,-7.3792,-7.3763,-7.3676,-7.3501,-7.3182,-7.3327,-7.3531,-7.3734,-7.3647,-7.3211,-7.2892,-7.2573,-7.2398,-7.2456,-7.257,-7.2911,-7.3699,-7.4606,-7.5437,-7.6335,-7.843,-8.0533,-8.3003,-8.4814,-8.6403,-8.7256,-7.4437,-7.426,-7.3833,-7.3833,-7.4461,-7.5086,-7.546,-7.6055,-7.6055,-7.6055,-7.6055,-7.6055,-7.6055,-7.6055,-7.6055,-7.6055,-7.6055,-7.6055,-7.6055,-7.6055,-7.6055,-7.6055,-7.6055,-7.6055,-7.6055,-7.6055,-7.5954,-7.5954,-7.603,-7.5904,-7.5979,-7.6055,-7.603,-7.5703,-7.5427,-7.5276,-7.5,-7.4322,-7.3745,-7.3393,-7.3117,-7.2765,-7.2012,-7.1184,-7.0907,-7.0556,-6.9526,-6.9451,-6.9451,-6.9451,-6.9225,-6.8999,-6.8422,-6.7794,-6.7216,-6.684,-6.6338,-6.6162,-6.6112,-6.6112,-6.6112,-6.5961,-6.578,-6.595,-6.7845,-6.8943,-7.0374,-7.2236,-7.3695,-7.4721,-7.4866,-7.4924,-7.4721,-7.4634,-7.4372,-7.4053,-7.3792,-7.3618,-7.356,-7.3443,-7.3356,-7.3327,-7.3356,-7.324,-7.3182,-7.3182,-7.3501,-7.4024,-7.4227,-7.4488,-7.4459,-7.4401,-7.4343,-7.4256,-7.4285,-7.4372,-7.4401,-7.4256,-7.3937,-7.3763,-7.3589,-7.3472,-7.324,-7.3878,-7.4256,-7.5072,-7.5977,-7.7091,-7.8213,-7.9239,-8.0999,-8.3739,-8.5415,-8.6557,-8.7137,-7.4437,-7.4437,-7.4662,-7.4862,-7.5061,-7.5286,-7.5658,-7.6055,-7.6055,-7.6055,-7.6055,-7.6055,-7.6055,-7.6055,-7.6055,-7.6055,-7.6055,-7.6055,-7.6055,-7.6055,-7.6055,-7.6055,-7.6055,-7.6055,-7.6055,-7.5979,-7.5778,-7.5552,-7.5527,-7.5552,-7.5552,-7.5603,-7.5854,-7.5954,-7.5728,-7.5427,-7.5151,-7.4774,-7.4071,-7.3494,-7.3042,-7.2841,-7.2037,-7.0706,-7.0983,-7.048,-6.9627,-6.9476,-6.9451,-6.9376,-6.915,-6.8924,-6.8597,-6.7894,-6.7392,-6.7041,-6.6513,-6.6212,-6.6137,-6.6137,-6.6112,-6.6011,-6.5805,-6.6128,-6.7689,-6.9053,-7.0474,-7.2259,-7.4178,-7.533,-7.533,-7.5272,-7.5214,-7.5272,-7.5098,-7.4779,-7.4547,-7.4372,-7.4227,-7.4111,-7.4082,-7.4024,-7.4082,-7.414,-7.4111,-7.414,-7.4518,-7.4837,-7.5011,-7.5156,-7.5127,-7.504,-7.4982,-7.4808,-7.4808,-7.4895,-7.4982,-7.4866,-7.4692,-7.4663,-7.4576,-7.4227,-7.4198,-7.4925,-7.5627,-7.6183,-7.7058,-7.8831,-8.0004,-8.0749,-8.2377,-8.4473,-8.5915,-8.6864,-8.7137,-7.5061,-7.5061,-7.546,-7.546,-7.5286,-7.546,-7.5658,-7.6055,-7.6055,-7.6055,-7.6055,-7.6055,-7.6055,-7.6055,-7.6055,-7.6055,-7.6055,-7.6055,-7.6055,-7.6055,-7.6055,-7.6055,-7.6055,-7.6055,-7.6055,-7.5929,-7.5552,-7.5276,-7.5276,-7.5101,-7.5,-7.5151,-7.5527,-7.5778,-7.5954,-7.5703,-7.5477,-7.5226,-7.4623,-7.3946,-7.3569,-7.3318,-7.2665,-7.141,-7.1535,-7.0932,-7.0154,-6.9752,-6.9602,-6.9426,-6.9175,-6.8949,-6.8572,-6.8095,-6.7568,-6.7241,-6.684,-6.6413,-6.6338,-6.6187,-6.6137,-6.6036,-6.5835,-6.678,-6.8185,-6.9562,-7.1076,-7.2988,-7.4658,-7.5795,-7.5766,-7.5795,-7.5795,-7.5853,-7.5708,-7.5417,-7.5272,-7.5098,-7.4953,-7.4808,-7.4692,-7.4459,-7.4895,-7.4982,-7.4953,-7.504,-7.533,-7.5592,-7.5708,-7.5795,-7.5795,-7.5679,-7.5563,-7.5359,-7.5156,-7.5417,-7.5679,-7.5708,-7.5592,-7.565,-7.5534,-7.5156,-7.5069,-7.5711,-7.6327,-7.6917,-7.7938,-7.9194,-8.0617,-8.2097,-8.3898,-8.5669,-8.6315,-8.7137,-8.7137,-7.6055,-7.6055,-7.6055,-7.5882,-7.546,-7.5857,-7.6055,-7.6055,-7.6055,-7.6055,-7.6055,-7.6055,-7.6055,-7.6055,-7.6055,-7.6055,-7.6055,-7.6055,-7.6055,-7.6055,-7.6055,-7.6055,-7.6055,-7.6055,-7.6055,-7.5904,-7.5527,-7.5226,-7.5226,-7.4925,-7.4674,-7.4799,-7.5276,-7.5678,-7.603,-7.6055,-7.603,-7.5929,-7.5377,-7.5025,-7.4774,-7.4297,-7.3318,-7.2615,-7.2213,-7.151,-7.0581,-7.0129,-6.9928,-6.9627,-6.9426,-6.93,-6.9175,-6.8698,-6.8371,-6.8321,-6.7442,-6.699,-6.6915,-6.6413,-6.6212,-6.6137,-6.5936,-6.667,-6.8524,-7.0015,-7.1519,-7.2969,-7.5145,-7.6167,-7.6375,-7.6375,-7.6317,-7.6259,-7.6114,-7.5998,-7.5824,-7.5737,-7.5563,-7.5475,-7.504,-7.4779,-7.5417,-7.5824,-7.5795,-7.5911,-7.6172,-7.6288,-7.6288,-7.6259,-7.6201,-7.6143,-7.5998,-7.594,-7.5824,-7.6143,-7.6346,-7.6404,-7.6496,-7.638,-7.638,-7.6296,-7.6354,-7.6496,-7.6914,-7.7446,-7.8321,-7.9354,-8.0863,-8.2591,-8.498,-8.659,-8.7137,-8.7289,-8.7289,-7.6055,-7.6055,-7.6055,-7.6055,-7.5857,-7.6055,-7.6055,-7.6055,-7.6055,-7.6055,-7.6055,-7.6055,-7.6055,-7.6055,-7.6004,-7.6004,-7.603,-7.6055,-7.6055,-7.6055,-7.6055,-7.6055,-7.6055,-7.6055,-7.6055,-7.5904,-7.5552,-7.5226,-7.5226,-7.49,-7.495,-7.5101,-7.5352,-7.5829,-7.603,-7.6055,-7.6055,-7.5954,-7.5552,-7.5201,-7.5126,-7.4397,-7.3594,-7.2816,-7.2514,-7.1861,-7.0907,-7.0606,-7.0305,-6.9978,-6.9777,-6.9501,-6.9401,-6.8974,-6.8673,-6.8547,-6.7844,-6.7342,-6.7116,-6.6714,-6.6513,-6.6287,-6.6112,-6.6429,-6.7256,-6.9847,-7.1284,-7.2719,-7.5135,-7.6132,-7.6433,-7.6433,-7.6404,-7.6404,-7.6317,-7.6346,-7.6259,-7.6201,-7.6143,-7.6143,-7.5882,-7.5737,-7.6085,-7.6143,-7.6143,-7.6172,-7.6346,-7.6375,-7.6375,-7.6404,-7.6375,-7.6375,-7.6317,-7.6375,-7.6462,-7.6462,-7.6462,-7.6433,-7.6733,-7.6882,-7.6882,-7.6911,-7.7031,-7.715,-7.7593,-7.8063,-7.8585,-7.9415,-8.1138,-8.2987,-8.4602,-8.5915,-8.6071,-8.6623,-8.7289,-7.6055,-7.6055,-7.6055,-7.6055,-7.6055,-7.6055,-7.6055,-7.6055,-7.6055,-7.6055,-7.603,-7.5879,-7.5753,-7.5703,-7.5578,-7.5678,-7.5753,-7.5778,-7.6004,-7.6004,-7.6055,-7.6055,-7.6055,-7.6055,-7.6055,-7.5904,-7.5552,-7.5226,-7.5201,-7.5025,-7.5025,-7.5226,-7.5603,-7.5804,-7.5954,-7.6055,-7.6055,-7.5979,-7.5703,-7.5578,-7.5327,-7.4749,-7.3996,-7.3468,-7.2991,-7.2414,-7.1636,-7.1158,-7.0907,-7.0531,-7.0079,-6.9727,-6.9551,-6.925,-6.8949,-6.8748,-6.8396,-6.7744,-6.7191,-6.6965,-6.6639,-6.6187,-6.6137,-6.6429,-6.7256,-6.9847,-7.1445,-7.3034,-7.4982,-7.5953,-7.6462,-7.6462,-7.6462,-7.6462,-7.6462,-7.6462,-7.6462,-7.6404,-7.6375,-7.6433,-7.6462,-7.6462,-7.6462,-7.6433,-7.6375,-7.6404,-7.6462,-7.6462,-7.6462,-7.6462,-7.6462,-7.6462,-7.6462,-7.6462,-7.6462,-7.6462,-7.6462,-7.6462,-7.6762,-7.709,-7.7238,-7.7209,-7.7505,-7.7623,-7.7946,-7.8238,-7.8644,-7.9557,-8.054,-8.1714,-8.2987,-8.4059,-8.4822,-8.6038,-8.717,-7.6055,-7.6055,-7.603,-7.6004,-7.6004,-7.5904,-7.5929,-7.5979,-7.6004,-7.5979,-7.5929,-7.5452,-7.5402,-7.5201,-7.4774,-7.49,-7.5251,-7.5327,-7.5578,-7.5904,-7.6004,-7.603,-7.6055,-7.6055,-7.6055,-7.5879,-7.5653,-7.5427,-7.5251,-7.5126,-7.5101,-7.5251,-7.5502,-7.5678,-7.5879,-7.5904,-7.5954,-7.5954,-7.5979,-7.5879,-7.5703,-7.5352,-7.4749,-7.4297,-7.392,-7.3167,-7.2514,-7.2087,-7.1761,-7.1234,-7.0531,-7.033,-7.0079,-6.9727,-6.9551,-6.93,-6.8874,-6.8145,-6.7442,-6.7267,-6.6815,-6.6388,-6.6162,-6.7112,-6.8215,-6.9821,-7.1445,-7.3062,-7.4982,-7.5801,-7.6462,-7.6462,-7.6462,-7.6462,-7.6462,-7.6462,-7.6462,-7.6433,-7.6433,-7.6462,-7.6462,-7.6462,-7.6462,-7.6462,-7.6462,-7.6462,-7.6462,-7.6462,-7.6462,-7.6462,-7.6462,-7.6462,-7.6462,-7.6462,-7.6462,-7.6462,-7.6462,-7.6462,-7.6911,-7.7209,-7.7357,-7.7505,-7.777,-7.8093,-7.8122,-7.8414,-7.8674,-7.8963,-7.9453,-8.074,-8.2584,-8.3666,-8.4828,-8.6258,-8.7289,-7.6055,-7.603,-7.5653,-7.5477,-7.5427,-7.505,-7.49,-7.4925,-7.5276,-7.5276,-7.4925,-7.5578,-7.5527,-7.5226,-7.5101,-7.5075,-7.5176,-7.5251,-7.5327,-7.5578,-7.5929,-7.603,-7.6055,-7.6055,-7.6055,-7.6004,-7.5879,-7.5753,-7.5804,-7.5552,-7.5527,-7.5804,-7.5653,-7.5678,-7.5527,-7.5477,-7.5703,-7.5904,-7.5979,-7.603,-7.5904,-7.5527,-7.5126,-7.4824,-7.4247,-7.3519,-7.3117,-7.2464,-7.2062,-7.1686,-7.0757,-7.0305,-7.0204,-6.9752,-6.9451,-6.9451,-6.92,-6.8874,-6.8221,-6.7769,-6.7317,-6.6789,-6.6438,-6.6308,-6.7569,-6.9571,-7.1499,-7.3219,-7.4982,-7.6132,-7.6462,-7.6462,-7.6462,-7.6462,-7.6462,-7.6462,-7.6462,-7.6462,-7.6462,-7.6462,-7.6462,-7.6462,-7.6462,-7.6462,-7.6462,-7.6462,-7.6462,-7.6491,-7.6462,-7.6462,-7.6462,-7.6462,-7.6462,-7.6462,-7.6462,-7.6462,-7.6462,-7.6612,-7.706,-7.7357,-7.7475,-7.777,-7.8209,-7.8619,-7.8973,-7.8883,-7.8819,-7.9423,-8.0474,-8.1478,-8.3101,-8.3983,-8.5021,-8.6529,-8.7654,-7.5402,-7.5352,-7.505,-7.4799,-7.4573,-7.4473,-7.4197,-7.3996,-7.4799,-7.5126,-7.5126,-7.5502,-7.5552,-7.5201,-7.4799,-7.4749,-7.5201,-7.4975,-7.5101,-7.5753,-7.5879,-7.6004,-7.6055,-7.6055,-7.6055,-7.6055,-7.6055,-7.6004,-7.6055,-7.603,-7.5979,-7.5653,-7.5728,-7.5402,-7.5075,-7.495,-7.5226,-7.5527,-7.5753,-7.5854,-7.5778,-7.5527,-7.5226,-7.4875,-7.4171,-7.382,-7.3343,-7.259,-7.2514,-7.2138,-7.1158,-7.0606,-7.043,-6.9928,-6.9451,-6.9451,-6.9401,-6.9074,-6.8572,-6.8296,-6.7844,-6.7392,-6.6965,-6.7385,-6.837,-7.0219,-7.1635,-7.2905,-7.4982,-7.6462,-7.6462,-7.6462,-7.6462,-7.6462,-7.6462,-7.6462,-7.6462,-7.6462,-7.6462,-7.6462,-7.6462,-7.6462,-7.6462,-7.6491,-7.6491,-7.655,-7.6637,-7.6724,-7.6608,-7.6462,-7.6462,-7.6462,-7.6462,-7.6462,-7.6491,-7.6521,-7.6491,-7.6642,-7.7209,-7.7475,-7.777,-7.8122,-7.8649,-7.9322,-8.0056,-7.9935,-7.9988,-8.1094,-8.2192,-8.3126,-8.4174,-8.5213,-8.6144,-8.7117,-8.8107,-7.4423,-7.4448,-7.4372,-7.4046,-7.3644,-7.4071,-7.382,-7.3092,-7.4523,-7.5327,-7.5477,-7.5377,-7.5176,-7.4774,-7.4197,-7.4372,-7.4724,-7.4724,-7.5025,-7.5954,-7.6004,-7.6055,-7.6055,-7.6055,-7.6055,-7.6055,-7.6055,-7.6055,-7.6055,-7.603,-7.5829,-7.5301,-7.5427,-7.5251,-7.4849,-7.4749,-7.5,-7.5276,-7.5352,-7.5402,-7.5753,-7.5527,-7.5025,-7.4749,-7.4372,-7.4021,-7.3368,-7.3167,-7.3318,-7.2565,-7.1861,-7.1184,-7.0581,-7.0029,-6.9577,-6.9451,-6.9451,-6.925,-6.8899,-6.8597,-6.8321,-6.802,-6.7819,-6.8268,-6.9042,-7.0864,-7.2259,-7.3554,-7.566,-7.6428,-7.655,-7.6491,-7.6462,-7.6462,-7.6462,-7.6462,-7.6462,-7.6491,-7.6579,-7.6637,-7.6782,-7.6811,-7.7101,-7.7188,-7.7246,-7.7014,-7.7014,-7.7188,-7.6956,-7.6724,-7.6724,-7.6753,-7.6927,-7.6956,-7.6753,-7.6753,-7.6579,-7.682,-7.7209,-7.7475,-7.7623,-7.8357,-7.9118,-7.9797,-8.0363,-8.1339,-8.1814,-8.2834,-8.3857,-8.4623,-8.5663,-8.666,-8.7423,-8.8301,-8.8745,-7.4423,-7.4372,-7.3971,-7.3468,-7.3042,-7.3544,-7.392,-7.4046,-7.4397,-7.4272,-7.3845,-7.4623,-7.4799,-7.4121,-7.382,-7.4046,-7.4498,-7.4523,-7.4849,-7.5427,-7.5804,-7.5929,-7.603,-7.5979,-7.603,-7.6055,-7.6055,-7.6004,-7.6055,-7.603,-7.6004,-7.5829,-7.5703,-7.5327,-7.49,-7.4849,-7.4824,-7.5176,-7.4925,-7.5251,-7.5879,-7.5678,-7.5251,-7.5176,-7.5,-7.4423,-7.387,-7.3619,-7.3318,-7.269,-7.2087,-7.1334,-7.048,-6.9828,-6.9501,-6.9451,-6.9451,-6.9325,-6.9175,-6.8899,-6.8622,-6.8396,-6.8145,-6.8071,-6.8989,-7.1282,-7.3157,-7.4614,-7.5792,-7.6385,-7.6724,-7.6637,-7.6579,-7.6579,-7.6491,-7.6491,-7.6521,-7.6637,-7.6724,-7.6898,-7.7072,-7.7391,-7.7711,-7.7856,-7.7914,-7.7972,-7.803,-7.8001,-7.7595,-7.7333,-7.763,-7.7689,-7.774,-7.774,-7.7275,-7.702,-7.6816,-7.6999,-7.7357,-7.7475,-7.7652,-7.8833,-7.9956,-8.0135,-8.0668,-8.1744,-8.3067,-8.4432,-8.5461,-8.6174,-8.7177,-8.8197,-8.8999,-8.9693,-8.9949,-7.3669,-7.3619,-7.3343,-7.3016,-7.2916,-7.3594,-7.4021,-7.4121,-7.4548,-7.4297,-7.3644,-7.4372,-7.4498,-7.387,-7.372,-7.4071,-7.4498,-7.4197,-7.4849,-7.5427,-7.5452,-7.5653,-7.5753,-7.5854,-7.5929,-7.5954,-7.5778,-7.5728,-7.5904,-7.5753,-7.5653,-7.5678,-7.5552,-7.5276,-7.4875,-7.4573,-7.4674,-7.5151,-7.4699,-7.5101,-7.5879,-7.5628,-7.5377,-7.5352,-7.5176,-7.4674,-7.4272,-7.392,-7.3494,-7.2916,-7.2339,-7.1334,-7.0556,-7.0029,-6.9702,-6.9526,-6.9451,-6.9451,-6.9351,-6.9175,-6.8949,-6.8798,-6.8773,-6.8801,-7.0513,-7.2658,-7.3346,-7.4653,-7.6748,-7.75,-7.7624,-7.7566,-7.7566,-7.7566,-7.7159,-7.6898,-7.7014,-7.7159,-7.7159,-7.7188,-7.7478,-7.7914,-7.8146,-7.8146,-7.8233,-7.832,-7.8465,-7.8553,-7.8175,-7.8125,-7.827,-7.8241,-7.8299,-7.7863,-7.6927,-7.6874,-7.6995,-7.7177,-7.7504,-7.8065,-7.8773,-7.9901,-8.0823,-8.0913,-8.1476,-8.2649,-8.4011,-8.5334,-8.65,-8.734,-8.8561,-8.9883,-9.0436,-9.0767,-9.0734,-7.2765,-7.274,-7.274,-7.274,-7.2891,-7.392,-7.4096,-7.3845,-7.4649,-7.4799,-7.4197,-7.4222,-7.4297,-7.4121,-7.3795,-7.4397,-7.4548,-7.4021,-7.4674,-7.5377,-7.505,-7.5452,-7.5653,-7.5603,-7.5578,-7.5477,-7.5301,-7.5427,-7.5628,-7.5452,-7.5327,-7.5151,-7.4925,-7.4649,-7.4322,-7.4021,-7.4197,-7.5,-7.5126,-7.5226,-7.5427,-7.5578,-7.5427,-7.5327,-7.5151,-7.49,-7.4397,-7.3971,-7.3644,-7.3067,-7.2439,-7.161,-7.0857,-7.0355,-6.9978,-6.9752,-6.9501,-6.9476,-6.9426,-6.9401,-6.9351,-6.9376,-6.9451,-7.0273,-7.1913,-7.3208,-7.3911,-7.5294,-7.742,-7.8282,-7.8407,-7.8349,-7.8349,-7.8291,-7.7769,-7.7391,-7.7537,-7.7711,-7.7682,-7.7624,-7.803,-7.8494,-7.8669,-7.864,-7.8698,-7.8756,-7.8785,-7.8785,-7.8756,-7.8881,-7.9064,-7.8839,-7.8517,-7.7782,-7.7345,-7.7525,-7.8059,-7.8091,-7.8478,-7.907,-7.969,-8.0464,-8.1063,-8.1721,-8.2434,-8.3289,-8.4462,-8.5799,-8.6959,-8.8214,-8.9534,-9.0701,-9.09,-9.1165,-9.1165,-7.274,-7.274,-7.274,-7.274,-7.2891,-7.392,-7.4096,-7.3745,-7.4297,-7.4272,-7.3996,-7.3795,-7.3745,-7.3745,-7.3142,-7.3594,-7.4573,-7.3946,-7.4699,-7.5678,-7.495,-7.5377,-7.5628,-7.5276,-7.5025,-7.4849,-7.4699,-7.4699,-7.5,-7.5126,-7.5226,-7.5201,-7.5653,-7.5603,-7.5628,-7.5301,-7.5126,-7.5552,-7.5402,-7.5377,-7.5653,-7.5728,-7.5628,-7.5402,-7.5025,-7.4699,-7.4272,-7.387,-7.3393,-7.2841,-7.2364,-7.1861,-7.1359,-7.0807,-7.0405,-7.0129,-6.9853,-6.9627,-6.9627,-6.9577,-6.9577,-6.9786,-6.9941,-7.063,-7.2289,-7.4159,-7.5183,-7.6643,-7.8106,-7.8775,-7.8814,-7.864,-7.8582,-7.8553,-7.8233,-7.8117,-7.8146,-7.8349,-7.8436,-7.8611,-7.8901,-7.9336,-7.9714,-7.9685,-7.9685,-7.9743,-7.9714,-7.9656,-7.9434,-7.9618,-7.9861,-7.9671,-7.9237,-7.9623,-7.9771,-7.9237,-7.9569,-7.9483,-7.9485,-7.9991,-8.0377,-8.0584,-8.1123,-8.1991,-8.268,-8.3456,-8.4701,-8.6252,-8.7502,-8.8828,-9.035,-9.143,-9.1529,-9.1496,-9.1397]}]]